<?xml version="1.0" encoding="UTF-8" standalone="no" ?>
<gpx xmlns="http://www.topografix.com/GPX/1/1" xmlns:xsi="http://www.w3.org/2001/XMLSchema-instance" xsi:schemaLocation="http://www.topografix.com/GPX/1/1 http://www.topografix.com/GPX/1/1/gpx.xsd" version="1.1" creator="VisuGPX - https://www.visugpx.com">
  <metadata>
    <name>Rando Chantraine 2012</name>
    <desc><![CDATA[Super single pendant 40 kms]]></desc>
  </metadata>
  <trk>
    <name><![CDATA[Rando Chantraine 19/08/12+++]]></name>
    <trkseg>
      <trkpt lat="48.16758" lon="6.43713">
        <ele>435</ele>
        <time>2012-08-19T06:27:11Z</time>
      </trkpt>
      <trkpt lat="48.16758" lon="6.43713">
        <ele>417</ele>
        <time>2012-08-19T06:27:17Z</time>
      </trkpt>
      <trkpt lat="48.16752" lon="6.43674">
        <ele>421</ele>
        <time>2012-08-19T06:27:21Z</time>
      </trkpt>
      <trkpt lat="48.16752" lon="6.43674">
        <ele>412</ele>
        <time>2012-08-19T06:27:31Z</time>
      </trkpt>
      <trkpt lat="48.16754" lon="6.43689">
        <ele>413</ele>
        <time>2012-08-19T06:27:36Z</time>
      </trkpt>
      <trkpt lat="48.16759" lon="6.43681">
        <ele>406</ele>
        <time>2012-08-19T06:27:56Z</time>
      </trkpt>
      <trkpt lat="48.16768" lon="6.43679">
        <ele>407</ele>
        <time>2012-08-19T06:28:18Z</time>
      </trkpt>
      <trkpt lat="48.16759" lon="6.43677">
        <ele>409</ele>
        <time>2012-08-19T06:30:28Z</time>
      </trkpt>
      <trkpt lat="48.16751" lon="6.43682">
        <ele>409</ele>
        <time>2012-08-19T06:31:24Z</time>
      </trkpt>
      <trkpt lat="48.16746" lon="6.43695">
        <ele>410</ele>
        <time>2012-08-19T06:31:29Z</time>
      </trkpt>
      <trkpt lat="48.1674" lon="6.43703">
        <ele>411</ele>
        <time>2012-08-19T06:31:33Z</time>
      </trkpt>
      <trkpt lat="48.16737" lon="6.43713">
        <ele>411</ele>
        <time>2012-08-19T06:31:37Z</time>
      </trkpt>
      <trkpt lat="48.16731" lon="6.43723">
        <ele>412</ele>
        <time>2012-08-19T06:31:41Z</time>
      </trkpt>
      <trkpt lat="48.16725" lon="6.43733">
        <ele>413</ele>
        <time>2012-08-19T06:31:45Z</time>
      </trkpt>
      <trkpt lat="48.16724" lon="6.43752">
        <ele>415</ele>
        <time>2012-08-19T06:31:50Z</time>
      </trkpt>
      <trkpt lat="48.16724" lon="6.43772">
        <ele>416</ele>
        <time>2012-08-19T06:31:54Z</time>
      </trkpt>
      <trkpt lat="48.16724" lon="6.43795">
        <ele>418</ele>
        <time>2012-08-19T06:31:59Z</time>
      </trkpt>
      <trkpt lat="48.16729" lon="6.43816">
        <ele>419</ele>
        <time>2012-08-19T06:32:03Z</time>
      </trkpt>
      <trkpt lat="48.16733" lon="6.43843">
        <ele>420</ele>
        <time>2012-08-19T06:32:07Z</time>
      </trkpt>
      <trkpt lat="48.16735" lon="6.43885">
        <ele>427</ele>
        <time>2012-08-19T06:32:12Z</time>
      </trkpt>
      <trkpt lat="48.1673" lon="6.43917">
        <ele>432</ele>
        <time>2012-08-19T06:32:16Z</time>
      </trkpt>
      <trkpt lat="48.16719" lon="6.43957">
        <ele>432</ele>
        <time>2012-08-19T06:32:20Z</time>
      </trkpt>
      <trkpt lat="48.16704" lon="6.43991">
        <ele>433</ele>
        <time>2012-08-19T06:32:24Z</time>
      </trkpt>
      <trkpt lat="48.16691" lon="6.44018">
        <ele>432</ele>
        <time>2012-08-19T06:32:28Z</time>
      </trkpt>
      <trkpt lat="48.16664" lon="6.44046">
        <ele>431</ele>
        <time>2012-08-19T06:32:33Z</time>
      </trkpt>
      <trkpt lat="48.16645" lon="6.44059">
        <ele>432</ele>
        <time>2012-08-19T06:32:37Z</time>
      </trkpt>
      <trkpt lat="48.16631" lon="6.44066">
        <ele>432</ele>
        <time>2012-08-19T06:32:42Z</time>
      </trkpt>
      <trkpt lat="48.16623" lon="6.44056">
        <ele>433</ele>
        <time>2012-08-19T06:32:46Z</time>
      </trkpt>
      <trkpt lat="48.16618" lon="6.44036">
        <ele>433</ele>
        <time>2012-08-19T06:32:50Z</time>
      </trkpt>
      <trkpt lat="48.16616" lon="6.44017">
        <ele>433</ele>
        <time>2012-08-19T06:32:54Z</time>
      </trkpt>
      <trkpt lat="48.16617" lon="6.43996">
        <ele>433</ele>
        <time>2012-08-19T06:32:58Z</time>
      </trkpt>
      <trkpt lat="48.16617" lon="6.43977">
        <ele>432</ele>
        <time>2012-08-19T06:33:02Z</time>
      </trkpt>
      <trkpt lat="48.16616" lon="6.43961">
        <ele>433</ele>
        <time>2012-08-19T06:33:06Z</time>
      </trkpt>
      <trkpt lat="48.16617" lon="6.43943">
        <ele>433</ele>
        <time>2012-08-19T06:33:11Z</time>
      </trkpt>
      <trkpt lat="48.16616" lon="6.43927">
        <ele>434</ele>
        <time>2012-08-19T06:33:16Z</time>
      </trkpt>
      <trkpt lat="48.16614" lon="6.4391">
        <ele>434</ele>
        <time>2012-08-19T06:33:20Z</time>
      </trkpt>
      <trkpt lat="48.1661" lon="6.43889">
        <ele>435</ele>
        <time>2012-08-19T06:33:25Z</time>
      </trkpt>
      <trkpt lat="48.16605" lon="6.43867">
        <ele>436</ele>
        <time>2012-08-19T06:33:30Z</time>
      </trkpt>
      <trkpt lat="48.16599" lon="6.43849">
        <ele>436</ele>
        <time>2012-08-19T06:33:34Z</time>
      </trkpt>
      <trkpt lat="48.16594" lon="6.4383">
        <ele>437</ele>
        <time>2012-08-19T06:33:38Z</time>
      </trkpt>
      <trkpt lat="48.16587" lon="6.4382">
        <ele>438</ele>
        <time>2012-08-19T06:33:42Z</time>
      </trkpt>
      <trkpt lat="48.16571" lon="6.43828">
        <ele>438</ele>
        <time>2012-08-19T06:33:47Z</time>
      </trkpt>
      <trkpt lat="48.16556" lon="6.43836">
        <ele>438</ele>
        <time>2012-08-19T06:33:51Z</time>
      </trkpt>
      <trkpt lat="48.16551" lon="6.43824">
        <ele>438</ele>
        <time>2012-08-19T06:33:55Z</time>
      </trkpt>
      <trkpt lat="48.16545" lon="6.43801">
        <ele>439</ele>
        <time>2012-08-19T06:34:00Z</time>
      </trkpt>
      <trkpt lat="48.16543" lon="6.4378">
        <ele>440</ele>
        <time>2012-08-19T06:34:05Z</time>
      </trkpt>
      <trkpt lat="48.16542" lon="6.43765">
        <ele>440</ele>
        <time>2012-08-19T06:34:09Z</time>
      </trkpt>
      <trkpt lat="48.16536" lon="6.43753">
        <ele>441</ele>
        <time>2012-08-19T06:34:13Z</time>
      </trkpt>
      <trkpt lat="48.16529" lon="6.43733">
        <ele>441</ele>
        <time>2012-08-19T06:34:17Z</time>
      </trkpt>
      <trkpt lat="48.16526" lon="6.43708">
        <ele>441</ele>
        <time>2012-08-19T06:34:22Z</time>
      </trkpt>
      <trkpt lat="48.16522" lon="6.43692">
        <ele>441</ele>
        <time>2012-08-19T06:34:26Z</time>
      </trkpt>
      <trkpt lat="48.16515" lon="6.43671">
        <ele>442</ele>
        <time>2012-08-19T06:34:31Z</time>
      </trkpt>
      <trkpt lat="48.16515" lon="6.43651">
        <ele>442</ele>
        <time>2012-08-19T06:34:35Z</time>
      </trkpt>
      <trkpt lat="48.16514" lon="6.43621">
        <ele>442</ele>
        <time>2012-08-19T06:34:40Z</time>
      </trkpt>
      <trkpt lat="48.16518" lon="6.43602">
        <ele>442</ele>
        <time>2012-08-19T06:34:45Z</time>
      </trkpt>
      <trkpt lat="48.16525" lon="6.43582">
        <ele>442</ele>
        <time>2012-08-19T06:34:49Z</time>
      </trkpt>
      <trkpt lat="48.16528" lon="6.43563">
        <ele>442</ele>
        <time>2012-08-19T06:34:54Z</time>
      </trkpt>
      <trkpt lat="48.16522" lon="6.43558">
        <ele>442</ele>
        <time>2012-08-19T06:35:00Z</time>
      </trkpt>
      <trkpt lat="48.16516" lon="6.43551">
        <ele>442</ele>
        <time>2012-08-19T06:35:04Z</time>
      </trkpt>
      <trkpt lat="48.16508" lon="6.4354">
        <ele>442</ele>
        <time>2012-08-19T06:35:08Z</time>
      </trkpt>
      <trkpt lat="48.16495" lon="6.43526">
        <ele>442</ele>
        <time>2012-08-19T06:35:13Z</time>
      </trkpt>
      <trkpt lat="48.16482" lon="6.43516">
        <ele>441</ele>
        <time>2012-08-19T06:35:17Z</time>
      </trkpt>
      <trkpt lat="48.16473" lon="6.43502">
        <ele>442</ele>
        <time>2012-08-19T06:35:21Z</time>
      </trkpt>
      <trkpt lat="48.16463" lon="6.43481">
        <ele>442</ele>
        <time>2012-08-19T06:35:25Z</time>
      </trkpt>
      <trkpt lat="48.16455" lon="6.43467">
        <ele>442</ele>
        <time>2012-08-19T06:35:29Z</time>
      </trkpt>
      <trkpt lat="48.16454" lon="6.43444">
        <ele>442</ele>
        <time>2012-08-19T06:35:33Z</time>
      </trkpt>
      <trkpt lat="48.16442" lon="6.43423">
        <ele>442</ele>
        <time>2012-08-19T06:35:38Z</time>
      </trkpt>
      <trkpt lat="48.16425" lon="6.4341">
        <ele>439</ele>
        <time>2012-08-19T06:35:42Z</time>
      </trkpt>
      <trkpt lat="48.16406" lon="6.4339">
        <ele>437</ele>
        <time>2012-08-19T06:35:46Z</time>
      </trkpt>
      <trkpt lat="48.16377" lon="6.43371">
        <ele>435</ele>
        <time>2012-08-19T06:35:51Z</time>
      </trkpt>
      <trkpt lat="48.16354" lon="6.43359">
        <ele>432</ele>
        <time>2012-08-19T06:35:55Z</time>
      </trkpt>
      <trkpt lat="48.16328" lon="6.43344">
        <ele>431</ele>
        <time>2012-08-19T06:35:59Z</time>
      </trkpt>
      <trkpt lat="48.16305" lon="6.43331">
        <ele>431</ele>
        <time>2012-08-19T06:36:03Z</time>
      </trkpt>
      <trkpt lat="48.16293" lon="6.43329">
        <ele>431</ele>
        <time>2012-08-19T06:36:07Z</time>
      </trkpt>
      <trkpt lat="48.16287" lon="6.4334">
        <ele>431</ele>
        <time>2012-08-19T06:36:11Z</time>
      </trkpt>
      <trkpt lat="48.16285" lon="6.4335">
        <ele>431</ele>
        <time>2012-08-19T06:36:16Z</time>
      </trkpt>
      <trkpt lat="48.16276" lon="6.43421">
        <ele>431</ele>
        <time>2012-08-19T06:36:20Z</time>
      </trkpt>
      <trkpt lat="48.16279" lon="6.43473">
        <ele>431</ele>
        <time>2012-08-19T06:36:25Z</time>
      </trkpt>
      <trkpt lat="48.16279" lon="6.43503">
        <ele>432</ele>
        <time>2012-08-19T06:36:29Z</time>
      </trkpt>
      <trkpt lat="48.16279" lon="6.43538">
        <ele>432</ele>
        <time>2012-08-19T06:36:34Z</time>
      </trkpt>
      <trkpt lat="48.16281" lon="6.43586">
        <ele>429</ele>
        <time>2012-08-19T06:36:38Z</time>
      </trkpt>
      <trkpt lat="48.16294" lon="6.43625">
        <ele>423</ele>
        <time>2012-08-19T06:36:42Z</time>
      </trkpt>
      <trkpt lat="48.16302" lon="6.4367">
        <ele>421</ele>
        <time>2012-08-19T06:36:47Z</time>
      </trkpt>
      <trkpt lat="48.16307" lon="6.43702">
        <ele>420</ele>
        <time>2012-08-19T06:36:51Z</time>
      </trkpt>
      <trkpt lat="48.16322" lon="6.43749">
        <ele>417</ele>
        <time>2012-08-19T06:36:56Z</time>
      </trkpt>
      <trkpt lat="48.16341" lon="6.43789">
        <ele>414</ele>
        <time>2012-08-19T06:37:01Z</time>
      </trkpt>
      <trkpt lat="48.16357" lon="6.43826">
        <ele>410</ele>
        <time>2012-08-19T06:37:05Z</time>
      </trkpt>
      <trkpt lat="48.16372" lon="6.4386">
        <ele>408</ele>
        <time>2012-08-19T06:37:09Z</time>
      </trkpt>
      <trkpt lat="48.16387" lon="6.43886">
        <ele>402</ele>
        <time>2012-08-19T06:37:13Z</time>
      </trkpt>
      <trkpt lat="48.16404" lon="6.43919">
        <ele>400</ele>
        <time>2012-08-19T06:37:17Z</time>
      </trkpt>
      <trkpt lat="48.16415" lon="6.43956">
        <ele>399</ele>
        <time>2012-08-19T06:37:21Z</time>
      </trkpt>
      <trkpt lat="48.16415" lon="6.4399">
        <ele>398</ele>
        <time>2012-08-19T06:37:25Z</time>
      </trkpt>
      <trkpt lat="48.16412" lon="6.44019">
        <ele>398</ele>
        <time>2012-08-19T06:37:29Z</time>
      </trkpt>
      <trkpt lat="48.1639" lon="6.44054">
        <ele>398</ele>
        <time>2012-08-19T06:37:34Z</time>
      </trkpt>
      <trkpt lat="48.16368" lon="6.44076">
        <ele>397</ele>
        <time>2012-08-19T06:37:39Z</time>
      </trkpt>
      <trkpt lat="48.16375" lon="6.44102">
        <ele>396</ele>
        <time>2012-08-19T06:37:44Z</time>
      </trkpt>
      <trkpt lat="48.16384" lon="6.44119">
        <ele>396</ele>
        <time>2012-08-19T06:37:49Z</time>
      </trkpt>
      <trkpt lat="48.16396" lon="6.44142">
        <ele>394</ele>
        <time>2012-08-19T06:37:53Z</time>
      </trkpt>
      <trkpt lat="48.16406" lon="6.4417">
        <ele>391</ele>
        <time>2012-08-19T06:37:57Z</time>
      </trkpt>
      <trkpt lat="48.16417" lon="6.44211">
        <ele>388</ele>
        <time>2012-08-19T06:38:02Z</time>
      </trkpt>
      <trkpt lat="48.16423" lon="6.4426">
        <ele>388</ele>
        <time>2012-08-19T06:38:07Z</time>
      </trkpt>
      <trkpt lat="48.1644" lon="6.44298">
        <ele>388</ele>
        <time>2012-08-19T06:38:12Z</time>
      </trkpt>
      <trkpt lat="48.16453" lon="6.44333">
        <ele>388</ele>
        <time>2012-08-19T06:38:16Z</time>
      </trkpt>
      <trkpt lat="48.16459" lon="6.44361">
        <ele>388</ele>
        <time>2012-08-19T06:38:20Z</time>
      </trkpt>
      <trkpt lat="48.16458" lon="6.44404">
        <ele>384</ele>
        <time>2012-08-19T06:38:25Z</time>
      </trkpt>
      <trkpt lat="48.16458" lon="6.44438">
        <ele>382</ele>
        <time>2012-08-19T06:38:29Z</time>
      </trkpt>
      <trkpt lat="48.16444" lon="6.44471">
        <ele>381</ele>
        <time>2012-08-19T06:38:33Z</time>
      </trkpt>
      <trkpt lat="48.16441" lon="6.44496">
        <ele>381</ele>
        <time>2012-08-19T06:38:38Z</time>
      </trkpt>
      <trkpt lat="48.16437" lon="6.44512">
        <ele>381</ele>
        <time>2012-08-19T06:38:43Z</time>
      </trkpt>
      <trkpt lat="48.16433" lon="6.44528">
        <ele>381</ele>
        <time>2012-08-19T06:38:47Z</time>
      </trkpt>
      <trkpt lat="48.16422" lon="6.44537">
        <ele>381</ele>
        <time>2012-08-19T06:38:52Z</time>
      </trkpt>
      <trkpt lat="48.16409" lon="6.44544">
        <ele>381</ele>
        <time>2012-08-19T06:38:57Z</time>
      </trkpt>
      <trkpt lat="48.16398" lon="6.44544">
        <ele>381</ele>
        <time>2012-08-19T06:39:01Z</time>
      </trkpt>
      <trkpt lat="48.16386" lon="6.44545">
        <ele>381</ele>
        <time>2012-08-19T06:39:05Z</time>
      </trkpt>
      <trkpt lat="48.16375" lon="6.44545">
        <ele>381</ele>
        <time>2012-08-19T06:39:09Z</time>
      </trkpt>
      <trkpt lat="48.16364" lon="6.44546">
        <ele>381</ele>
        <time>2012-08-19T06:39:13Z</time>
      </trkpt>
      <trkpt lat="48.16355" lon="6.44544">
        <ele>382</ele>
        <time>2012-08-19T06:39:19Z</time>
      </trkpt>
      <trkpt lat="48.16348" lon="6.44546">
        <ele>382</ele>
        <time>2012-08-19T06:39:34Z</time>
      </trkpt>
      <trkpt lat="48.16334" lon="6.44546">
        <ele>382</ele>
        <time>2012-08-19T06:39:39Z</time>
      </trkpt>
      <trkpt lat="48.16316" lon="6.44548">
        <ele>381</ele>
        <time>2012-08-19T06:39:43Z</time>
      </trkpt>
      <trkpt lat="48.16299" lon="6.4454">
        <ele>381</ele>
        <time>2012-08-19T06:39:47Z</time>
      </trkpt>
      <trkpt lat="48.16275" lon="6.44551">
        <ele>380</ele>
        <time>2012-08-19T06:39:52Z</time>
      </trkpt>
      <trkpt lat="48.16253" lon="6.44557">
        <ele>382</ele>
        <time>2012-08-19T06:39:56Z</time>
      </trkpt>
      <trkpt lat="48.16215" lon="6.44565">
        <ele>383</ele>
        <time>2012-08-19T06:40:01Z</time>
      </trkpt>
      <trkpt lat="48.1618" lon="6.44579">
        <ele>386</ele>
        <time>2012-08-19T06:40:05Z</time>
      </trkpt>
      <trkpt lat="48.16146" lon="6.44592">
        <ele>390</ele>
        <time>2012-08-19T06:40:10Z</time>
      </trkpt>
      <trkpt lat="48.16118" lon="6.44602">
        <ele>387</ele>
        <time>2012-08-19T06:40:14Z</time>
      </trkpt>
      <trkpt lat="48.16099" lon="6.44609">
        <ele>385</ele>
        <time>2012-08-19T06:40:18Z</time>
      </trkpt>
      <trkpt lat="48.16081" lon="6.44608">
        <ele>384</ele>
        <time>2012-08-19T06:40:22Z</time>
      </trkpt>
      <trkpt lat="48.16071" lon="6.44591">
        <ele>382</ele>
        <time>2012-08-19T06:40:26Z</time>
      </trkpt>
      <trkpt lat="48.1606" lon="6.44573">
        <ele>377</ele>
        <time>2012-08-19T06:40:30Z</time>
      </trkpt>
      <trkpt lat="48.16044" lon="6.44557">
        <ele>373</ele>
        <time>2012-08-19T06:40:35Z</time>
      </trkpt>
      <trkpt lat="48.16032" lon="6.44544">
        <ele>373</ele>
        <time>2012-08-19T06:40:39Z</time>
      </trkpt>
      <trkpt lat="48.16023" lon="6.44528">
        <ele>373</ele>
        <time>2012-08-19T06:40:43Z</time>
      </trkpt>
      <trkpt lat="48.16012" lon="6.44506">
        <ele>372</ele>
        <time>2012-08-19T06:40:48Z</time>
      </trkpt>
      <trkpt lat="48.16002" lon="6.4449">
        <ele>372</ele>
        <time>2012-08-19T06:40:52Z</time>
      </trkpt>
      <trkpt lat="48.15993" lon="6.44472">
        <ele>373</ele>
        <time>2012-08-19T06:40:56Z</time>
      </trkpt>
      <trkpt lat="48.15985" lon="6.44446">
        <ele>373</ele>
        <time>2012-08-19T06:41:01Z</time>
      </trkpt>
      <trkpt lat="48.15978" lon="6.44423">
        <ele>373</ele>
        <time>2012-08-19T06:41:05Z</time>
      </trkpt>
      <trkpt lat="48.15974" lon="6.44401">
        <ele>374</ele>
        <time>2012-08-19T06:41:09Z</time>
      </trkpt>
      <trkpt lat="48.15969" lon="6.4438">
        <ele>374</ele>
        <time>2012-08-19T06:41:13Z</time>
      </trkpt>
      <trkpt lat="48.15962" lon="6.44351">
        <ele>374</ele>
        <time>2012-08-19T06:41:17Z</time>
      </trkpt>
      <trkpt lat="48.15955" lon="6.44328">
        <ele>375</ele>
        <time>2012-08-19T06:41:21Z</time>
      </trkpt>
      <trkpt lat="48.15946" lon="6.44297">
        <ele>375</ele>
        <time>2012-08-19T06:41:26Z</time>
      </trkpt>
      <trkpt lat="48.1594" lon="6.4427">
        <ele>376</ele>
        <time>2012-08-19T06:41:30Z</time>
      </trkpt>
      <trkpt lat="48.15936" lon="6.44243">
        <ele>377</ele>
        <time>2012-08-19T06:41:34Z</time>
      </trkpt>
      <trkpt lat="48.15933" lon="6.44215">
        <ele>378</ele>
        <time>2012-08-19T06:41:38Z</time>
      </trkpt>
      <trkpt lat="48.15937" lon="6.44185">
        <ele>378</ele>
        <time>2012-08-19T06:41:43Z</time>
      </trkpt>
      <trkpt lat="48.15937" lon="6.44157">
        <ele>378</ele>
        <time>2012-08-19T06:41:47Z</time>
      </trkpt>
      <trkpt lat="48.15935" lon="6.44131">
        <ele>379</ele>
        <time>2012-08-19T06:41:51Z</time>
      </trkpt>
      <trkpt lat="48.1593" lon="6.44094">
        <ele>379</ele>
        <time>2012-08-19T06:41:56Z</time>
      </trkpt>
      <trkpt lat="48.15921" lon="6.44063">
        <ele>380</ele>
        <time>2012-08-19T06:42:00Z</time>
      </trkpt>
      <trkpt lat="48.1591" lon="6.4403">
        <ele>381</ele>
        <time>2012-08-19T06:42:05Z</time>
      </trkpt>
      <trkpt lat="48.15903" lon="6.44006">
        <ele>380</ele>
        <time>2012-08-19T06:42:09Z</time>
      </trkpt>
      <trkpt lat="48.15895" lon="6.4398">
        <ele>380</ele>
        <time>2012-08-19T06:42:13Z</time>
      </trkpt>
      <trkpt lat="48.15886" lon="6.43949">
        <ele>382</ele>
        <time>2012-08-19T06:42:18Z</time>
      </trkpt>
      <trkpt lat="48.15882" lon="6.43924">
        <ele>383</ele>
        <time>2012-08-19T06:42:22Z</time>
      </trkpt>
      <trkpt lat="48.15877" lon="6.43899">
        <ele>383</ele>
        <time>2012-08-19T06:42:26Z</time>
      </trkpt>
      <trkpt lat="48.15876" lon="6.43875">
        <ele>383</ele>
        <time>2012-08-19T06:42:30Z</time>
      </trkpt>
      <trkpt lat="48.15873" lon="6.43854">
        <ele>383</ele>
        <time>2012-08-19T06:42:34Z</time>
      </trkpt>
      <trkpt lat="48.1587" lon="6.43835">
        <ele>384</ele>
        <time>2012-08-19T06:42:38Z</time>
      </trkpt>
      <trkpt lat="48.15862" lon="6.43818">
        <ele>384</ele>
        <time>2012-08-19T06:42:43Z</time>
      </trkpt>
      <trkpt lat="48.15853" lon="6.43811">
        <ele>385</ele>
        <time>2012-08-19T06:42:47Z</time>
      </trkpt>
      <trkpt lat="48.15838" lon="6.43792">
        <ele>386</ele>
        <time>2012-08-19T06:42:52Z</time>
      </trkpt>
      <trkpt lat="48.15834" lon="6.43777">
        <ele>387</ele>
        <time>2012-08-19T06:42:56Z</time>
      </trkpt>
      <trkpt lat="48.1584" lon="6.43762">
        <ele>388</ele>
        <time>2012-08-19T06:43:01Z</time>
      </trkpt>
      <trkpt lat="48.15848" lon="6.43756">
        <ele>388</ele>
        <time>2012-08-19T06:43:05Z</time>
      </trkpt>
      <trkpt lat="48.15855" lon="6.43751">
        <ele>389</ele>
        <time>2012-08-19T06:43:09Z</time>
      </trkpt>
      <trkpt lat="48.15863" lon="6.43747">
        <ele>390</ele>
        <time>2012-08-19T06:43:14Z</time>
      </trkpt>
      <trkpt lat="48.15873" lon="6.43743">
        <ele>391</ele>
        <time>2012-08-19T06:43:19Z</time>
      </trkpt>
      <trkpt lat="48.1588" lon="6.43743">
        <ele>392</ele>
        <time>2012-08-19T06:43:25Z</time>
      </trkpt>
      <trkpt lat="48.15887" lon="6.43751">
        <ele>393</ele>
        <time>2012-08-19T06:43:29Z</time>
      </trkpt>
      <trkpt lat="48.15893" lon="6.43758">
        <ele>394</ele>
        <time>2012-08-19T06:43:33Z</time>
      </trkpt>
      <trkpt lat="48.15904" lon="6.43773">
        <ele>395</ele>
        <time>2012-08-19T06:43:38Z</time>
      </trkpt>
      <trkpt lat="48.15908" lon="6.43789">
        <ele>395</ele>
        <time>2012-08-19T06:43:42Z</time>
      </trkpt>
      <trkpt lat="48.15914" lon="6.43811">
        <ele>396</ele>
        <time>2012-08-19T06:43:47Z</time>
      </trkpt>
      <trkpt lat="48.15919" lon="6.43829">
        <ele>397</ele>
        <time>2012-08-19T06:43:52Z</time>
      </trkpt>
      <trkpt lat="48.15924" lon="6.43843">
        <ele>397</ele>
        <time>2012-08-19T06:43:56Z</time>
      </trkpt>
      <trkpt lat="48.15927" lon="6.43853">
        <ele>398</ele>
        <time>2012-08-19T06:44:00Z</time>
      </trkpt>
      <trkpt lat="48.15931" lon="6.4387">
        <ele>399</ele>
        <time>2012-08-19T06:44:05Z</time>
      </trkpt>
      <trkpt lat="48.15938" lon="6.43893">
        <ele>400</ele>
        <time>2012-08-19T06:44:10Z</time>
      </trkpt>
      <trkpt lat="48.15942" lon="6.43911">
        <ele>400</ele>
        <time>2012-08-19T06:44:14Z</time>
      </trkpt>
      <trkpt lat="48.15946" lon="6.4393">
        <ele>401</ele>
        <time>2012-08-19T06:44:18Z</time>
      </trkpt>
      <trkpt lat="48.15949" lon="6.43947">
        <ele>402</ele>
        <time>2012-08-19T06:44:22Z</time>
      </trkpt>
      <trkpt lat="48.15953" lon="6.43969">
        <ele>402</ele>
        <time>2012-08-19T06:44:26Z</time>
      </trkpt>
      <trkpt lat="48.15959" lon="6.43986">
        <ele>403</ele>
        <time>2012-08-19T06:44:30Z</time>
      </trkpt>
      <trkpt lat="48.15973" lon="6.44006">
        <ele>403</ele>
        <time>2012-08-19T06:44:35Z</time>
      </trkpt>
      <trkpt lat="48.15985" lon="6.4402">
        <ele>404</ele>
        <time>2012-08-19T06:44:39Z</time>
      </trkpt>
      <trkpt lat="48.16003" lon="6.44033">
        <ele>405</ele>
        <time>2012-08-19T06:44:44Z</time>
      </trkpt>
      <trkpt lat="48.16013" lon="6.44037">
        <ele>405</ele>
        <time>2012-08-19T06:44:48Z</time>
      </trkpt>
      <trkpt lat="48.16028" lon="6.44038">
        <ele>406</ele>
        <time>2012-08-19T06:44:53Z</time>
      </trkpt>
      <trkpt lat="48.16037" lon="6.44039">
        <ele>407</ele>
        <time>2012-08-19T06:44:57Z</time>
      </trkpt>
      <trkpt lat="48.1605" lon="6.44057">
        <ele>407</ele>
        <time>2012-08-19T06:45:01Z</time>
      </trkpt>
      <trkpt lat="48.16057" lon="6.4408">
        <ele>408</ele>
        <time>2012-08-19T06:45:05Z</time>
      </trkpt>
      <trkpt lat="48.1606" lon="6.44103">
        <ele>408</ele>
        <time>2012-08-19T06:45:10Z</time>
      </trkpt>
      <trkpt lat="48.16062" lon="6.44125">
        <ele>409</ele>
        <time>2012-08-19T06:45:14Z</time>
      </trkpt>
      <trkpt lat="48.16063" lon="6.44149">
        <ele>410</ele>
        <time>2012-08-19T06:45:18Z</time>
      </trkpt>
      <trkpt lat="48.16063" lon="6.44174">
        <ele>411</ele>
        <time>2012-08-19T06:45:23Z</time>
      </trkpt>
      <trkpt lat="48.16058" lon="6.44197">
        <ele>412</ele>
        <time>2012-08-19T06:45:27Z</time>
      </trkpt>
      <trkpt lat="48.16054" lon="6.44236">
        <ele>416</ele>
        <time>2012-08-19T06:45:32Z</time>
      </trkpt>
      <trkpt lat="48.16053" lon="6.44259">
        <ele>417</ele>
        <time>2012-08-19T06:45:36Z</time>
      </trkpt>
      <trkpt lat="48.16049" lon="6.44286">
        <ele>417</ele>
        <time>2012-08-19T06:45:40Z</time>
      </trkpt>
      <trkpt lat="48.16048" lon="6.4431">
        <ele>417</ele>
        <time>2012-08-19T06:45:44Z</time>
      </trkpt>
      <trkpt lat="48.16051" lon="6.44346">
        <ele>418</ele>
        <time>2012-08-19T06:45:49Z</time>
      </trkpt>
      <trkpt lat="48.16063" lon="6.44384">
        <ele>418</ele>
        <time>2012-08-19T06:45:54Z</time>
      </trkpt>
      <trkpt lat="48.16075" lon="6.44405">
        <ele>416</ele>
        <time>2012-08-19T06:45:58Z</time>
      </trkpt>
      <trkpt lat="48.16091" lon="6.44432">
        <ele>414</ele>
        <time>2012-08-19T06:46:03Z</time>
      </trkpt>
      <trkpt lat="48.16105" lon="6.44446">
        <ele>413</ele>
        <time>2012-08-19T06:46:07Z</time>
      </trkpt>
      <trkpt lat="48.1612" lon="6.44453">
        <ele>413</ele>
        <time>2012-08-19T06:46:11Z</time>
      </trkpt>
      <trkpt lat="48.16138" lon="6.44456">
        <ele>413</ele>
        <time>2012-08-19T06:46:15Z</time>
      </trkpt>
      <trkpt lat="48.16154" lon="6.44456">
        <ele>413</ele>
        <time>2012-08-19T06:46:19Z</time>
      </trkpt>
      <trkpt lat="48.16169" lon="6.44456">
        <ele>413</ele>
        <time>2012-08-19T06:46:23Z</time>
      </trkpt>
      <trkpt lat="48.16189" lon="6.44454">
        <ele>414</ele>
        <time>2012-08-19T06:46:28Z</time>
      </trkpt>
      <trkpt lat="48.16197" lon="6.44453">
        <ele>415</ele>
        <time>2012-08-19T06:46:32Z</time>
      </trkpt>
      <trkpt lat="48.16209" lon="6.4445">
        <ele>415</ele>
        <time>2012-08-19T06:46:37Z</time>
      </trkpt>
      <trkpt lat="48.16219" lon="6.44448">
        <ele>416</ele>
        <time>2012-08-19T06:46:41Z</time>
      </trkpt>
      <trkpt lat="48.16233" lon="6.44445">
        <ele>416</ele>
        <time>2012-08-19T06:46:46Z</time>
      </trkpt>
      <trkpt lat="48.16246" lon="6.44437">
        <ele>416</ele>
        <time>2012-08-19T06:46:50Z</time>
      </trkpt>
      <trkpt lat="48.16255" lon="6.44422">
        <ele>417</ele>
        <time>2012-08-19T06:46:54Z</time>
      </trkpt>
      <trkpt lat="48.16256" lon="6.44407">
        <ele>417</ele>
        <time>2012-08-19T06:46:58Z</time>
      </trkpt>
      <trkpt lat="48.16265" lon="6.44384">
        <ele>418</ele>
        <time>2012-08-19T06:47:03Z</time>
      </trkpt>
      <trkpt lat="48.16276" lon="6.44378">
        <ele>418</ele>
        <time>2012-08-19T06:47:07Z</time>
      </trkpt>
      <trkpt lat="48.16284" lon="6.44369">
        <ele>419</ele>
        <time>2012-08-19T06:47:11Z</time>
      </trkpt>
      <trkpt lat="48.16291" lon="6.44357">
        <ele>420</ele>
        <time>2012-08-19T06:47:16Z</time>
      </trkpt>
      <trkpt lat="48.163" lon="6.44336">
        <ele>421</ele>
        <time>2012-08-19T06:47:20Z</time>
      </trkpt>
      <trkpt lat="48.16298" lon="6.44318">
        <ele>421</ele>
        <time>2012-08-19T06:47:24Z</time>
      </trkpt>
      <trkpt lat="48.16289" lon="6.44295">
        <ele>422</ele>
        <time>2012-08-19T06:47:29Z</time>
      </trkpt>
      <trkpt lat="48.16282" lon="6.44281">
        <ele>423</ele>
        <time>2012-08-19T06:47:33Z</time>
      </trkpt>
      <trkpt lat="48.16273" lon="6.4426">
        <ele>425</ele>
        <time>2012-08-19T06:47:38Z</time>
      </trkpt>
      <trkpt lat="48.16265" lon="6.44245">
        <ele>426</ele>
        <time>2012-08-19T06:47:43Z</time>
      </trkpt>
      <trkpt lat="48.16258" lon="6.44233">
        <ele>427</ele>
        <time>2012-08-19T06:47:47Z</time>
      </trkpt>
      <trkpt lat="48.16251" lon="6.44224">
        <ele>428</ele>
        <time>2012-08-19T06:47:51Z</time>
      </trkpt>
      <trkpt lat="48.16243" lon="6.44214">
        <ele>429</ele>
        <time>2012-08-19T06:47:56Z</time>
      </trkpt>
      <trkpt lat="48.16234" lon="6.44203">
        <ele>430</ele>
        <time>2012-08-19T06:48:00Z</time>
      </trkpt>
      <trkpt lat="48.16225" lon="6.4419">
        <ele>430</ele>
        <time>2012-08-19T06:48:05Z</time>
      </trkpt>
      <trkpt lat="48.16219" lon="6.44182">
        <ele>431</ele>
        <time>2012-08-19T06:48:09Z</time>
      </trkpt>
      <trkpt lat="48.16209" lon="6.44172">
        <ele>432</ele>
        <time>2012-08-19T06:48:13Z</time>
      </trkpt>
      <trkpt lat="48.16198" lon="6.44162">
        <ele>433</ele>
        <time>2012-08-19T06:48:17Z</time>
      </trkpt>
      <trkpt lat="48.16189" lon="6.44153">
        <ele>434</ele>
        <time>2012-08-19T06:48:21Z</time>
      </trkpt>
      <trkpt lat="48.16178" lon="6.44143">
        <ele>434</ele>
        <time>2012-08-19T06:48:26Z</time>
      </trkpt>
      <trkpt lat="48.16168" lon="6.44135">
        <ele>435</ele>
        <time>2012-08-19T06:48:30Z</time>
      </trkpt>
      <trkpt lat="48.16156" lon="6.44112">
        <ele>438</ele>
        <time>2012-08-19T06:48:35Z</time>
      </trkpt>
      <trkpt lat="48.16148" lon="6.4408">
        <ele>444</ele>
        <time>2012-08-19T06:48:39Z</time>
      </trkpt>
      <trkpt lat="48.16147" lon="6.44052">
        <ele>445</ele>
        <time>2012-08-19T06:48:44Z</time>
      </trkpt>
      <trkpt lat="48.16142" lon="6.44028">
        <ele>445</ele>
        <time>2012-08-19T06:48:48Z</time>
      </trkpt>
      <trkpt lat="48.16135" lon="6.44003">
        <ele>446</ele>
        <time>2012-08-19T06:48:53Z</time>
      </trkpt>
      <trkpt lat="48.16126" lon="6.4399">
        <ele>446</ele>
        <time>2012-08-19T06:48:57Z</time>
      </trkpt>
      <trkpt lat="48.16114" lon="6.43972">
        <ele>446</ele>
        <time>2012-08-19T06:49:01Z</time>
      </trkpt>
      <trkpt lat="48.16102" lon="6.43955">
        <ele>446</ele>
        <time>2012-08-19T06:49:05Z</time>
      </trkpt>
      <trkpt lat="48.16091" lon="6.43938">
        <ele>446</ele>
        <time>2012-08-19T06:49:09Z</time>
      </trkpt>
      <trkpt lat="48.16081" lon="6.43917">
        <ele>446</ele>
        <time>2012-08-19T06:49:13Z</time>
      </trkpt>
      <trkpt lat="48.16076" lon="6.43891">
        <ele>446</ele>
        <time>2012-08-19T06:49:17Z</time>
      </trkpt>
      <trkpt lat="48.16081" lon="6.43856">
        <ele>447</ele>
        <time>2012-08-19T06:49:22Z</time>
      </trkpt>
      <trkpt lat="48.1608" lon="6.43834">
        <ele>447</ele>
        <time>2012-08-19T06:49:26Z</time>
      </trkpt>
      <trkpt lat="48.16074" lon="6.4381">
        <ele>447</ele>
        <time>2012-08-19T06:49:30Z</time>
      </trkpt>
      <trkpt lat="48.16074" lon="6.43778">
        <ele>447</ele>
        <time>2012-08-19T06:49:34Z</time>
      </trkpt>
      <trkpt lat="48.16076" lon="6.4375">
        <ele>448</ele>
        <time>2012-08-19T06:49:39Z</time>
      </trkpt>
      <trkpt lat="48.16079" lon="6.43716">
        <ele>449</ele>
        <time>2012-08-19T06:49:44Z</time>
      </trkpt>
      <trkpt lat="48.16084" lon="6.4369">
        <ele>449</ele>
        <time>2012-08-19T06:49:48Z</time>
      </trkpt>
      <trkpt lat="48.1609" lon="6.43657">
        <ele>451</ele>
        <time>2012-08-19T06:49:53Z</time>
      </trkpt>
      <trkpt lat="48.16094" lon="6.43626">
        <ele>452</ele>
        <time>2012-08-19T06:49:57Z</time>
      </trkpt>
      <trkpt lat="48.161" lon="6.436">
        <ele>452</ele>
        <time>2012-08-19T06:50:02Z</time>
      </trkpt>
      <trkpt lat="48.16107" lon="6.43568">
        <ele>451</ele>
        <time>2012-08-19T06:50:06Z</time>
      </trkpt>
      <trkpt lat="48.16114" lon="6.43535">
        <ele>451</ele>
        <time>2012-08-19T06:50:11Z</time>
      </trkpt>
      <trkpt lat="48.16111" lon="6.43503">
        <ele>451</ele>
        <time>2012-08-19T06:50:16Z</time>
      </trkpt>
      <trkpt lat="48.16119" lon="6.43477">
        <ele>451</ele>
        <time>2012-08-19T06:50:20Z</time>
      </trkpt>
      <trkpt lat="48.16126" lon="6.43442">
        <ele>452</ele>
        <time>2012-08-19T06:50:25Z</time>
      </trkpt>
      <trkpt lat="48.16134" lon="6.43414">
        <ele>452</ele>
        <time>2012-08-19T06:50:29Z</time>
      </trkpt>
      <trkpt lat="48.16142" lon="6.43385">
        <ele>452</ele>
        <time>2012-08-19T06:50:34Z</time>
      </trkpt>
      <trkpt lat="48.16141" lon="6.4336">
        <ele>453</ele>
        <time>2012-08-19T06:50:38Z</time>
      </trkpt>
      <trkpt lat="48.16137" lon="6.43329">
        <ele>455</ele>
        <time>2012-08-19T06:50:42Z</time>
      </trkpt>
      <trkpt lat="48.16133" lon="6.43303">
        <ele>457</ele>
        <time>2012-08-19T06:50:46Z</time>
      </trkpt>
      <trkpt lat="48.16125" lon="6.43283">
        <ele>456</ele>
        <time>2012-08-19T06:50:50Z</time>
      </trkpt>
      <trkpt lat="48.16113" lon="6.43287">
        <ele>455</ele>
        <time>2012-08-19T06:50:54Z</time>
      </trkpt>
      <trkpt lat="48.16094" lon="6.43298">
        <ele>455</ele>
        <time>2012-08-19T06:50:58Z</time>
      </trkpt>
      <trkpt lat="48.16075" lon="6.43315">
        <ele>455</ele>
        <time>2012-08-19T06:51:03Z</time>
      </trkpt>
      <trkpt lat="48.16055" lon="6.4333">
        <ele>455</ele>
        <time>2012-08-19T06:51:07Z</time>
      </trkpt>
      <trkpt lat="48.16037" lon="6.43343">
        <ele>455</ele>
        <time>2012-08-19T06:51:12Z</time>
      </trkpt>
      <trkpt lat="48.16017" lon="6.43359">
        <ele>456</ele>
        <time>2012-08-19T06:51:17Z</time>
      </trkpt>
      <trkpt lat="48.16008" lon="6.43356">
        <ele>456</ele>
        <time>2012-08-19T06:51:21Z</time>
      </trkpt>
      <trkpt lat="48.15995" lon="6.43337">
        <ele>456</ele>
        <time>2012-08-19T06:51:26Z</time>
      </trkpt>
      <trkpt lat="48.15987" lon="6.43319">
        <ele>456</ele>
        <time>2012-08-19T06:51:30Z</time>
      </trkpt>
      <trkpt lat="48.15984" lon="6.433">
        <ele>456</ele>
        <time>2012-08-19T06:51:34Z</time>
      </trkpt>
      <trkpt lat="48.1599" lon="6.43278">
        <ele>456</ele>
        <time>2012-08-19T06:51:38Z</time>
      </trkpt>
      <trkpt lat="48.15995" lon="6.43259">
        <ele>456</ele>
        <time>2012-08-19T06:51:42Z</time>
      </trkpt>
      <trkpt lat="48.16005" lon="6.43241">
        <ele>456</ele>
        <time>2012-08-19T06:51:46Z</time>
      </trkpt>
      <trkpt lat="48.16016" lon="6.43221">
        <ele>457</ele>
        <time>2012-08-19T06:51:50Z</time>
      </trkpt>
      <trkpt lat="48.1603" lon="6.43196">
        <ele>457</ele>
        <time>2012-08-19T06:51:55Z</time>
      </trkpt>
      <trkpt lat="48.1604" lon="6.43179">
        <ele>457</ele>
        <time>2012-08-19T06:51:59Z</time>
      </trkpt>
      <trkpt lat="48.16033" lon="6.43161">
        <ele>457</ele>
        <time>2012-08-19T06:52:04Z</time>
      </trkpt>
      <trkpt lat="48.1602" lon="6.43144">
        <ele>454</ele>
        <time>2012-08-19T06:52:08Z</time>
      </trkpt>
      <trkpt lat="48.16006" lon="6.43125">
        <ele>452</ele>
        <time>2012-08-19T06:52:12Z</time>
      </trkpt>
      <trkpt lat="48.15987" lon="6.43099">
        <ele>451</ele>
        <time>2012-08-19T06:52:17Z</time>
      </trkpt>
      <trkpt lat="48.15971" lon="6.43077">
        <ele>451</ele>
        <time>2012-08-19T06:52:21Z</time>
      </trkpt>
      <trkpt lat="48.1595" lon="6.43048">
        <ele>452</ele>
        <time>2012-08-19T06:52:26Z</time>
      </trkpt>
      <trkpt lat="48.15932" lon="6.43023">
        <ele>450</ele>
        <time>2012-08-19T06:52:31Z</time>
      </trkpt>
      <trkpt lat="48.15916" lon="6.42996">
        <ele>452</ele>
        <time>2012-08-19T06:52:36Z</time>
      </trkpt>
      <trkpt lat="48.15905" lon="6.42972">
        <ele>454</ele>
        <time>2012-08-19T06:52:40Z</time>
      </trkpt>
      <trkpt lat="48.15894" lon="6.42963">
        <ele>454</ele>
        <time>2012-08-19T06:52:44Z</time>
      </trkpt>
      <trkpt lat="48.15877" lon="6.42978">
        <ele>456</ele>
        <time>2012-08-19T06:52:49Z</time>
      </trkpt>
      <trkpt lat="48.15862" lon="6.43001">
        <ele>459</ele>
        <time>2012-08-19T06:52:53Z</time>
      </trkpt>
      <trkpt lat="48.15845" lon="6.43029">
        <ele>459</ele>
        <time>2012-08-19T06:52:58Z</time>
      </trkpt>
      <trkpt lat="48.15834" lon="6.4305">
        <ele>459</ele>
        <time>2012-08-19T06:53:02Z</time>
      </trkpt>
      <trkpt lat="48.15819" lon="6.43072">
        <ele>459</ele>
        <time>2012-08-19T06:53:06Z</time>
      </trkpt>
      <trkpt lat="48.15805" lon="6.43095">
        <ele>458</ele>
        <time>2012-08-19T06:53:10Z</time>
      </trkpt>
      <trkpt lat="48.15788" lon="6.43124">
        <ele>457</ele>
        <time>2012-08-19T06:53:14Z</time>
      </trkpt>
      <trkpt lat="48.15773" lon="6.43149">
        <ele>457</ele>
        <time>2012-08-19T06:53:18Z</time>
      </trkpt>
      <trkpt lat="48.15758" lon="6.43175">
        <ele>459</ele>
        <time>2012-08-19T06:53:22Z</time>
      </trkpt>
      <trkpt lat="48.15741" lon="6.432">
        <ele>462</ele>
        <time>2012-08-19T06:53:27Z</time>
      </trkpt>
      <trkpt lat="48.15721" lon="6.43233">
        <ele>460</ele>
        <time>2012-08-19T06:53:31Z</time>
      </trkpt>
      <trkpt lat="48.15702" lon="6.43264">
        <ele>459</ele>
        <time>2012-08-19T06:53:36Z</time>
      </trkpt>
      <trkpt lat="48.15686" lon="6.43288">
        <ele>458</ele>
        <time>2012-08-19T06:53:40Z</time>
      </trkpt>
      <trkpt lat="48.15674" lon="6.43311">
        <ele>455</ele>
        <time>2012-08-19T06:53:44Z</time>
      </trkpt>
      <trkpt lat="48.15657" lon="6.43341">
        <ele>454</ele>
        <time>2012-08-19T06:53:48Z</time>
      </trkpt>
      <trkpt lat="48.15636" lon="6.43371">
        <ele>456</ele>
        <time>2012-08-19T06:53:53Z</time>
      </trkpt>
      <trkpt lat="48.15617" lon="6.43395">
        <ele>457</ele>
        <time>2012-08-19T06:53:57Z</time>
      </trkpt>
      <trkpt lat="48.15608" lon="6.43402">
        <ele>456</ele>
        <time>2012-08-19T06:54:01Z</time>
      </trkpt>
      <trkpt lat="48.15593" lon="6.43406">
        <ele>456</ele>
        <time>2012-08-19T06:54:05Z</time>
      </trkpt>
      <trkpt lat="48.15575" lon="6.43398">
        <ele>456</ele>
        <time>2012-08-19T06:54:09Z</time>
      </trkpt>
      <trkpt lat="48.15555" lon="6.43375">
        <ele>455</ele>
        <time>2012-08-19T06:54:14Z</time>
      </trkpt>
      <trkpt lat="48.15537" lon="6.4336">
        <ele>455</ele>
        <time>2012-08-19T06:54:18Z</time>
      </trkpt>
      <trkpt lat="48.15518" lon="6.43347">
        <ele>455</ele>
        <time>2012-08-19T06:54:22Z</time>
      </trkpt>
      <trkpt lat="48.15492" lon="6.43339">
        <ele>454</ele>
        <time>2012-08-19T06:54:27Z</time>
      </trkpt>
      <trkpt lat="48.15472" lon="6.43344">
        <ele>455</ele>
        <time>2012-08-19T06:54:31Z</time>
      </trkpt>
      <trkpt lat="48.15446" lon="6.43356">
        <ele>455</ele>
        <time>2012-08-19T06:54:36Z</time>
      </trkpt>
      <trkpt lat="48.15426" lon="6.43379">
        <ele>455</ele>
        <time>2012-08-19T06:54:40Z</time>
      </trkpt>
      <trkpt lat="48.15425" lon="6.43412">
        <ele>454</ele>
        <time>2012-08-19T06:54:44Z</time>
      </trkpt>
      <trkpt lat="48.15432" lon="6.43445">
        <ele>452</ele>
        <time>2012-08-19T06:54:48Z</time>
      </trkpt>
      <trkpt lat="48.15445" lon="6.43485">
        <ele>453</ele>
        <time>2012-08-19T06:54:53Z</time>
      </trkpt>
      <trkpt lat="48.15455" lon="6.43516">
        <ele>453</ele>
        <time>2012-08-19T06:54:57Z</time>
      </trkpt>
      <trkpt lat="48.15467" lon="6.4354">
        <ele>454</ele>
        <time>2012-08-19T06:55:02Z</time>
      </trkpt>
      <trkpt lat="48.15473" lon="6.43547">
        <ele>454</ele>
        <time>2012-08-19T06:55:09Z</time>
      </trkpt>
      <trkpt lat="48.15479" lon="6.43554">
        <ele>453</ele>
        <time>2012-08-19T06:55:13Z</time>
      </trkpt>
      <trkpt lat="48.15485" lon="6.43555">
        <ele>452</ele>
        <time>2012-08-19T06:55:17Z</time>
      </trkpt>
      <trkpt lat="48.15498" lon="6.43552">
        <ele>451</ele>
        <time>2012-08-19T06:55:21Z</time>
      </trkpt>
      <trkpt lat="48.15502" lon="6.43558">
        <ele>450</ele>
        <time>2012-08-19T06:55:25Z</time>
      </trkpt>
      <trkpt lat="48.15508" lon="6.43574">
        <ele>449</ele>
        <time>2012-08-19T06:55:30Z</time>
      </trkpt>
      <trkpt lat="48.15513" lon="6.43595">
        <ele>448</ele>
        <time>2012-08-19T06:55:34Z</time>
      </trkpt>
      <trkpt lat="48.15515" lon="6.43614">
        <ele>448</ele>
        <time>2012-08-19T06:55:39Z</time>
      </trkpt>
      <trkpt lat="48.15509" lon="6.43637">
        <ele>447</ele>
        <time>2012-08-19T06:55:43Z</time>
      </trkpt>
      <trkpt lat="48.15512" lon="6.43647">
        <ele>446</ele>
        <time>2012-08-19T06:55:47Z</time>
      </trkpt>
      <trkpt lat="48.1552" lon="6.43658">
        <ele>446</ele>
        <time>2012-08-19T06:55:51Z</time>
      </trkpt>
      <trkpt lat="48.15527" lon="6.43672">
        <ele>445</ele>
        <time>2012-08-19T06:55:55Z</time>
      </trkpt>
      <trkpt lat="48.15532" lon="6.43683">
        <ele>444</ele>
        <time>2012-08-19T06:55:59Z</time>
      </trkpt>
      <trkpt lat="48.15537" lon="6.43695">
        <ele>444</ele>
        <time>2012-08-19T06:56:03Z</time>
      </trkpt>
      <trkpt lat="48.15532" lon="6.43738">
        <ele>440</ele>
        <time>2012-08-19T06:56:08Z</time>
      </trkpt>
      <trkpt lat="48.1553" lon="6.43756">
        <ele>438</ele>
        <time>2012-08-19T06:56:13Z</time>
      </trkpt>
      <trkpt lat="48.15529" lon="6.43773">
        <ele>438</ele>
        <time>2012-08-19T06:56:17Z</time>
      </trkpt>
      <trkpt lat="48.15529" lon="6.43784">
        <ele>439</ele>
        <time>2012-08-19T06:56:21Z</time>
      </trkpt>
      <trkpt lat="48.15529" lon="6.43795">
        <ele>439</ele>
        <time>2012-08-19T06:56:25Z</time>
      </trkpt>
      <trkpt lat="48.15531" lon="6.43814">
        <ele>439</ele>
        <time>2012-08-19T06:56:30Z</time>
      </trkpt>
      <trkpt lat="48.15532" lon="6.43828">
        <ele>439</ele>
        <time>2012-08-19T06:56:34Z</time>
      </trkpt>
      <trkpt lat="48.15532" lon="6.43842">
        <ele>440</ele>
        <time>2012-08-19T06:56:39Z</time>
      </trkpt>
      <trkpt lat="48.15532" lon="6.43859">
        <ele>441</ele>
        <time>2012-08-19T06:56:44Z</time>
      </trkpt>
      <trkpt lat="48.15532" lon="6.43874">
        <ele>441</ele>
        <time>2012-08-19T06:56:49Z</time>
      </trkpt>
      <trkpt lat="48.15532" lon="6.43887">
        <ele>441</ele>
        <time>2012-08-19T06:56:53Z</time>
      </trkpt>
      <trkpt lat="48.15534" lon="6.43903">
        <ele>442</ele>
        <time>2012-08-19T06:56:58Z</time>
      </trkpt>
      <trkpt lat="48.15533" lon="6.43929">
        <ele>442</ele>
        <time>2012-08-19T06:57:03Z</time>
      </trkpt>
      <trkpt lat="48.15537" lon="6.43945">
        <ele>443</ele>
        <time>2012-08-19T06:57:07Z</time>
      </trkpt>
      <trkpt lat="48.15541" lon="6.43959">
        <ele>443</ele>
        <time>2012-08-19T06:57:11Z</time>
      </trkpt>
      <trkpt lat="48.15545" lon="6.43971">
        <ele>443</ele>
        <time>2012-08-19T06:57:15Z</time>
      </trkpt>
      <trkpt lat="48.15552" lon="6.43987">
        <ele>444</ele>
        <time>2012-08-19T06:57:19Z</time>
      </trkpt>
      <trkpt lat="48.15562" lon="6.44005">
        <ele>444</ele>
        <time>2012-08-19T06:57:24Z</time>
      </trkpt>
      <trkpt lat="48.15566" lon="6.4402">
        <ele>445</ele>
        <time>2012-08-19T06:57:28Z</time>
      </trkpt>
      <trkpt lat="48.15572" lon="6.44034">
        <ele>445</ele>
        <time>2012-08-19T06:57:32Z</time>
      </trkpt>
      <trkpt lat="48.15575" lon="6.44052">
        <ele>446</ele>
        <time>2012-08-19T06:57:36Z</time>
      </trkpt>
      <trkpt lat="48.15577" lon="6.4407">
        <ele>447</ele>
        <time>2012-08-19T06:57:40Z</time>
      </trkpt>
      <trkpt lat="48.15584" lon="6.44081">
        <ele>447</ele>
        <time>2012-08-19T06:57:44Z</time>
      </trkpt>
      <trkpt lat="48.15593" lon="6.44093">
        <ele>447</ele>
        <time>2012-08-19T06:57:48Z</time>
      </trkpt>
      <trkpt lat="48.15601" lon="6.44115">
        <ele>448</ele>
        <time>2012-08-19T06:57:52Z</time>
      </trkpt>
      <trkpt lat="48.15602" lon="6.44143">
        <ele>448</ele>
        <time>2012-08-19T06:57:56Z</time>
      </trkpt>
      <trkpt lat="48.15598" lon="6.44173">
        <ele>448</ele>
        <time>2012-08-19T06:58:00Z</time>
      </trkpt>
      <trkpt lat="48.15589" lon="6.44211">
        <ele>447</ele>
        <time>2012-08-19T06:58:04Z</time>
      </trkpt>
      <trkpt lat="48.15579" lon="6.44256">
        <ele>445</ele>
        <time>2012-08-19T06:58:08Z</time>
      </trkpt>
      <trkpt lat="48.15571" lon="6.44303">
        <ele>441</ele>
        <time>2012-08-19T06:58:12Z</time>
      </trkpt>
      <trkpt lat="48.15579" lon="6.44351">
        <ele>437</ele>
        <time>2012-08-19T06:58:16Z</time>
      </trkpt>
      <trkpt lat="48.15594" lon="6.44411">
        <ele>433</ele>
        <time>2012-08-19T06:58:21Z</time>
      </trkpt>
      <trkpt lat="48.15601" lon="6.44443">
        <ele>430</ele>
        <time>2012-08-19T06:58:25Z</time>
      </trkpt>
      <trkpt lat="48.15609" lon="6.44479">
        <ele>428</ele>
        <time>2012-08-19T06:58:30Z</time>
      </trkpt>
      <trkpt lat="48.15619" lon="6.44511">
        <ele>426</ele>
        <time>2012-08-19T06:58:34Z</time>
      </trkpt>
      <trkpt lat="48.15626" lon="6.44544">
        <ele>426</ele>
        <time>2012-08-19T06:58:39Z</time>
      </trkpt>
      <trkpt lat="48.15633" lon="6.44577">
        <ele>426</ele>
        <time>2012-08-19T06:58:43Z</time>
      </trkpt>
      <trkpt lat="48.15641" lon="6.44602">
        <ele>427</ele>
        <time>2012-08-19T06:58:47Z</time>
      </trkpt>
      <trkpt lat="48.15645" lon="6.44616">
        <ele>427</ele>
        <time>2012-08-19T06:58:52Z</time>
      </trkpt>
      <trkpt lat="48.15648" lon="6.44637">
        <ele>426</ele>
        <time>2012-08-19T06:58:57Z</time>
      </trkpt>
      <trkpt lat="48.15642" lon="6.44653">
        <ele>425</ele>
        <time>2012-08-19T06:59:02Z</time>
      </trkpt>
      <trkpt lat="48.15629" lon="6.4466">
        <ele>424</ele>
        <time>2012-08-19T06:59:06Z</time>
      </trkpt>
      <trkpt lat="48.15617" lon="6.44659">
        <ele>423</ele>
        <time>2012-08-19T06:59:11Z</time>
      </trkpt>
      <trkpt lat="48.15603" lon="6.44658">
        <ele>422</ele>
        <time>2012-08-19T06:59:16Z</time>
      </trkpt>
      <trkpt lat="48.15588" lon="6.44666">
        <ele>422</ele>
        <time>2012-08-19T06:59:20Z</time>
      </trkpt>
      <trkpt lat="48.15569" lon="6.44681">
        <ele>421</ele>
        <time>2012-08-19T06:59:24Z</time>
      </trkpt>
      <trkpt lat="48.1556" lon="6.44686">
        <ele>420</ele>
        <time>2012-08-19T06:59:28Z</time>
      </trkpt>
      <trkpt lat="48.15554" lon="6.44683">
        <ele>417</ele>
        <time>2012-08-19T06:59:37Z</time>
      </trkpt>
      <trkpt lat="48.15536" lon="6.44674">
        <ele>412</ele>
        <time>2012-08-19T06:59:41Z</time>
      </trkpt>
      <trkpt lat="48.15521" lon="6.44665">
        <ele>411</ele>
        <time>2012-08-19T06:59:45Z</time>
      </trkpt>
      <trkpt lat="48.15515" lon="6.44654">
        <ele>411</ele>
        <time>2012-08-19T06:59:49Z</time>
      </trkpt>
      <trkpt lat="48.15509" lon="6.44638">
        <ele>411</ele>
        <time>2012-08-19T06:59:54Z</time>
      </trkpt>
      <trkpt lat="48.15501" lon="6.44613">
        <ele>410</ele>
        <time>2012-08-19T06:59:58Z</time>
      </trkpt>
      <trkpt lat="48.15491" lon="6.44573">
        <ele>406</ele>
        <time>2012-08-19T07:00:03Z</time>
      </trkpt>
      <trkpt lat="48.15479" lon="6.4454">
        <ele>403</ele>
        <time>2012-08-19T07:00:07Z</time>
      </trkpt>
      <trkpt lat="48.15464" lon="6.44499">
        <ele>398</ele>
        <time>2012-08-19T07:00:12Z</time>
      </trkpt>
      <trkpt lat="48.15453" lon="6.44486">
        <ele>397</ele>
        <time>2012-08-19T07:00:16Z</time>
      </trkpt>
      <trkpt lat="48.15448" lon="6.44478">
        <ele>397</ele>
        <time>2012-08-19T07:00:20Z</time>
      </trkpt>
      <trkpt lat="48.15447" lon="6.44453">
        <ele>397</ele>
        <time>2012-08-19T07:00:25Z</time>
      </trkpt>
      <trkpt lat="48.15445" lon="6.4443">
        <ele>398</ele>
        <time>2012-08-19T07:00:29Z</time>
      </trkpt>
      <trkpt lat="48.15445" lon="6.44408">
        <ele>398</ele>
        <time>2012-08-19T07:00:34Z</time>
      </trkpt>
      <trkpt lat="48.15446" lon="6.44391">
        <ele>399</ele>
        <time>2012-08-19T07:00:38Z</time>
      </trkpt>
      <trkpt lat="48.15446" lon="6.44371">
        <ele>400</ele>
        <time>2012-08-19T07:00:43Z</time>
      </trkpt>
      <trkpt lat="48.15446" lon="6.44349">
        <ele>401</ele>
        <time>2012-08-19T07:00:47Z</time>
      </trkpt>
      <trkpt lat="48.15445" lon="6.44333">
        <ele>402</ele>
        <time>2012-08-19T07:00:51Z</time>
      </trkpt>
      <trkpt lat="48.15444" lon="6.44316">
        <ele>403</ele>
        <time>2012-08-19T07:00:55Z</time>
      </trkpt>
      <trkpt lat="48.15443" lon="6.44292">
        <ele>404</ele>
        <time>2012-08-19T07:00:59Z</time>
      </trkpt>
      <trkpt lat="48.15445" lon="6.44273">
        <ele>405</ele>
        <time>2012-08-19T07:01:03Z</time>
      </trkpt>
      <trkpt lat="48.15448" lon="6.44255">
        <ele>405</ele>
        <time>2012-08-19T07:01:08Z</time>
      </trkpt>
      <trkpt lat="48.15452" lon="6.44233">
        <ele>406</ele>
        <time>2012-08-19T07:01:13Z</time>
      </trkpt>
      <trkpt lat="48.15455" lon="6.44213">
        <ele>406</ele>
        <time>2012-08-19T07:01:17Z</time>
      </trkpt>
      <trkpt lat="48.1546" lon="6.4419">
        <ele>406</ele>
        <time>2012-08-19T07:01:21Z</time>
      </trkpt>
      <trkpt lat="48.15462" lon="6.44168">
        <ele>407</ele>
        <time>2012-08-19T07:01:26Z</time>
      </trkpt>
      <trkpt lat="48.15464" lon="6.44156">
        <ele>407</ele>
        <time>2012-08-19T07:01:30Z</time>
      </trkpt>
      <trkpt lat="48.15464" lon="6.44138">
        <ele>408</ele>
        <time>2012-08-19T07:01:34Z</time>
      </trkpt>
      <trkpt lat="48.15466" lon="6.44113">
        <ele>408</ele>
        <time>2012-08-19T07:01:39Z</time>
      </trkpt>
      <trkpt lat="48.15468" lon="6.44089">
        <ele>409</ele>
        <time>2012-08-19T07:01:44Z</time>
      </trkpt>
      <trkpt lat="48.15466" lon="6.44071">
        <ele>410</ele>
        <time>2012-08-19T07:01:48Z</time>
      </trkpt>
      <trkpt lat="48.15456" lon="6.44052">
        <ele>411</ele>
        <time>2012-08-19T07:01:52Z</time>
      </trkpt>
      <trkpt lat="48.15451" lon="6.44036">
        <ele>412</ele>
        <time>2012-08-19T07:01:56Z</time>
      </trkpt>
      <trkpt lat="48.15448" lon="6.44014">
        <ele>413</ele>
        <time>2012-08-19T07:02:00Z</time>
      </trkpt>
      <trkpt lat="48.1545" lon="6.43998">
        <ele>414</ele>
        <time>2012-08-19T07:02:04Z</time>
      </trkpt>
      <trkpt lat="48.15452" lon="6.43976">
        <ele>415</ele>
        <time>2012-08-19T07:02:08Z</time>
      </trkpt>
      <trkpt lat="48.15457" lon="6.43951">
        <ele>416</ele>
        <time>2012-08-19T07:02:13Z</time>
      </trkpt>
      <trkpt lat="48.15462" lon="6.43933">
        <ele>417</ele>
        <time>2012-08-19T07:02:17Z</time>
      </trkpt>
      <trkpt lat="48.15467" lon="6.43916">
        <ele>418</ele>
        <time>2012-08-19T07:02:21Z</time>
      </trkpt>
      <trkpt lat="48.15472" lon="6.439">
        <ele>419</ele>
        <time>2012-08-19T07:02:25Z</time>
      </trkpt>
      <trkpt lat="48.15478" lon="6.43886">
        <ele>420</ele>
        <time>2012-08-19T07:02:29Z</time>
      </trkpt>
      <trkpt lat="48.15483" lon="6.43867">
        <ele>421</ele>
        <time>2012-08-19T07:02:34Z</time>
      </trkpt>
      <trkpt lat="48.15488" lon="6.43852">
        <ele>421</ele>
        <time>2012-08-19T07:02:39Z</time>
      </trkpt>
      <trkpt lat="48.15496" lon="6.43831">
        <ele>422</ele>
        <time>2012-08-19T07:02:43Z</time>
      </trkpt>
      <trkpt lat="48.15503" lon="6.43815">
        <ele>423</ele>
        <time>2012-08-19T07:02:48Z</time>
      </trkpt>
      <trkpt lat="48.1551" lon="6.43797">
        <ele>424</ele>
        <time>2012-08-19T07:02:52Z</time>
      </trkpt>
      <trkpt lat="48.15516" lon="6.43774">
        <ele>425</ele>
        <time>2012-08-19T07:02:56Z</time>
      </trkpt>
      <trkpt lat="48.1552" lon="6.43752">
        <ele>425</ele>
        <time>2012-08-19T07:03:01Z</time>
      </trkpt>
      <trkpt lat="48.15525" lon="6.43723">
        <ele>426</ele>
        <time>2012-08-19T07:03:05Z</time>
      </trkpt>
      <trkpt lat="48.15521" lon="6.43694">
        <ele>426</ele>
        <time>2012-08-19T07:03:09Z</time>
      </trkpt>
      <trkpt lat="48.15512" lon="6.43678">
        <ele>427</ele>
        <time>2012-08-19T07:03:14Z</time>
      </trkpt>
      <trkpt lat="48.15501" lon="6.43656">
        <ele>428</ele>
        <time>2012-08-19T07:03:19Z</time>
      </trkpt>
      <trkpt lat="48.15496" lon="6.43647">
        <ele>430</ele>
        <time>2012-08-19T07:03:34Z</time>
      </trkpt>
      <trkpt lat="48.1549" lon="6.43643">
        <ele>430</ele>
        <time>2012-08-19T07:03:43Z</time>
      </trkpt>
      <trkpt lat="48.15481" lon="6.43627">
        <ele>431</ele>
        <time>2012-08-19T07:03:48Z</time>
      </trkpt>
      <trkpt lat="48.15461" lon="6.43621">
        <ele>431</ele>
        <time>2012-08-19T07:03:52Z</time>
      </trkpt>
      <trkpt lat="48.15444" lon="6.43617">
        <ele>431</ele>
        <time>2012-08-19T07:03:56Z</time>
      </trkpt>
      <trkpt lat="48.15435" lon="6.43602">
        <ele>431</ele>
        <time>2012-08-19T07:04:00Z</time>
      </trkpt>
      <trkpt lat="48.15429" lon="6.43579">
        <ele>432</ele>
        <time>2012-08-19T07:04:05Z</time>
      </trkpt>
      <trkpt lat="48.15428" lon="6.43555">
        <ele>432</ele>
        <time>2012-08-19T07:04:10Z</time>
      </trkpt>
      <trkpt lat="48.15428" lon="6.43542">
        <ele>433</ele>
        <time>2012-08-19T07:04:14Z</time>
      </trkpt>
      <trkpt lat="48.15428" lon="6.43525">
        <ele>434</ele>
        <time>2012-08-19T07:04:18Z</time>
      </trkpt>
      <trkpt lat="48.15426" lon="6.43515">
        <ele>435</ele>
        <time>2012-08-19T07:04:22Z</time>
      </trkpt>
      <trkpt lat="48.15423" lon="6.43498">
        <ele>436</ele>
        <time>2012-08-19T07:04:26Z</time>
      </trkpt>
      <trkpt lat="48.15418" lon="6.43479">
        <ele>437</ele>
        <time>2012-08-19T07:04:30Z</time>
      </trkpt>
      <trkpt lat="48.15415" lon="6.43461">
        <ele>438</ele>
        <time>2012-08-19T07:04:34Z</time>
      </trkpt>
      <trkpt lat="48.15413" lon="6.43445">
        <ele>439</ele>
        <time>2012-08-19T07:04:38Z</time>
      </trkpt>
      <trkpt lat="48.1541" lon="6.43425">
        <ele>440</ele>
        <time>2012-08-19T07:04:42Z</time>
      </trkpt>
      <trkpt lat="48.15412" lon="6.43408">
        <ele>441</ele>
        <time>2012-08-19T07:04:46Z</time>
      </trkpt>
      <trkpt lat="48.15413" lon="6.43392">
        <ele>441</ele>
        <time>2012-08-19T07:04:50Z</time>
      </trkpt>
      <trkpt lat="48.15413" lon="6.43376">
        <ele>442</ele>
        <time>2012-08-19T07:04:54Z</time>
      </trkpt>
      <trkpt lat="48.15413" lon="6.43351">
        <ele>442</ele>
        <time>2012-08-19T07:04:58Z</time>
      </trkpt>
      <trkpt lat="48.1542" lon="6.43328">
        <ele>443</ele>
        <time>2012-08-19T07:05:03Z</time>
      </trkpt>
      <trkpt lat="48.15426" lon="6.43317">
        <ele>443</ele>
        <time>2012-08-19T07:05:07Z</time>
      </trkpt>
      <trkpt lat="48.15436" lon="6.43296">
        <ele>443</ele>
        <time>2012-08-19T07:05:11Z</time>
      </trkpt>
      <trkpt lat="48.15453" lon="6.4328">
        <ele>443</ele>
        <time>2012-08-19T07:05:16Z</time>
      </trkpt>
      <trkpt lat="48.15465" lon="6.43281">
        <ele>444</ele>
        <time>2012-08-19T07:05:20Z</time>
      </trkpt>
      <trkpt lat="48.15475" lon="6.43282">
        <ele>444</ele>
        <time>2012-08-19T07:05:24Z</time>
      </trkpt>
      <trkpt lat="48.15485" lon="6.4328">
        <ele>445</ele>
        <time>2012-08-19T07:05:28Z</time>
      </trkpt>
      <trkpt lat="48.15499" lon="6.43276">
        <ele>445</ele>
        <time>2012-08-19T07:05:32Z</time>
      </trkpt>
      <trkpt lat="48.15513" lon="6.43276">
        <ele>446</ele>
        <time>2012-08-19T07:05:36Z</time>
      </trkpt>
      <trkpt lat="48.15525" lon="6.43283">
        <ele>446</ele>
        <time>2012-08-19T07:05:40Z</time>
      </trkpt>
      <trkpt lat="48.15535" lon="6.43295">
        <ele>447</ele>
        <time>2012-08-19T07:05:44Z</time>
      </trkpt>
      <trkpt lat="48.15549" lon="6.43307">
        <ele>448</ele>
        <time>2012-08-19T07:05:49Z</time>
      </trkpt>
      <trkpt lat="48.15567" lon="6.43321">
        <ele>449</ele>
        <time>2012-08-19T07:05:54Z</time>
      </trkpt>
      <trkpt lat="48.15576" lon="6.43338">
        <ele>449</ele>
        <time>2012-08-19T07:05:58Z</time>
      </trkpt>
      <trkpt lat="48.15585" lon="6.43357">
        <ele>450</ele>
        <time>2012-08-19T07:06:02Z</time>
      </trkpt>
      <trkpt lat="48.15592" lon="6.43343">
        <ele>450</ele>
        <time>2012-08-19T07:06:07Z</time>
      </trkpt>
      <trkpt lat="48.15593" lon="6.43317">
        <ele>450</ele>
        <time>2012-08-19T07:06:11Z</time>
      </trkpt>
      <trkpt lat="48.15592" lon="6.43284">
        <ele>452</ele>
        <time>2012-08-19T07:06:15Z</time>
      </trkpt>
      <trkpt lat="48.15591" lon="6.43249">
        <ele>453</ele>
        <time>2012-08-19T07:06:19Z</time>
      </trkpt>
      <trkpt lat="48.15591" lon="6.4322">
        <ele>452</ele>
        <time>2012-08-19T07:06:24Z</time>
      </trkpt>
      <trkpt lat="48.15583" lon="6.43209">
        <ele>452</ele>
        <time>2012-08-19T07:06:28Z</time>
      </trkpt>
      <trkpt lat="48.15576" lon="6.43188">
        <ele>452</ele>
        <time>2012-08-19T07:06:32Z</time>
      </trkpt>
      <trkpt lat="48.1557" lon="6.43164">
        <ele>451</ele>
        <time>2012-08-19T07:06:36Z</time>
      </trkpt>
      <trkpt lat="48.15565" lon="6.43142">
        <ele>445</ele>
        <time>2012-08-19T07:06:40Z</time>
      </trkpt>
      <trkpt lat="48.15558" lon="6.43114">
        <ele>441</ele>
        <time>2012-08-19T07:06:45Z</time>
      </trkpt>
      <trkpt lat="48.15557" lon="6.43097">
        <ele>440</ele>
        <time>2012-08-19T07:06:49Z</time>
      </trkpt>
      <trkpt lat="48.15552" lon="6.43077">
        <ele>438</ele>
        <time>2012-08-19T07:06:54Z</time>
      </trkpt>
      <trkpt lat="48.15538" lon="6.43074">
        <ele>434</ele>
        <time>2012-08-19T07:06:58Z</time>
      </trkpt>
      <trkpt lat="48.1551" lon="6.43071">
        <ele>426</ele>
        <time>2012-08-19T07:07:03Z</time>
      </trkpt>
      <trkpt lat="48.15499" lon="6.43066">
        <ele>425</ele>
        <time>2012-08-19T07:07:08Z</time>
      </trkpt>
      <trkpt lat="48.15492" lon="6.43056">
        <ele>425</ele>
        <time>2012-08-19T07:07:12Z</time>
      </trkpt>
      <trkpt lat="48.15491" lon="6.43028">
        <ele>424</ele>
        <time>2012-08-19T07:07:17Z</time>
      </trkpt>
      <trkpt lat="48.1549" lon="6.4301">
        <ele>424</ele>
        <time>2012-08-19T07:07:21Z</time>
      </trkpt>
      <trkpt lat="48.1549" lon="6.42998">
        <ele>423</ele>
        <time>2012-08-19T07:07:25Z</time>
      </trkpt>
      <trkpt lat="48.15503" lon="6.42988">
        <ele>422</ele>
        <time>2012-08-19T07:07:30Z</time>
      </trkpt>
      <trkpt lat="48.15504" lon="6.42976">
        <ele>422</ele>
        <time>2012-08-19T07:07:35Z</time>
      </trkpt>
      <trkpt lat="48.15506" lon="6.42963">
        <ele>421</ele>
        <time>2012-08-19T07:07:40Z</time>
      </trkpt>
      <trkpt lat="48.1551" lon="6.4295">
        <ele>422</ele>
        <time>2012-08-19T07:08:05Z</time>
      </trkpt>
      <trkpt lat="48.15516" lon="6.42941">
        <ele>425</ele>
        <time>2012-08-19T07:08:12Z</time>
      </trkpt>
      <trkpt lat="48.1552" lon="6.42931">
        <ele>426</ele>
        <time>2012-08-19T07:08:17Z</time>
      </trkpt>
      <trkpt lat="48.15525" lon="6.42921">
        <ele>428</ele>
        <time>2012-08-19T07:08:26Z</time>
      </trkpt>
      <trkpt lat="48.15523" lon="6.42908">
        <ele>429</ele>
        <time>2012-08-19T07:08:34Z</time>
      </trkpt>
      <trkpt lat="48.15514" lon="6.42909">
        <ele>431</ele>
        <time>2012-08-19T07:08:43Z</time>
      </trkpt>
      <trkpt lat="48.15505" lon="6.42917">
        <ele>431</ele>
        <time>2012-08-19T07:08:48Z</time>
      </trkpt>
      <trkpt lat="48.15495" lon="6.42933">
        <ele>431</ele>
        <time>2012-08-19T07:08:52Z</time>
      </trkpt>
      <trkpt lat="48.15478" lon="6.42961">
        <ele>429</ele>
        <time>2012-08-19T07:08:57Z</time>
      </trkpt>
      <trkpt lat="48.15464" lon="6.42987">
        <ele>427</ele>
        <time>2012-08-19T07:09:01Z</time>
      </trkpt>
      <trkpt lat="48.15446" lon="6.43005">
        <ele>424</ele>
        <time>2012-08-19T07:09:05Z</time>
      </trkpt>
      <trkpt lat="48.15429" lon="6.4301">
        <ele>421</ele>
        <time>2012-08-19T07:09:09Z</time>
      </trkpt>
      <trkpt lat="48.15406" lon="6.43009">
        <ele>423</ele>
        <time>2012-08-19T07:09:13Z</time>
      </trkpt>
      <trkpt lat="48.15386" lon="6.4301">
        <ele>423</ele>
        <time>2012-08-19T07:09:18Z</time>
      </trkpt>
      <trkpt lat="48.15374" lon="6.43012">
        <ele>424</ele>
        <time>2012-08-19T07:09:22Z</time>
      </trkpt>
      <trkpt lat="48.1536" lon="6.43015">
        <ele>424</ele>
        <time>2012-08-19T07:09:27Z</time>
      </trkpt>
      <trkpt lat="48.15344" lon="6.43014">
        <ele>424</ele>
        <time>2012-08-19T07:09:31Z</time>
      </trkpt>
      <trkpt lat="48.15331" lon="6.42997">
        <ele>425</ele>
        <time>2012-08-19T07:09:36Z</time>
      </trkpt>
      <trkpt lat="48.15316" lon="6.42972">
        <ele>426</ele>
        <time>2012-08-19T07:09:41Z</time>
      </trkpt>
      <trkpt lat="48.15305" lon="6.42944">
        <ele>426</ele>
        <time>2012-08-19T07:09:45Z</time>
      </trkpt>
      <trkpt lat="48.153" lon="6.4292">
        <ele>427</ele>
        <time>2012-08-19T07:09:49Z</time>
      </trkpt>
      <trkpt lat="48.15304" lon="6.42894">
        <ele>427</ele>
        <time>2012-08-19T07:09:53Z</time>
      </trkpt>
      <trkpt lat="48.15307" lon="6.4288">
        <ele>427</ele>
        <time>2012-08-19T07:09:57Z</time>
      </trkpt>
      <trkpt lat="48.1531" lon="6.42864">
        <ele>428</ele>
        <time>2012-08-19T07:10:01Z</time>
      </trkpt>
      <trkpt lat="48.15312" lon="6.42853">
        <ele>428</ele>
        <time>2012-08-19T07:10:05Z</time>
      </trkpt>
      <trkpt lat="48.15315" lon="6.42841">
        <ele>429</ele>
        <time>2012-08-19T07:10:09Z</time>
      </trkpt>
      <trkpt lat="48.15316" lon="6.42828">
        <ele>430</ele>
        <time>2012-08-19T07:10:14Z</time>
      </trkpt>
      <trkpt lat="48.15316" lon="6.42815">
        <ele>430</ele>
        <time>2012-08-19T07:10:19Z</time>
      </trkpt>
      <trkpt lat="48.15317" lon="6.42803">
        <ele>431</ele>
        <time>2012-08-19T07:10:24Z</time>
      </trkpt>
      <trkpt lat="48.15316" lon="6.42794">
        <ele>432</ele>
        <time>2012-08-19T07:10:28Z</time>
      </trkpt>
      <trkpt lat="48.15316" lon="6.42777">
        <ele>433</ele>
        <time>2012-08-19T07:10:33Z</time>
      </trkpt>
      <trkpt lat="48.15316" lon="6.42764">
        <ele>434</ele>
        <time>2012-08-19T07:10:37Z</time>
      </trkpt>
      <trkpt lat="48.15318" lon="6.42752">
        <ele>435</ele>
        <time>2012-08-19T07:10:43Z</time>
      </trkpt>
      <trkpt lat="48.15321" lon="6.42739">
        <ele>435</ele>
        <time>2012-08-19T07:10:47Z</time>
      </trkpt>
      <trkpt lat="48.15323" lon="6.42727">
        <ele>436</ele>
        <time>2012-08-19T07:10:51Z</time>
      </trkpt>
      <trkpt lat="48.15327" lon="6.4271">
        <ele>436</ele>
        <time>2012-08-19T07:10:55Z</time>
      </trkpt>
      <trkpt lat="48.15334" lon="6.42694">
        <ele>437</ele>
        <time>2012-08-19T07:10:59Z</time>
      </trkpt>
      <trkpt lat="48.15344" lon="6.42673">
        <ele>437</ele>
        <time>2012-08-19T07:11:04Z</time>
      </trkpt>
      <trkpt lat="48.15357" lon="6.42649">
        <ele>438</ele>
        <time>2012-08-19T07:11:09Z</time>
      </trkpt>
      <trkpt lat="48.15367" lon="6.42633">
        <ele>438</ele>
        <time>2012-08-19T07:11:14Z</time>
      </trkpt>
      <trkpt lat="48.15378" lon="6.42618">
        <ele>438</ele>
        <time>2012-08-19T07:11:19Z</time>
      </trkpt>
      <trkpt lat="48.15389" lon="6.42604">
        <ele>439</ele>
        <time>2012-08-19T07:11:23Z</time>
      </trkpt>
      <trkpt lat="48.154" lon="6.4258">
        <ele>440</ele>
        <time>2012-08-19T07:11:28Z</time>
      </trkpt>
      <trkpt lat="48.15411" lon="6.4255">
        <ele>442</ele>
        <time>2012-08-19T07:11:33Z</time>
      </trkpt>
      <trkpt lat="48.1542" lon="6.42529">
        <ele>443</ele>
        <time>2012-08-19T07:11:37Z</time>
      </trkpt>
      <trkpt lat="48.1543" lon="6.42503">
        <ele>442</ele>
        <time>2012-08-19T07:11:41Z</time>
      </trkpt>
      <trkpt lat="48.15441" lon="6.42477">
        <ele>442</ele>
        <time>2012-08-19T07:11:45Z</time>
      </trkpt>
      <trkpt lat="48.15446" lon="6.42455">
        <ele>442</ele>
        <time>2012-08-19T07:11:49Z</time>
      </trkpt>
      <trkpt lat="48.15452" lon="6.42425">
        <ele>442</ele>
        <time>2012-08-19T07:11:53Z</time>
      </trkpt>
      <trkpt lat="48.15462" lon="6.42408">
        <ele>442</ele>
        <time>2012-08-19T07:11:57Z</time>
      </trkpt>
      <trkpt lat="48.15472" lon="6.42401">
        <ele>442</ele>
        <time>2012-08-19T07:12:02Z</time>
      </trkpt>
      <trkpt lat="48.1548" lon="6.42401">
        <ele>443</ele>
        <time>2012-08-19T07:12:07Z</time>
      </trkpt>
      <trkpt lat="48.15488" lon="6.42398">
        <ele>443</ele>
        <time>2012-08-19T07:12:12Z</time>
      </trkpt>
      <trkpt lat="48.1548" lon="6.42402">
        <ele>444</ele>
        <time>2012-08-19T07:12:28Z</time>
      </trkpt>
      <trkpt lat="48.1547" lon="6.42406">
        <ele>444</ele>
        <time>2012-08-19T07:12:33Z</time>
      </trkpt>
      <trkpt lat="48.15461" lon="6.42408">
        <ele>444</ele>
        <time>2012-08-19T07:12:37Z</time>
      </trkpt>
      <trkpt lat="48.1545" lon="6.42413">
        <ele>445</ele>
        <time>2012-08-19T07:12:42Z</time>
      </trkpt>
      <trkpt lat="48.15445" lon="6.42405">
        <ele>445</ele>
        <time>2012-08-19T07:12:50Z</time>
      </trkpt>
      <trkpt lat="48.15437" lon="6.42404">
        <ele>446</ele>
        <time>2012-08-19T07:12:56Z</time>
      </trkpt>
      <trkpt lat="48.15427" lon="6.4241">
        <ele>446</ele>
        <time>2012-08-19T07:13:01Z</time>
      </trkpt>
      <trkpt lat="48.15433" lon="6.4242">
        <ele>446</ele>
        <time>2012-08-19T07:13:11Z</time>
      </trkpt>
      <trkpt lat="48.15424" lon="6.42422">
        <ele>445</ele>
        <time>2012-08-19T07:13:44Z</time>
      </trkpt>
      <trkpt lat="48.15412" lon="6.42422">
        <ele>446</ele>
        <time>2012-08-19T07:13:49Z</time>
      </trkpt>
      <trkpt lat="48.15402" lon="6.42423">
        <ele>446</ele>
        <time>2012-08-19T07:13:53Z</time>
      </trkpt>
      <trkpt lat="48.1539" lon="6.42426">
        <ele>447</ele>
        <time>2012-08-19T07:13:58Z</time>
      </trkpt>
      <trkpt lat="48.15379" lon="6.42426">
        <ele>447</ele>
        <time>2012-08-19T07:14:03Z</time>
      </trkpt>
      <trkpt lat="48.15369" lon="6.42429">
        <ele>447</ele>
        <time>2012-08-19T07:14:07Z</time>
      </trkpt>
      <trkpt lat="48.1536" lon="6.42434">
        <ele>448</ele>
        <time>2012-08-19T07:14:12Z</time>
      </trkpt>
      <trkpt lat="48.15352" lon="6.42437">
        <ele>448</ele>
        <time>2012-08-19T07:14:18Z</time>
      </trkpt>
      <trkpt lat="48.15344" lon="6.4244">
        <ele>449</ele>
        <time>2012-08-19T07:14:23Z</time>
      </trkpt>
      <trkpt lat="48.15335" lon="6.42443">
        <ele>449</ele>
        <time>2012-08-19T07:14:28Z</time>
      </trkpt>
      <trkpt lat="48.15328" lon="6.42447">
        <ele>449</ele>
        <time>2012-08-19T07:14:33Z</time>
      </trkpt>
      <trkpt lat="48.1532" lon="6.42445">
        <ele>449</ele>
        <time>2012-08-19T07:14:39Z</time>
      </trkpt>
      <trkpt lat="48.15325" lon="6.42434">
        <ele>450</ele>
        <time>2012-08-19T07:14:45Z</time>
      </trkpt>
      <trkpt lat="48.1533" lon="6.42425">
        <ele>451</ele>
        <time>2012-08-19T07:14:50Z</time>
      </trkpt>
      <trkpt lat="48.15335" lon="6.42417">
        <ele>452</ele>
        <time>2012-08-19T07:14:54Z</time>
      </trkpt>
      <trkpt lat="48.1534" lon="6.42407">
        <ele>452</ele>
        <time>2012-08-19T07:14:58Z</time>
      </trkpt>
      <trkpt lat="48.15347" lon="6.42394">
        <ele>453</ele>
        <time>2012-08-19T07:15:03Z</time>
      </trkpt>
      <trkpt lat="48.15352" lon="6.42377">
        <ele>454</ele>
        <time>2012-08-19T07:15:08Z</time>
      </trkpt>
      <trkpt lat="48.15347" lon="6.42364">
        <ele>454</ele>
        <time>2012-08-19T07:15:12Z</time>
      </trkpt>
      <trkpt lat="48.15344" lon="6.42354">
        <ele>456</ele>
        <time>2012-08-19T07:15:18Z</time>
      </trkpt>
      <trkpt lat="48.1535" lon="6.42345">
        <ele>457</ele>
        <time>2012-08-19T07:15:23Z</time>
      </trkpt>
      <trkpt lat="48.15357" lon="6.42328">
        <ele>457</ele>
        <time>2012-08-19T07:15:28Z</time>
      </trkpt>
      <trkpt lat="48.1536" lon="6.4231">
        <ele>458</ele>
        <time>2012-08-19T07:15:33Z</time>
      </trkpt>
      <trkpt lat="48.15361" lon="6.42293">
        <ele>458</ele>
        <time>2012-08-19T07:15:37Z</time>
      </trkpt>
      <trkpt lat="48.15363" lon="6.42275">
        <ele>459</ele>
        <time>2012-08-19T07:15:41Z</time>
      </trkpt>
      <trkpt lat="48.1537" lon="6.42239">
        <ele>461</ele>
        <time>2012-08-19T07:15:46Z</time>
      </trkpt>
      <trkpt lat="48.15371" lon="6.42221">
        <ele>461</ele>
        <time>2012-08-19T07:15:50Z</time>
      </trkpt>
      <trkpt lat="48.15372" lon="6.42201">
        <ele>462</ele>
        <time>2012-08-19T07:15:54Z</time>
      </trkpt>
      <trkpt lat="48.15381" lon="6.4218">
        <ele>462</ele>
        <time>2012-08-19T07:15:58Z</time>
      </trkpt>
      <trkpt lat="48.15396" lon="6.42159">
        <ele>463</ele>
        <time>2012-08-19T07:16:03Z</time>
      </trkpt>
      <trkpt lat="48.15417" lon="6.42143">
        <ele>463</ele>
        <time>2012-08-19T07:16:08Z</time>
      </trkpt>
      <trkpt lat="48.15426" lon="6.42138">
        <ele>464</ele>
        <time>2012-08-19T07:16:12Z</time>
      </trkpt>
      <trkpt lat="48.15416" lon="6.42115">
        <ele>465</ele>
        <time>2012-08-19T07:16:17Z</time>
      </trkpt>
      <trkpt lat="48.15402" lon="6.42095">
        <ele>465</ele>
        <time>2012-08-19T07:16:21Z</time>
      </trkpt>
      <trkpt lat="48.1539" lon="6.42073">
        <ele>466</ele>
        <time>2012-08-19T07:16:25Z</time>
      </trkpt>
      <trkpt lat="48.15382" lon="6.42051">
        <ele>466</ele>
        <time>2012-08-19T07:16:29Z</time>
      </trkpt>
      <trkpt lat="48.15373" lon="6.42024">
        <ele>467</ele>
        <time>2012-08-19T07:16:33Z</time>
      </trkpt>
      <trkpt lat="48.15364" lon="6.41985">
        <ele>468</ele>
        <time>2012-08-19T07:16:38Z</time>
      </trkpt>
      <trkpt lat="48.15359" lon="6.41952">
        <ele>468</ele>
        <time>2012-08-19T07:16:43Z</time>
      </trkpt>
      <trkpt lat="48.15352" lon="6.41937">
        <ele>468</ele>
        <time>2012-08-19T07:16:47Z</time>
      </trkpt>
      <trkpt lat="48.15336" lon="6.41923">
        <ele>467</ele>
        <time>2012-08-19T07:16:51Z</time>
      </trkpt>
      <trkpt lat="48.15324" lon="6.41903">
        <ele>467</ele>
        <time>2012-08-19T07:16:55Z</time>
      </trkpt>
      <trkpt lat="48.15312" lon="6.41877">
        <ele>467</ele>
        <time>2012-08-19T07:16:59Z</time>
      </trkpt>
      <trkpt lat="48.15302" lon="6.41854">
        <ele>466</ele>
        <time>2012-08-19T07:17:03Z</time>
      </trkpt>
      <trkpt lat="48.15293" lon="6.41847">
        <ele>466</ele>
        <time>2012-08-19T07:17:07Z</time>
      </trkpt>
      <trkpt lat="48.15286" lon="6.41846">
        <ele>466</ele>
        <time>2012-08-19T07:17:11Z</time>
      </trkpt>
      <trkpt lat="48.15278" lon="6.41835">
        <ele>465</ele>
        <time>2012-08-19T07:17:16Z</time>
      </trkpt>
      <trkpt lat="48.15273" lon="6.4182">
        <ele>465</ele>
        <time>2012-08-19T07:17:20Z</time>
      </trkpt>
      <trkpt lat="48.1527" lon="6.41806">
        <ele>465</ele>
        <time>2012-08-19T07:17:25Z</time>
      </trkpt>
      <trkpt lat="48.15265" lon="6.41794">
        <ele>465</ele>
        <time>2012-08-19T07:17:30Z</time>
      </trkpt>
      <trkpt lat="48.1526" lon="6.41785">
        <ele>465</ele>
        <time>2012-08-19T07:17:35Z</time>
      </trkpt>
      <trkpt lat="48.15253" lon="6.41772">
        <ele>465</ele>
        <time>2012-08-19T07:17:40Z</time>
      </trkpt>
      <trkpt lat="48.15247" lon="6.41763">
        <ele>465</ele>
        <time>2012-08-19T07:17:45Z</time>
      </trkpt>
      <trkpt lat="48.15241" lon="6.4175">
        <ele>466</ele>
        <time>2012-08-19T07:17:50Z</time>
      </trkpt>
      <trkpt lat="48.15234" lon="6.41739">
        <ele>467</ele>
        <time>2012-08-19T07:17:55Z</time>
      </trkpt>
      <trkpt lat="48.15227" lon="6.41726">
        <ele>468</ele>
        <time>2012-08-19T07:17:59Z</time>
      </trkpt>
      <trkpt lat="48.15219" lon="6.41705">
        <ele>469</ele>
        <time>2012-08-19T07:18:03Z</time>
      </trkpt>
      <trkpt lat="48.15213" lon="6.41682">
        <ele>469</ele>
        <time>2012-08-19T07:18:07Z</time>
      </trkpt>
      <trkpt lat="48.15204" lon="6.41661">
        <ele>467</ele>
        <time>2012-08-19T07:18:11Z</time>
      </trkpt>
      <trkpt lat="48.15187" lon="6.41636">
        <ele>466</ele>
        <time>2012-08-19T07:18:16Z</time>
      </trkpt>
      <trkpt lat="48.15174" lon="6.41614">
        <ele>466</ele>
        <time>2012-08-19T07:18:20Z</time>
      </trkpt>
      <trkpt lat="48.1516" lon="6.41607">
        <ele>466</ele>
        <time>2012-08-19T07:18:24Z</time>
      </trkpt>
      <trkpt lat="48.15145" lon="6.41618">
        <ele>466</ele>
        <time>2012-08-19T07:18:28Z</time>
      </trkpt>
      <trkpt lat="48.15123" lon="6.41636">
        <ele>465</ele>
        <time>2012-08-19T07:18:33Z</time>
      </trkpt>
      <trkpt lat="48.15089" lon="6.41657">
        <ele>466</ele>
        <time>2012-08-19T07:18:38Z</time>
      </trkpt>
      <trkpt lat="48.15068" lon="6.41672">
        <ele>465</ele>
        <time>2012-08-19T07:18:42Z</time>
      </trkpt>
      <trkpt lat="48.15055" lon="6.41682">
        <ele>465</ele>
        <time>2012-08-19T07:18:46Z</time>
      </trkpt>
      <trkpt lat="48.15037" lon="6.41694">
        <ele>465</ele>
        <time>2012-08-19T07:18:51Z</time>
      </trkpt>
      <trkpt lat="48.15022" lon="6.41706">
        <ele>465</ele>
        <time>2012-08-19T07:18:55Z</time>
      </trkpt>
      <trkpt lat="48.15003" lon="6.4172">
        <ele>466</ele>
        <time>2012-08-19T07:19:00Z</time>
      </trkpt>
      <trkpt lat="48.14987" lon="6.41732">
        <ele>466</ele>
        <time>2012-08-19T07:19:04Z</time>
      </trkpt>
      <trkpt lat="48.14971" lon="6.41744">
        <ele>467</ele>
        <time>2012-08-19T07:19:08Z</time>
      </trkpt>
      <trkpt lat="48.14948" lon="6.41758">
        <ele>468</ele>
        <time>2012-08-19T07:19:13Z</time>
      </trkpt>
      <trkpt lat="48.14933" lon="6.41767">
        <ele>469</ele>
        <time>2012-08-19T07:19:17Z</time>
      </trkpt>
      <trkpt lat="48.14916" lon="6.41777">
        <ele>469</ele>
        <time>2012-08-19T07:19:21Z</time>
      </trkpt>
      <trkpt lat="48.14896" lon="6.41786">
        <ele>471</ele>
        <time>2012-08-19T07:19:26Z</time>
      </trkpt>
      <trkpt lat="48.14901" lon="6.41805">
        <ele>472</ele>
        <time>2012-08-19T07:19:30Z</time>
      </trkpt>
      <trkpt lat="48.1491" lon="6.41825">
        <ele>472</ele>
        <time>2012-08-19T07:19:34Z</time>
      </trkpt>
      <trkpt lat="48.14927" lon="6.4187">
        <ele>466</ele>
        <time>2012-08-19T07:19:39Z</time>
      </trkpt>
      <trkpt lat="48.14944" lon="6.41903">
        <ele>465</ele>
        <time>2012-08-19T07:19:43Z</time>
      </trkpt>
      <trkpt lat="48.14957" lon="6.41925">
        <ele>465</ele>
        <time>2012-08-19T07:19:47Z</time>
      </trkpt>
      <trkpt lat="48.14968" lon="6.41945">
        <ele>466</ele>
        <time>2012-08-19T07:19:52Z</time>
      </trkpt>
      <trkpt lat="48.14976" lon="6.41963">
        <ele>466</ele>
        <time>2012-08-19T07:19:56Z</time>
      </trkpt>
      <trkpt lat="48.14986" lon="6.41984">
        <ele>467</ele>
        <time>2012-08-19T07:20:01Z</time>
      </trkpt>
      <trkpt lat="48.14997" lon="6.4201">
        <ele>469</ele>
        <time>2012-08-19T07:20:05Z</time>
      </trkpt>
      <trkpt lat="48.15011" lon="6.42041">
        <ele>472</ele>
        <time>2012-08-19T07:20:09Z</time>
      </trkpt>
      <trkpt lat="48.15023" lon="6.42067">
        <ele>474</ele>
        <time>2012-08-19T07:20:13Z</time>
      </trkpt>
      <trkpt lat="48.15017" lon="6.42101">
        <ele>473</ele>
        <time>2012-08-19T07:20:17Z</time>
      </trkpt>
      <trkpt lat="48.15006" lon="6.42137">
        <ele>472</ele>
        <time>2012-08-19T07:20:21Z</time>
      </trkpt>
      <trkpt lat="48.14989" lon="6.42182">
        <ele>471</ele>
        <time>2012-08-19T07:20:26Z</time>
      </trkpt>
      <trkpt lat="48.14977" lon="6.4222">
        <ele>471</ele>
        <time>2012-08-19T07:20:30Z</time>
      </trkpt>
      <trkpt lat="48.14968" lon="6.42269">
        <ele>471</ele>
        <time>2012-08-19T07:20:35Z</time>
      </trkpt>
      <trkpt lat="48.14974" lon="6.42308">
        <ele>472</ele>
        <time>2012-08-19T07:20:39Z</time>
      </trkpt>
      <trkpt lat="48.14983" lon="6.42343">
        <ele>475</ele>
        <time>2012-08-19T07:20:43Z</time>
      </trkpt>
      <trkpt lat="48.14976" lon="6.42369">
        <ele>475</ele>
        <time>2012-08-19T07:20:48Z</time>
      </trkpt>
      <trkpt lat="48.14961" lon="6.42397">
        <ele>475</ele>
        <time>2012-08-19T07:20:53Z</time>
      </trkpt>
      <trkpt lat="48.14953" lon="6.42425">
        <ele>475</ele>
        <time>2012-08-19T07:20:57Z</time>
      </trkpt>
      <trkpt lat="48.14953" lon="6.42453">
        <ele>475</ele>
        <time>2012-08-19T07:21:01Z</time>
      </trkpt>
      <trkpt lat="48.14953" lon="6.42484">
        <ele>475</ele>
        <time>2012-08-19T07:21:05Z</time>
      </trkpt>
      <trkpt lat="48.14956" lon="6.42513">
        <ele>474</ele>
        <time>2012-08-19T07:21:09Z</time>
      </trkpt>
      <trkpt lat="48.14955" lon="6.42542">
        <ele>474</ele>
        <time>2012-08-19T07:21:13Z</time>
      </trkpt>
      <trkpt lat="48.14951" lon="6.42573">
        <ele>472</ele>
        <time>2012-08-19T07:21:17Z</time>
      </trkpt>
      <trkpt lat="48.14946" lon="6.42608">
        <ele>469</ele>
        <time>2012-08-19T07:21:21Z</time>
      </trkpt>
      <trkpt lat="48.14941" lon="6.42641">
        <ele>468</ele>
        <time>2012-08-19T07:21:25Z</time>
      </trkpt>
      <trkpt lat="48.14934" lon="6.42679">
        <ele>467</ele>
        <time>2012-08-19T07:21:30Z</time>
      </trkpt>
      <trkpt lat="48.14937" lon="6.42711">
        <ele>467</ele>
        <time>2012-08-19T07:21:34Z</time>
      </trkpt>
      <trkpt lat="48.14947" lon="6.42742">
        <ele>466</ele>
        <time>2012-08-19T07:21:38Z</time>
      </trkpt>
      <trkpt lat="48.14956" lon="6.42774">
        <ele>467</ele>
        <time>2012-08-19T07:21:42Z</time>
      </trkpt>
      <trkpt lat="48.14958" lon="6.42817">
        <ele>466</ele>
        <time>2012-08-19T07:21:47Z</time>
      </trkpt>
      <trkpt lat="48.14958" lon="6.42859">
        <ele>466</ele>
        <time>2012-08-19T07:21:52Z</time>
      </trkpt>
      <trkpt lat="48.14949" lon="6.42887">
        <ele>465</ele>
        <time>2012-08-19T07:21:56Z</time>
      </trkpt>
      <trkpt lat="48.14939" lon="6.42919">
        <ele>464</ele>
        <time>2012-08-19T07:22:00Z</time>
      </trkpt>
      <trkpt lat="48.14932" lon="6.42963">
        <ele>465</ele>
        <time>2012-08-19T07:22:05Z</time>
      </trkpt>
      <trkpt lat="48.14924" lon="6.42995">
        <ele>465</ele>
        <time>2012-08-19T07:22:09Z</time>
      </trkpt>
      <trkpt lat="48.14917" lon="6.43026">
        <ele>464</ele>
        <time>2012-08-19T07:22:13Z</time>
      </trkpt>
      <trkpt lat="48.14911" lon="6.43059">
        <ele>465</ele>
        <time>2012-08-19T07:22:17Z</time>
      </trkpt>
      <trkpt lat="48.14908" lon="6.43099">
        <ele>468</ele>
        <time>2012-08-19T07:22:22Z</time>
      </trkpt>
      <trkpt lat="48.14911" lon="6.43133">
        <ele>470</ele>
        <time>2012-08-19T07:22:26Z</time>
      </trkpt>
      <trkpt lat="48.14907" lon="6.4316">
        <ele>473</ele>
        <time>2012-08-19T07:22:30Z</time>
      </trkpt>
      <trkpt lat="48.149" lon="6.43209">
        <ele>470</ele>
        <time>2012-08-19T07:22:35Z</time>
      </trkpt>
      <trkpt lat="48.14892" lon="6.43253">
        <ele>466</ele>
        <time>2012-08-19T07:22:40Z</time>
      </trkpt>
      <trkpt lat="48.14884" lon="6.43298">
        <ele>465</ele>
        <time>2012-08-19T07:22:44Z</time>
      </trkpt>
      <trkpt lat="48.1488" lon="6.43356">
        <ele>460</ele>
        <time>2012-08-19T07:22:49Z</time>
      </trkpt>
      <trkpt lat="48.14898" lon="6.43408">
        <ele>457</ele>
        <time>2012-08-19T07:22:54Z</time>
      </trkpt>
      <trkpt lat="48.14928" lon="6.43446">
        <ele>451</ele>
        <time>2012-08-19T07:22:59Z</time>
      </trkpt>
      <trkpt lat="48.14957" lon="6.43484">
        <ele>449</ele>
        <time>2012-08-19T07:23:03Z</time>
      </trkpt>
      <trkpt lat="48.14982" lon="6.43533">
        <ele>448</ele>
        <time>2012-08-19T07:23:08Z</time>
      </trkpt>
      <trkpt lat="48.14999" lon="6.43573">
        <ele>449</ele>
        <time>2012-08-19T07:23:13Z</time>
      </trkpt>
      <trkpt lat="48.15" lon="6.43598">
        <ele>449</ele>
        <time>2012-08-19T07:23:17Z</time>
      </trkpt>
      <trkpt lat="48.15002" lon="6.43619">
        <ele>450</ele>
        <time>2012-08-19T07:23:21Z</time>
      </trkpt>
      <trkpt lat="48.15006" lon="6.43639">
        <ele>450</ele>
        <time>2012-08-19T07:23:26Z</time>
      </trkpt>
      <trkpt lat="48.15007" lon="6.43654">
        <ele>450</ele>
        <time>2012-08-19T07:23:30Z</time>
      </trkpt>
      <trkpt lat="48.1501" lon="6.43674">
        <ele>450</ele>
        <time>2012-08-19T07:23:35Z</time>
      </trkpt>
      <trkpt lat="48.15011" lon="6.43684">
        <ele>450</ele>
        <time>2012-08-19T07:23:39Z</time>
      </trkpt>
      <trkpt lat="48.15015" lon="6.43704">
        <ele>450</ele>
        <time>2012-08-19T07:23:43Z</time>
      </trkpt>
      <trkpt lat="48.15016" lon="6.43726">
        <ele>450</ele>
        <time>2012-08-19T07:23:48Z</time>
      </trkpt>
      <trkpt lat="48.15015" lon="6.43744">
        <ele>450</ele>
        <time>2012-08-19T07:23:52Z</time>
      </trkpt>
      <trkpt lat="48.15019" lon="6.43755">
        <ele>450</ele>
        <time>2012-08-19T07:23:57Z</time>
      </trkpt>
      <trkpt lat="48.1502" lon="6.43767">
        <ele>449</ele>
        <time>2012-08-19T07:24:03Z</time>
      </trkpt>
      <trkpt lat="48.15018" lon="6.43779">
        <ele>447</ele>
        <time>2012-08-19T07:24:11Z</time>
      </trkpt>
      <trkpt lat="48.15025" lon="6.43785">
        <ele>445</ele>
        <time>2012-08-19T07:24:20Z</time>
      </trkpt>
      <trkpt lat="48.15034" lon="6.43786">
        <ele>444</ele>
        <time>2012-08-19T07:24:24Z</time>
      </trkpt>
      <trkpt lat="48.15042" lon="6.43783">
        <ele>443</ele>
        <time>2012-08-19T07:24:28Z</time>
      </trkpt>
      <trkpt lat="48.1505" lon="6.43771">
        <ele>442</ele>
        <time>2012-08-19T07:24:32Z</time>
      </trkpt>
      <trkpt lat="48.15061" lon="6.43763">
        <ele>440</ele>
        <time>2012-08-19T07:24:37Z</time>
      </trkpt>
      <trkpt lat="48.15066" lon="6.43755">
        <ele>438</ele>
        <time>2012-08-19T07:24:41Z</time>
      </trkpt>
      <trkpt lat="48.15072" lon="6.43744">
        <ele>437</ele>
        <time>2012-08-19T07:24:46Z</time>
      </trkpt>
      <trkpt lat="48.15078" lon="6.43734">
        <ele>436</ele>
        <time>2012-08-19T07:24:50Z</time>
      </trkpt>
      <trkpt lat="48.15082" lon="6.43717">
        <ele>435</ele>
        <time>2012-08-19T07:24:54Z</time>
      </trkpt>
      <trkpt lat="48.15092" lon="6.4369">
        <ele>433</ele>
        <time>2012-08-19T07:24:58Z</time>
      </trkpt>
      <trkpt lat="48.15104" lon="6.43677">
        <ele>432</ele>
        <time>2012-08-19T07:25:02Z</time>
      </trkpt>
      <trkpt lat="48.15111" lon="6.43667">
        <ele>430</ele>
        <time>2012-08-19T07:25:06Z</time>
      </trkpt>
      <trkpt lat="48.15122" lon="6.43652">
        <ele>429</ele>
        <time>2012-08-19T07:25:11Z</time>
      </trkpt>
      <trkpt lat="48.1513" lon="6.43641">
        <ele>428</ele>
        <time>2012-08-19T07:25:16Z</time>
      </trkpt>
      <trkpt lat="48.15138" lon="6.43629">
        <ele>427</ele>
        <time>2012-08-19T07:25:21Z</time>
      </trkpt>
      <trkpt lat="48.15145" lon="6.4362">
        <ele>425</ele>
        <time>2012-08-19T07:25:25Z</time>
      </trkpt>
      <trkpt lat="48.15161" lon="6.43637">
        <ele>423</ele>
        <time>2012-08-19T07:25:30Z</time>
      </trkpt>
      <trkpt lat="48.1517" lon="6.4363">
        <ele>422</ele>
        <time>2012-08-19T07:25:34Z</time>
      </trkpt>
      <trkpt lat="48.1518" lon="6.43612">
        <ele>421</ele>
        <time>2012-08-19T07:25:38Z</time>
      </trkpt>
      <trkpt lat="48.15184" lon="6.43583">
        <ele>417</ele>
        <time>2012-08-19T07:25:42Z</time>
      </trkpt>
      <trkpt lat="48.15182" lon="6.43558">
        <ele>416</ele>
        <time>2012-08-19T07:25:46Z</time>
      </trkpt>
      <trkpt lat="48.15175" lon="6.43538">
        <ele>416</ele>
        <time>2012-08-19T07:25:51Z</time>
      </trkpt>
      <trkpt lat="48.15167" lon="6.43517">
        <ele>416</ele>
        <time>2012-08-19T07:25:55Z</time>
      </trkpt>
      <trkpt lat="48.15156" lon="6.43499">
        <ele>416</ele>
        <time>2012-08-19T07:25:59Z</time>
      </trkpt>
      <trkpt lat="48.15143" lon="6.43481">
        <ele>416</ele>
        <time>2012-08-19T07:26:03Z</time>
      </trkpt>
      <trkpt lat="48.15129" lon="6.43468">
        <ele>415</ele>
        <time>2012-08-19T07:26:07Z</time>
      </trkpt>
      <trkpt lat="48.15119" lon="6.43453">
        <ele>415</ele>
        <time>2012-08-19T07:26:11Z</time>
      </trkpt>
      <trkpt lat="48.15101" lon="6.4343">
        <ele>414</ele>
        <time>2012-08-19T07:26:16Z</time>
      </trkpt>
      <trkpt lat="48.15089" lon="6.43419">
        <ele>414</ele>
        <time>2012-08-19T07:26:20Z</time>
      </trkpt>
      <trkpt lat="48.15081" lon="6.434">
        <ele>414</ele>
        <time>2012-08-19T07:26:24Z</time>
      </trkpt>
      <trkpt lat="48.15098" lon="6.43371">
        <ele>412</ele>
        <time>2012-08-19T07:26:28Z</time>
      </trkpt>
      <trkpt lat="48.15123" lon="6.43374">
        <ele>406</ele>
        <time>2012-08-19T07:26:32Z</time>
      </trkpt>
      <trkpt lat="48.15144" lon="6.43375">
        <ele>403</ele>
        <time>2012-08-19T07:26:36Z</time>
      </trkpt>
      <trkpt lat="48.15168" lon="6.43371">
        <ele>402</ele>
        <time>2012-08-19T07:26:41Z</time>
      </trkpt>
      <trkpt lat="48.15188" lon="6.43369">
        <ele>404</ele>
        <time>2012-08-19T07:26:45Z</time>
      </trkpt>
      <trkpt lat="48.15213" lon="6.43369">
        <ele>405</ele>
        <time>2012-08-19T07:26:49Z</time>
      </trkpt>
      <trkpt lat="48.15233" lon="6.4337">
        <ele>405</ele>
        <time>2012-08-19T07:26:53Z</time>
      </trkpt>
      <trkpt lat="48.15247" lon="6.43368">
        <ele>404</ele>
        <time>2012-08-19T07:26:57Z</time>
      </trkpt>
      <trkpt lat="48.15254" lon="6.43349">
        <ele>404</ele>
        <time>2012-08-19T07:27:01Z</time>
      </trkpt>
      <trkpt lat="48.15255" lon="6.4332">
        <ele>403</ele>
        <time>2012-08-19T07:27:05Z</time>
      </trkpt>
      <trkpt lat="48.15265" lon="6.43307">
        <ele>402</ele>
        <time>2012-08-19T07:27:10Z</time>
      </trkpt>
      <trkpt lat="48.15282" lon="6.43317">
        <ele>401</ele>
        <time>2012-08-19T07:27:14Z</time>
      </trkpt>
      <trkpt lat="48.15299" lon="6.43339">
        <ele>398</ele>
        <time>2012-08-19T07:27:18Z</time>
      </trkpt>
      <trkpt lat="48.15297" lon="6.43362">
        <ele>390</ele>
        <time>2012-08-19T07:27:22Z</time>
      </trkpt>
      <trkpt lat="48.1529" lon="6.43403">
        <ele>387</ele>
        <time>2012-08-19T07:27:26Z</time>
      </trkpt>
      <trkpt lat="48.15278" lon="6.43461">
        <ele>385</ele>
        <time>2012-08-19T07:27:31Z</time>
      </trkpt>
      <trkpt lat="48.15272" lon="6.43505">
        <ele>386</ele>
        <time>2012-08-19T07:27:35Z</time>
      </trkpt>
      <trkpt lat="48.15267" lon="6.43548">
        <ele>386</ele>
        <time>2012-08-19T07:27:39Z</time>
      </trkpt>
      <trkpt lat="48.15259" lon="6.43592">
        <ele>387</ele>
        <time>2012-08-19T07:27:43Z</time>
      </trkpt>
      <trkpt lat="48.15246" lon="6.43633">
        <ele>388</ele>
        <time>2012-08-19T07:27:47Z</time>
      </trkpt>
      <trkpt lat="48.15234" lon="6.43667">
        <ele>388</ele>
        <time>2012-08-19T07:27:51Z</time>
      </trkpt>
      <trkpt lat="48.15222" lon="6.43697">
        <ele>388</ele>
        <time>2012-08-19T07:27:55Z</time>
      </trkpt>
      <trkpt lat="48.15213" lon="6.43736">
        <ele>389</ele>
        <time>2012-08-19T07:27:59Z</time>
      </trkpt>
      <trkpt lat="48.15215" lon="6.43776">
        <ele>390</ele>
        <time>2012-08-19T07:28:03Z</time>
      </trkpt>
      <trkpt lat="48.15212" lon="6.4382">
        <ele>391</ele>
        <time>2012-08-19T07:28:08Z</time>
      </trkpt>
      <trkpt lat="48.15197" lon="6.43863">
        <ele>392</ele>
        <time>2012-08-19T07:28:12Z</time>
      </trkpt>
      <trkpt lat="48.15182" lon="6.43897">
        <ele>391</ele>
        <time>2012-08-19T07:28:16Z</time>
      </trkpt>
      <trkpt lat="48.15156" lon="6.43931">
        <ele>389</ele>
        <time>2012-08-19T07:28:21Z</time>
      </trkpt>
      <trkpt lat="48.15138" lon="6.43943">
        <ele>389</ele>
        <time>2012-08-19T07:28:25Z</time>
      </trkpt>
      <trkpt lat="48.15133" lon="6.43979">
        <ele>389</ele>
        <time>2012-08-19T07:28:29Z</time>
      </trkpt>
      <trkpt lat="48.15124" lon="6.44019">
        <ele>391</ele>
        <time>2012-08-19T07:28:34Z</time>
      </trkpt>
      <trkpt lat="48.151" lon="6.44019">
        <ele>391</ele>
        <time>2012-08-19T07:28:38Z</time>
      </trkpt>
      <trkpt lat="48.15069" lon="6.44015">
        <ele>390</ele>
        <time>2012-08-19T07:28:43Z</time>
      </trkpt>
      <trkpt lat="48.15056" lon="6.44041">
        <ele>391</ele>
        <time>2012-08-19T07:28:47Z</time>
      </trkpt>
      <trkpt lat="48.15056" lon="6.44083">
        <ele>391</ele>
        <time>2012-08-19T07:28:51Z</time>
      </trkpt>
      <trkpt lat="48.15064" lon="6.4413">
        <ele>391</ele>
        <time>2012-08-19T07:28:56Z</time>
      </trkpt>
      <trkpt lat="48.1508" lon="6.44169">
        <ele>393</ele>
        <time>2012-08-19T07:29:01Z</time>
      </trkpt>
      <trkpt lat="48.15096" lon="6.44209">
        <ele>392</ele>
        <time>2012-08-19T07:29:06Z</time>
      </trkpt>
      <trkpt lat="48.15108" lon="6.44252">
        <ele>395</ele>
        <time>2012-08-19T07:29:11Z</time>
      </trkpt>
      <trkpt lat="48.15105" lon="6.44287">
        <ele>396</ele>
        <time>2012-08-19T07:29:15Z</time>
      </trkpt>
      <trkpt lat="48.15095" lon="6.4432">
        <ele>394</ele>
        <time>2012-08-19T07:29:20Z</time>
      </trkpt>
      <trkpt lat="48.15087" lon="6.44344">
        <ele>395</ele>
        <time>2012-08-19T07:29:24Z</time>
      </trkpt>
      <trkpt lat="48.15075" lon="6.44364">
        <ele>395</ele>
        <time>2012-08-19T07:29:28Z</time>
      </trkpt>
      <trkpt lat="48.15056" lon="6.44379">
        <ele>395</ele>
        <time>2012-08-19T07:29:33Z</time>
      </trkpt>
      <trkpt lat="48.1504" lon="6.44389">
        <ele>394</ele>
        <time>2012-08-19T07:29:38Z</time>
      </trkpt>
      <trkpt lat="48.1503" lon="6.44374">
        <ele>394</ele>
        <time>2012-08-19T07:29:42Z</time>
      </trkpt>
      <trkpt lat="48.15029" lon="6.44351">
        <ele>394</ele>
        <time>2012-08-19T07:29:46Z</time>
      </trkpt>
      <trkpt lat="48.15029" lon="6.44323">
        <ele>395</ele>
        <time>2012-08-19T07:29:51Z</time>
      </trkpt>
      <trkpt lat="48.15028" lon="6.44302">
        <ele>396</ele>
        <time>2012-08-19T07:29:56Z</time>
      </trkpt>
      <trkpt lat="48.15028" lon="6.44287">
        <ele>396</ele>
        <time>2012-08-19T07:30:00Z</time>
      </trkpt>
      <trkpt lat="48.15025" lon="6.44269">
        <ele>397</ele>
        <time>2012-08-19T07:30:05Z</time>
      </trkpt>
      <trkpt lat="48.15023" lon="6.44251">
        <ele>398</ele>
        <time>2012-08-19T07:30:09Z</time>
      </trkpt>
      <trkpt lat="48.15016" lon="6.44229">
        <ele>399</ele>
        <time>2012-08-19T07:30:14Z</time>
      </trkpt>
      <trkpt lat="48.15011" lon="6.44218">
        <ele>400</ele>
        <time>2012-08-19T07:33:17Z</time>
      </trkpt>
      <trkpt lat="48.15007" lon="6.44207">
        <ele>399</ele>
        <time>2012-08-19T07:34:10Z</time>
      </trkpt>
      <trkpt lat="48.1501" lon="6.44219">
        <ele>397</ele>
        <time>2012-08-19T07:35:49Z</time>
      </trkpt>
      <trkpt lat="48.15003" lon="6.44227">
        <ele>397</ele>
        <time>2012-08-19T07:35:58Z</time>
      </trkpt>
      <trkpt lat="48.15006" lon="6.44215">
        <ele>400</ele>
        <time>2012-08-19T07:37:05Z</time>
      </trkpt>
      <trkpt lat="48.15005" lon="6.44203">
        <ele>400</ele>
        <time>2012-08-19T07:37:54Z</time>
      </trkpt>
      <trkpt lat="48.15003" lon="6.44191">
        <ele>401</ele>
        <time>2012-08-19T07:38:15Z</time>
      </trkpt>
      <trkpt lat="48.15006" lon="6.44203">
        <ele>401</ele>
        <time>2012-08-19T07:38:46Z</time>
      </trkpt>
      <trkpt lat="48.15003" lon="6.44213">
        <ele>401</ele>
        <time>2012-08-19T07:38:53Z</time>
      </trkpt>
      <trkpt lat="48.14995" lon="6.44217">
        <ele>400</ele>
        <time>2012-08-19T07:38:59Z</time>
      </trkpt>
      <trkpt lat="48.15001" lon="6.44208">
        <ele>400</ele>
        <time>2012-08-19T07:39:20Z</time>
      </trkpt>
      <trkpt lat="48.14996" lon="6.44194">
        <ele>400</ele>
        <time>2012-08-19T07:39:25Z</time>
      </trkpt>
      <trkpt lat="48.1499" lon="6.44178">
        <ele>400</ele>
        <time>2012-08-19T07:39:30Z</time>
      </trkpt>
      <trkpt lat="48.14986" lon="6.44163">
        <ele>400</ele>
        <time>2012-08-19T07:39:34Z</time>
      </trkpt>
      <trkpt lat="48.14979" lon="6.44143">
        <ele>400</ele>
        <time>2012-08-19T07:39:38Z</time>
      </trkpt>
      <trkpt lat="48.14969" lon="6.44122">
        <ele>401</ele>
        <time>2012-08-19T07:39:42Z</time>
      </trkpt>
      <trkpt lat="48.14962" lon="6.44101">
        <ele>401</ele>
        <time>2012-08-19T07:39:46Z</time>
      </trkpt>
      <trkpt lat="48.14955" lon="6.44077">
        <ele>402</ele>
        <time>2012-08-19T07:39:50Z</time>
      </trkpt>
      <trkpt lat="48.14947" lon="6.4406">
        <ele>402</ele>
        <time>2012-08-19T07:39:54Z</time>
      </trkpt>
      <trkpt lat="48.1494" lon="6.44045">
        <ele>402</ele>
        <time>2012-08-19T07:39:58Z</time>
      </trkpt>
      <trkpt lat="48.14933" lon="6.44023">
        <ele>403</ele>
        <time>2012-08-19T07:40:03Z</time>
      </trkpt>
      <trkpt lat="48.14927" lon="6.44004">
        <ele>403</ele>
        <time>2012-08-19T07:40:07Z</time>
      </trkpt>
      <trkpt lat="48.14922" lon="6.43986">
        <ele>404</ele>
        <time>2012-08-19T07:40:11Z</time>
      </trkpt>
      <trkpt lat="48.14921" lon="6.43965">
        <ele>405</ele>
        <time>2012-08-19T07:40:15Z</time>
      </trkpt>
      <trkpt lat="48.1492" lon="6.43944">
        <ele>406</ele>
        <time>2012-08-19T07:40:20Z</time>
      </trkpt>
      <trkpt lat="48.1492" lon="6.43926">
        <ele>407</ele>
        <time>2012-08-19T07:40:25Z</time>
      </trkpt>
      <trkpt lat="48.14919" lon="6.43913">
        <ele>407</ele>
        <time>2012-08-19T07:40:29Z</time>
      </trkpt>
      <trkpt lat="48.14916" lon="6.43894">
        <ele>408</ele>
        <time>2012-08-19T07:40:34Z</time>
      </trkpt>
      <trkpt lat="48.14915" lon="6.4388">
        <ele>409</ele>
        <time>2012-08-19T07:40:39Z</time>
      </trkpt>
      <trkpt lat="48.14914" lon="6.43867">
        <ele>410</ele>
        <time>2012-08-19T07:40:44Z</time>
      </trkpt>
      <trkpt lat="48.14916" lon="6.43852">
        <ele>410</ele>
        <time>2012-08-19T07:40:49Z</time>
      </trkpt>
      <trkpt lat="48.14916" lon="6.43841">
        <ele>410</ele>
        <time>2012-08-19T07:40:53Z</time>
      </trkpt>
      <trkpt lat="48.14918" lon="6.43829">
        <ele>411</ele>
        <time>2012-08-19T07:40:59Z</time>
      </trkpt>
      <trkpt lat="48.14918" lon="6.43817">
        <ele>411</ele>
        <time>2012-08-19T07:41:04Z</time>
      </trkpt>
      <trkpt lat="48.14918" lon="6.43805">
        <ele>411</ele>
        <time>2012-08-19T07:41:09Z</time>
      </trkpt>
      <trkpt lat="48.14917" lon="6.43792">
        <ele>411</ele>
        <time>2012-08-19T07:41:14Z</time>
      </trkpt>
      <trkpt lat="48.14918" lon="6.4378">
        <ele>411</ele>
        <time>2012-08-19T07:41:19Z</time>
      </trkpt>
      <trkpt lat="48.1492" lon="6.43769">
        <ele>411</ele>
        <time>2012-08-19T07:41:25Z</time>
      </trkpt>
      <trkpt lat="48.1492" lon="6.43756">
        <ele>412</ele>
        <time>2012-08-19T07:41:30Z</time>
      </trkpt>
      <trkpt lat="48.14921" lon="6.43746">
        <ele>412</ele>
        <time>2012-08-19T07:41:35Z</time>
      </trkpt>
      <trkpt lat="48.14921" lon="6.43735">
        <ele>413</ele>
        <time>2012-08-19T07:41:39Z</time>
      </trkpt>
      <trkpt lat="48.1492" lon="6.43721">
        <ele>414</ele>
        <time>2012-08-19T07:41:43Z</time>
      </trkpt>
      <trkpt lat="48.1492" lon="6.43711">
        <ele>414</ele>
        <time>2012-08-19T07:41:47Z</time>
      </trkpt>
      <trkpt lat="48.1492" lon="6.437">
        <ele>416</ele>
        <time>2012-08-19T07:41:51Z</time>
      </trkpt>
      <trkpt lat="48.14921" lon="6.43688">
        <ele>417</ele>
        <time>2012-08-19T07:41:55Z</time>
      </trkpt>
      <trkpt lat="48.14921" lon="6.43672">
        <ele>418</ele>
        <time>2012-08-19T07:42:00Z</time>
      </trkpt>
      <trkpt lat="48.14924" lon="6.43654">
        <ele>419</ele>
        <time>2012-08-19T07:42:05Z</time>
      </trkpt>
      <trkpt lat="48.14924" lon="6.43639">
        <ele>420</ele>
        <time>2012-08-19T07:42:09Z</time>
      </trkpt>
      <trkpt lat="48.14925" lon="6.43621">
        <ele>422</ele>
        <time>2012-08-19T07:42:14Z</time>
      </trkpt>
      <trkpt lat="48.14924" lon="6.43608">
        <ele>423</ele>
        <time>2012-08-19T07:42:18Z</time>
      </trkpt>
      <trkpt lat="48.14925" lon="6.43592">
        <ele>424</ele>
        <time>2012-08-19T07:42:22Z</time>
      </trkpt>
      <trkpt lat="48.14925" lon="6.43574">
        <ele>425</ele>
        <time>2012-08-19T07:42:27Z</time>
      </trkpt>
      <trkpt lat="48.14923" lon="6.43562">
        <ele>427</ele>
        <time>2012-08-19T07:42:32Z</time>
      </trkpt>
      <trkpt lat="48.1492" lon="6.43551">
        <ele>428</ele>
        <time>2012-08-19T07:42:37Z</time>
      </trkpt>
      <trkpt lat="48.14915" lon="6.43536">
        <ele>430</ele>
        <time>2012-08-19T07:42:41Z</time>
      </trkpt>
      <trkpt lat="48.1491" lon="6.43523">
        <ele>431</ele>
        <time>2012-08-19T07:42:45Z</time>
      </trkpt>
      <trkpt lat="48.149" lon="6.43509">
        <ele>432</ele>
        <time>2012-08-19T07:42:50Z</time>
      </trkpt>
      <trkpt lat="48.14886" lon="6.43504">
        <ele>433</ele>
        <time>2012-08-19T07:42:54Z</time>
      </trkpt>
      <trkpt lat="48.14877" lon="6.43501">
        <ele>433</ele>
        <time>2012-08-19T07:42:58Z</time>
      </trkpt>
      <trkpt lat="48.14867" lon="6.43496">
        <ele>433</ele>
        <time>2012-08-19T07:43:02Z</time>
      </trkpt>
      <trkpt lat="48.14857" lon="6.43488">
        <ele>434</ele>
        <time>2012-08-19T07:43:06Z</time>
      </trkpt>
      <trkpt lat="48.14843" lon="6.43474">
        <ele>434</ele>
        <time>2012-08-19T07:43:10Z</time>
      </trkpt>
      <trkpt lat="48.14829" lon="6.43459">
        <ele>434</ele>
        <time>2012-08-19T07:43:14Z</time>
      </trkpt>
      <trkpt lat="48.14818" lon="6.4344">
        <ele>434</ele>
        <time>2012-08-19T07:43:18Z</time>
      </trkpt>
      <trkpt lat="48.1481" lon="6.43419">
        <ele>435</ele>
        <time>2012-08-19T07:43:22Z</time>
      </trkpt>
      <trkpt lat="48.14804" lon="6.43391">
        <ele>437</ele>
        <time>2012-08-19T07:43:26Z</time>
      </trkpt>
      <trkpt lat="48.14802" lon="6.43355">
        <ele>437</ele>
        <time>2012-08-19T07:43:31Z</time>
      </trkpt>
      <trkpt lat="48.14802" lon="6.43329">
        <ele>437</ele>
        <time>2012-08-19T07:43:35Z</time>
      </trkpt>
      <trkpt lat="48.14802" lon="6.43304">
        <ele>437</ele>
        <time>2012-08-19T07:43:40Z</time>
      </trkpt>
      <trkpt lat="48.14808" lon="6.4328">
        <ele>437</ele>
        <time>2012-08-19T07:43:45Z</time>
      </trkpt>
      <trkpt lat="48.14812" lon="6.43268">
        <ele>437</ele>
        <time>2012-08-19T07:43:51Z</time>
      </trkpt>
      <trkpt lat="48.14816" lon="6.4326">
        <ele>436</ele>
        <time>2012-08-19T07:43:55Z</time>
      </trkpt>
      <trkpt lat="48.14821" lon="6.43252">
        <ele>436</ele>
        <time>2012-08-19T07:43:59Z</time>
      </trkpt>
      <trkpt lat="48.14823" lon="6.4324">
        <ele>436</ele>
        <time>2012-08-19T07:44:03Z</time>
      </trkpt>
      <trkpt lat="48.14823" lon="6.43225">
        <ele>437</ele>
        <time>2012-08-19T07:44:08Z</time>
      </trkpt>
      <trkpt lat="48.14823" lon="6.43211">
        <ele>437</ele>
        <time>2012-08-19T07:44:12Z</time>
      </trkpt>
      <trkpt lat="48.14822" lon="6.43199">
        <ele>437</ele>
        <time>2012-08-19T07:44:16Z</time>
      </trkpt>
      <trkpt lat="48.14821" lon="6.43185">
        <ele>438</ele>
        <time>2012-08-19T07:44:20Z</time>
      </trkpt>
      <trkpt lat="48.14818" lon="6.43172">
        <ele>439</ele>
        <time>2012-08-19T07:44:24Z</time>
      </trkpt>
      <trkpt lat="48.14816" lon="6.43158">
        <ele>439</ele>
        <time>2012-08-19T07:44:28Z</time>
      </trkpt>
      <trkpt lat="48.14814" lon="6.43143">
        <ele>440</ele>
        <time>2012-08-19T07:44:32Z</time>
      </trkpt>
      <trkpt lat="48.14813" lon="6.43132">
        <ele>440</ele>
        <time>2012-08-19T07:44:36Z</time>
      </trkpt>
      <trkpt lat="48.14811" lon="6.43114">
        <ele>441</ele>
        <time>2012-08-19T07:44:40Z</time>
      </trkpt>
      <trkpt lat="48.14806" lon="6.43097">
        <ele>441</ele>
        <time>2012-08-19T07:44:44Z</time>
      </trkpt>
      <trkpt lat="48.14799" lon="6.43074">
        <ele>442</ele>
        <time>2012-08-19T07:44:48Z</time>
      </trkpt>
      <trkpt lat="48.14797" lon="6.43053">
        <ele>441</ele>
        <time>2012-08-19T07:44:52Z</time>
      </trkpt>
      <trkpt lat="48.14794" lon="6.43024">
        <ele>442</ele>
        <time>2012-08-19T07:44:56Z</time>
      </trkpt>
      <trkpt lat="48.14795" lon="6.42996">
        <ele>442</ele>
        <time>2012-08-19T07:45:00Z</time>
      </trkpt>
      <trkpt lat="48.14798" lon="6.42972">
        <ele>442</ele>
        <time>2012-08-19T07:45:04Z</time>
      </trkpt>
      <trkpt lat="48.14806" lon="6.42942">
        <ele>442</ele>
        <time>2012-08-19T07:45:09Z</time>
      </trkpt>
      <trkpt lat="48.14818" lon="6.42918">
        <ele>442</ele>
        <time>2012-08-19T07:45:13Z</time>
      </trkpt>
      <trkpt lat="48.14832" lon="6.42899">
        <ele>443</ele>
        <time>2012-08-19T07:45:17Z</time>
      </trkpt>
      <trkpt lat="48.14848" lon="6.4288">
        <ele>443</ele>
        <time>2012-08-19T07:45:21Z</time>
      </trkpt>
      <trkpt lat="48.14862" lon="6.42855">
        <ele>443</ele>
        <time>2012-08-19T07:45:25Z</time>
      </trkpt>
      <trkpt lat="48.14866" lon="6.42832">
        <ele>442</ele>
        <time>2012-08-19T07:45:29Z</time>
      </trkpt>
      <trkpt lat="48.14864" lon="6.42809">
        <ele>443</ele>
        <time>2012-08-19T07:45:33Z</time>
      </trkpt>
      <trkpt lat="48.1486" lon="6.42782">
        <ele>444</ele>
        <time>2012-08-19T07:45:37Z</time>
      </trkpt>
      <trkpt lat="48.14856" lon="6.42754">
        <ele>445</ele>
        <time>2012-08-19T07:45:41Z</time>
      </trkpt>
      <trkpt lat="48.14852" lon="6.42733">
        <ele>444</ele>
        <time>2012-08-19T07:45:45Z</time>
      </trkpt>
      <trkpt lat="48.1485" lon="6.42704">
        <ele>445</ele>
        <time>2012-08-19T07:45:50Z</time>
      </trkpt>
      <trkpt lat="48.14848" lon="6.42679">
        <ele>445</ele>
        <time>2012-08-19T07:45:54Z</time>
      </trkpt>
      <trkpt lat="48.1485" lon="6.42653">
        <ele>446</ele>
        <time>2012-08-19T07:45:58Z</time>
      </trkpt>
      <trkpt lat="48.14855" lon="6.4263">
        <ele>446</ele>
        <time>2012-08-19T07:46:02Z</time>
      </trkpt>
      <trkpt lat="48.14861" lon="6.42601">
        <ele>447</ele>
        <time>2012-08-19T07:46:07Z</time>
      </trkpt>
      <trkpt lat="48.14869" lon="6.42565">
        <ele>448</ele>
        <time>2012-08-19T07:46:11Z</time>
      </trkpt>
      <trkpt lat="48.14871" lon="6.42529">
        <ele>449</ele>
        <time>2012-08-19T07:46:15Z</time>
      </trkpt>
      <trkpt lat="48.14857" lon="6.42503">
        <ele>450</ele>
        <time>2012-08-19T07:46:19Z</time>
      </trkpt>
      <trkpt lat="48.14827" lon="6.42491">
        <ele>449</ele>
        <time>2012-08-19T07:46:24Z</time>
      </trkpt>
      <trkpt lat="48.14792" lon="6.42458">
        <ele>445</ele>
        <time>2012-08-19T07:46:29Z</time>
      </trkpt>
      <trkpt lat="48.14769" lon="6.42407">
        <ele>438</ele>
        <time>2012-08-19T07:46:34Z</time>
      </trkpt>
      <trkpt lat="48.14754" lon="6.42346">
        <ele>432</ele>
        <time>2012-08-19T07:46:39Z</time>
      </trkpt>
      <trkpt lat="48.14753" lon="6.42304">
        <ele>430</ele>
        <time>2012-08-19T07:46:43Z</time>
      </trkpt>
      <trkpt lat="48.14763" lon="6.42257">
        <ele>428</ele>
        <time>2012-08-19T07:46:47Z</time>
      </trkpt>
      <trkpt lat="48.14763" lon="6.42241">
        <ele>428</ele>
        <time>2012-08-19T07:46:52Z</time>
      </trkpt>
      <trkpt lat="48.14749" lon="6.4225">
        <ele>427</ele>
        <time>2012-08-19T07:46:56Z</time>
      </trkpt>
      <trkpt lat="48.14718" lon="6.4227">
        <ele>423</ele>
        <time>2012-08-19T07:47:01Z</time>
      </trkpt>
      <trkpt lat="48.14691" lon="6.42294">
        <ele>414</ele>
        <time>2012-08-19T07:47:05Z</time>
      </trkpt>
      <trkpt lat="48.14674" lon="6.42318">
        <ele>410</ele>
        <time>2012-08-19T07:47:09Z</time>
      </trkpt>
      <trkpt lat="48.14672" lon="6.42343">
        <ele>410</ele>
        <time>2012-08-19T07:47:13Z</time>
      </trkpt>
      <trkpt lat="48.14681" lon="6.42364">
        <ele>409</ele>
        <time>2012-08-19T07:47:18Z</time>
      </trkpt>
      <trkpt lat="48.14687" lon="6.42388">
        <ele>408</ele>
        <time>2012-08-19T07:47:23Z</time>
      </trkpt>
      <trkpt lat="48.14693" lon="6.42412">
        <ele>407</ele>
        <time>2012-08-19T07:47:27Z</time>
      </trkpt>
      <trkpt lat="48.14703" lon="6.42453">
        <ele>406</ele>
        <time>2012-08-19T07:47:32Z</time>
      </trkpt>
      <trkpt lat="48.1471" lon="6.42485">
        <ele>404</ele>
        <time>2012-08-19T07:47:36Z</time>
      </trkpt>
      <trkpt lat="48.1472" lon="6.4252">
        <ele>404</ele>
        <time>2012-08-19T07:47:40Z</time>
      </trkpt>
      <trkpt lat="48.14729" lon="6.42554">
        <ele>406</ele>
        <time>2012-08-19T07:47:44Z</time>
      </trkpt>
      <trkpt lat="48.14726" lon="6.42598">
        <ele>407</ele>
        <time>2012-08-19T07:47:49Z</time>
      </trkpt>
      <trkpt lat="48.14722" lon="6.4264">
        <ele>408</ele>
        <time>2012-08-19T07:47:54Z</time>
      </trkpt>
      <trkpt lat="48.14725" lon="6.42679">
        <ele>407</ele>
        <time>2012-08-19T07:47:59Z</time>
      </trkpt>
      <trkpt lat="48.1473" lon="6.42705">
        <ele>407</ele>
        <time>2012-08-19T07:48:03Z</time>
      </trkpt>
      <trkpt lat="48.14735" lon="6.42734">
        <ele>406</ele>
        <time>2012-08-19T07:48:07Z</time>
      </trkpt>
      <trkpt lat="48.14741" lon="6.42759">
        <ele>406</ele>
        <time>2012-08-19T07:48:11Z</time>
      </trkpt>
      <trkpt lat="48.14745" lon="6.4279">
        <ele>411</ele>
        <time>2012-08-19T07:48:16Z</time>
      </trkpt>
      <trkpt lat="48.14739" lon="6.4282">
        <ele>413</ele>
        <time>2012-08-19T07:48:21Z</time>
      </trkpt>
      <trkpt lat="48.14729" lon="6.4285">
        <ele>411</ele>
        <time>2012-08-19T07:48:25Z</time>
      </trkpt>
      <trkpt lat="48.14721" lon="6.42884">
        <ele>410</ele>
        <time>2012-08-19T07:48:29Z</time>
      </trkpt>
      <trkpt lat="48.14717" lon="6.42919">
        <ele>408</ele>
        <time>2012-08-19T07:48:33Z</time>
      </trkpt>
      <trkpt lat="48.14717" lon="6.4296">
        <ele>410</ele>
        <time>2012-08-19T07:48:38Z</time>
      </trkpt>
      <trkpt lat="48.14717" lon="6.42994">
        <ele>411</ele>
        <time>2012-08-19T07:48:42Z</time>
      </trkpt>
      <trkpt lat="48.14714" lon="6.43039">
        <ele>412</ele>
        <time>2012-08-19T07:48:47Z</time>
      </trkpt>
      <trkpt lat="48.1471" lon="6.43077">
        <ele>412</ele>
        <time>2012-08-19T07:48:51Z</time>
      </trkpt>
      <trkpt lat="48.14705" lon="6.43117">
        <ele>408</ele>
        <time>2012-08-19T07:48:55Z</time>
      </trkpt>
      <trkpt lat="48.147" lon="6.43166">
        <ele>401</ele>
        <time>2012-08-19T07:48:59Z</time>
      </trkpt>
      <trkpt lat="48.14693" lon="6.43223">
        <ele>396</ele>
        <time>2012-08-19T07:49:04Z</time>
      </trkpt>
      <trkpt lat="48.1467" lon="6.43258">
        <ele>392</ele>
        <time>2012-08-19T07:49:08Z</time>
      </trkpt>
      <trkpt lat="48.14655" lon="6.43265">
        <ele>392</ele>
        <time>2012-08-19T07:49:13Z</time>
      </trkpt>
      <trkpt lat="48.14656" lon="6.43224">
        <ele>392</ele>
        <time>2012-08-19T07:49:18Z</time>
      </trkpt>
      <trkpt lat="48.14656" lon="6.43188">
        <ele>389</ele>
        <time>2012-08-19T07:49:22Z</time>
      </trkpt>
      <trkpt lat="48.14653" lon="6.43141">
        <ele>388</ele>
        <time>2012-08-19T07:49:27Z</time>
      </trkpt>
      <trkpt lat="48.1465" lon="6.43102">
        <ele>388</ele>
        <time>2012-08-19T07:49:31Z</time>
      </trkpt>
      <trkpt lat="48.14649" lon="6.43067">
        <ele>390</ele>
        <time>2012-08-19T07:49:35Z</time>
      </trkpt>
      <trkpt lat="48.1465" lon="6.43026">
        <ele>388</ele>
        <time>2012-08-19T07:49:39Z</time>
      </trkpt>
      <trkpt lat="48.14653" lon="6.42976">
        <ele>387</ele>
        <time>2012-08-19T07:49:44Z</time>
      </trkpt>
      <trkpt lat="48.14654" lon="6.42941">
        <ele>386</ele>
        <time>2012-08-19T07:49:48Z</time>
      </trkpt>
      <trkpt lat="48.1465" lon="6.4291">
        <ele>386</ele>
        <time>2012-08-19T07:49:52Z</time>
      </trkpt>
      <trkpt lat="48.1464" lon="6.42895">
        <ele>386</ele>
        <time>2012-08-19T07:49:56Z</time>
      </trkpt>
      <trkpt lat="48.14631" lon="6.4289">
        <ele>386</ele>
        <time>2012-08-19T07:50:00Z</time>
      </trkpt>
      <trkpt lat="48.14623" lon="6.4289">
        <ele>387</ele>
        <time>2012-08-19T07:50:05Z</time>
      </trkpt>
      <trkpt lat="48.14615" lon="6.42893">
        <ele>386</ele>
        <time>2012-08-19T07:50:11Z</time>
      </trkpt>
      <trkpt lat="48.146" lon="6.42902">
        <ele>386</ele>
        <time>2012-08-19T07:50:16Z</time>
      </trkpt>
      <trkpt lat="48.14589" lon="6.42913">
        <ele>387</ele>
        <time>2012-08-19T07:50:20Z</time>
      </trkpt>
      <trkpt lat="48.14581" lon="6.42933">
        <ele>387</ele>
        <time>2012-08-19T07:50:24Z</time>
      </trkpt>
      <trkpt lat="48.14574" lon="6.42963">
        <ele>387</ele>
        <time>2012-08-19T07:50:28Z</time>
      </trkpt>
      <trkpt lat="48.14559" lon="6.43002">
        <ele>384</ele>
        <time>2012-08-19T07:50:32Z</time>
      </trkpt>
      <trkpt lat="48.14545" lon="6.43037">
        <ele>382</ele>
        <time>2012-08-19T07:50:37Z</time>
      </trkpt>
      <trkpt lat="48.14533" lon="6.43072">
        <ele>382</ele>
        <time>2012-08-19T07:50:41Z</time>
      </trkpt>
      <trkpt lat="48.14519" lon="6.43101">
        <ele>384</ele>
        <time>2012-08-19T07:50:45Z</time>
      </trkpt>
      <trkpt lat="48.14494" lon="6.4312">
        <ele>386</ele>
        <time>2012-08-19T07:50:49Z</time>
      </trkpt>
      <trkpt lat="48.14463" lon="6.43123">
        <ele>387</ele>
        <time>2012-08-19T07:50:54Z</time>
      </trkpt>
      <trkpt lat="48.14438" lon="6.43127">
        <ele>385</ele>
        <time>2012-08-19T07:50:58Z</time>
      </trkpt>
      <trkpt lat="48.14416" lon="6.43142">
        <ele>384</ele>
        <time>2012-08-19T07:51:02Z</time>
      </trkpt>
      <trkpt lat="48.14396" lon="6.4316">
        <ele>383</ele>
        <time>2012-08-19T07:51:07Z</time>
      </trkpt>
      <trkpt lat="48.1439" lon="6.43168">
        <ele>384</ele>
        <time>2012-08-19T07:51:11Z</time>
      </trkpt>
      <trkpt lat="48.14383" lon="6.43161">
        <ele>384</ele>
        <time>2012-08-19T07:51:17Z</time>
      </trkpt>
      <trkpt lat="48.14378" lon="6.4317">
        <ele>384</ele>
        <time>2012-08-19T07:51:24Z</time>
      </trkpt>
      <trkpt lat="48.14381" lon="6.43182">
        <ele>383</ele>
        <time>2012-08-19T07:51:39Z</time>
      </trkpt>
      <trkpt lat="48.14381" lon="6.43192">
        <ele>384</ele>
        <time>2012-08-19T07:51:58Z</time>
      </trkpt>
      <trkpt lat="48.14382" lon="6.43212">
        <ele>385</ele>
        <time>2012-08-19T07:52:02Z</time>
      </trkpt>
      <trkpt lat="48.14381" lon="6.43235">
        <ele>385</ele>
        <time>2012-08-19T07:52:07Z</time>
      </trkpt>
      <trkpt lat="48.14387" lon="6.43267">
        <ele>389</ele>
        <time>2012-08-19T07:52:11Z</time>
      </trkpt>
      <trkpt lat="48.14399" lon="6.43287">
        <ele>392</ele>
        <time>2012-08-19T07:52:15Z</time>
      </trkpt>
      <trkpt lat="48.14419" lon="6.4331">
        <ele>391</ele>
        <time>2012-08-19T07:52:20Z</time>
      </trkpt>
      <trkpt lat="48.14435" lon="6.4333">
        <ele>392</ele>
        <time>2012-08-19T07:52:24Z</time>
      </trkpt>
      <trkpt lat="48.14461" lon="6.43361">
        <ele>390</ele>
        <time>2012-08-19T07:52:29Z</time>
      </trkpt>
      <trkpt lat="48.14486" lon="6.43397">
        <ele>388</ele>
        <time>2012-08-19T07:52:34Z</time>
      </trkpt>
      <trkpt lat="48.14503" lon="6.43436">
        <ele>386</ele>
        <time>2012-08-19T07:52:39Z</time>
      </trkpt>
      <trkpt lat="48.14506" lon="6.43476">
        <ele>387</ele>
        <time>2012-08-19T07:52:43Z</time>
      </trkpt>
      <trkpt lat="48.14512" lon="6.43524">
        <ele>385</ele>
        <time>2012-08-19T07:52:48Z</time>
      </trkpt>
      <trkpt lat="48.14523" lon="6.43556">
        <ele>385</ele>
        <time>2012-08-19T07:52:52Z</time>
      </trkpt>
      <trkpt lat="48.14546" lon="6.43594">
        <ele>386</ele>
        <time>2012-08-19T07:52:57Z</time>
      </trkpt>
      <trkpt lat="48.14564" lon="6.43626">
        <ele>386</ele>
        <time>2012-08-19T07:53:01Z</time>
      </trkpt>
      <trkpt lat="48.14571" lon="6.43662">
        <ele>386</ele>
        <time>2012-08-19T07:53:05Z</time>
      </trkpt>
      <trkpt lat="48.1457" lon="6.43705">
        <ele>385</ele>
        <time>2012-08-19T07:53:10Z</time>
      </trkpt>
      <trkpt lat="48.1456" lon="6.43715">
        <ele>384</ele>
        <time>2012-08-19T07:53:14Z</time>
      </trkpt>
      <trkpt lat="48.14545" lon="6.43726">
        <ele>384</ele>
        <time>2012-08-19T07:53:18Z</time>
      </trkpt>
      <trkpt lat="48.14534" lon="6.43752">
        <ele>383</ele>
        <time>2012-08-19T07:53:22Z</time>
      </trkpt>
      <trkpt lat="48.14521" lon="6.43768">
        <ele>383</ele>
        <time>2012-08-19T07:53:26Z</time>
      </trkpt>
      <trkpt lat="48.14497" lon="6.43784">
        <ele>385</ele>
        <time>2012-08-19T07:53:31Z</time>
      </trkpt>
      <trkpt lat="48.14472" lon="6.43789">
        <ele>387</ele>
        <time>2012-08-19T07:53:36Z</time>
      </trkpt>
      <trkpt lat="48.14456" lon="6.43783">
        <ele>388</ele>
        <time>2012-08-19T07:53:40Z</time>
      </trkpt>
      <trkpt lat="48.14437" lon="6.43764">
        <ele>388</ele>
        <time>2012-08-19T07:53:45Z</time>
      </trkpt>
      <trkpt lat="48.14424" lon="6.43751">
        <ele>388</ele>
        <time>2012-08-19T07:53:49Z</time>
      </trkpt>
      <trkpt lat="48.1441" lon="6.4374">
        <ele>388</ele>
        <time>2012-08-19T07:53:53Z</time>
      </trkpt>
      <trkpt lat="48.14392" lon="6.4374">
        <ele>388</ele>
        <time>2012-08-19T07:53:58Z</time>
      </trkpt>
      <trkpt lat="48.1438" lon="6.43744">
        <ele>388</ele>
        <time>2012-08-19T07:54:02Z</time>
      </trkpt>
      <trkpt lat="48.14372" lon="6.43739">
        <ele>389</ele>
        <time>2012-08-19T07:54:06Z</time>
      </trkpt>
      <trkpt lat="48.14372" lon="6.43726">
        <ele>389</ele>
        <time>2012-08-19T07:54:10Z</time>
      </trkpt>
      <trkpt lat="48.14369" lon="6.4371">
        <ele>390</ele>
        <time>2012-08-19T07:54:15Z</time>
      </trkpt>
      <trkpt lat="48.1436" lon="6.43705">
        <ele>390</ele>
        <time>2012-08-19T07:54:19Z</time>
      </trkpt>
      <trkpt lat="48.1435" lon="6.437">
        <ele>391</ele>
        <time>2012-08-19T07:54:23Z</time>
      </trkpt>
      <trkpt lat="48.14341" lon="6.43695">
        <ele>391</ele>
        <time>2012-08-19T07:54:27Z</time>
      </trkpt>
      <trkpt lat="48.14332" lon="6.43692">
        <ele>391</ele>
        <time>2012-08-19T07:54:31Z</time>
      </trkpt>
      <trkpt lat="48.1432" lon="6.4369">
        <ele>392</ele>
        <time>2012-08-19T07:54:36Z</time>
      </trkpt>
      <trkpt lat="48.14312" lon="6.4369">
        <ele>392</ele>
        <time>2012-08-19T07:54:40Z</time>
      </trkpt>
      <trkpt lat="48.14304" lon="6.4369">
        <ele>393</ele>
        <time>2012-08-19T07:54:44Z</time>
      </trkpt>
      <trkpt lat="48.14297" lon="6.43691">
        <ele>394</ele>
        <time>2012-08-19T07:54:48Z</time>
      </trkpt>
      <trkpt lat="48.14294" lon="6.4368">
        <ele>396</ele>
        <time>2012-08-19T07:54:54Z</time>
      </trkpt>
      <trkpt lat="48.14303" lon="6.43669">
        <ele>396</ele>
        <time>2012-08-19T07:54:59Z</time>
      </trkpt>
      <trkpt lat="48.14311" lon="6.43662">
        <ele>396</ele>
        <time>2012-08-19T07:55:03Z</time>
      </trkpt>
      <trkpt lat="48.14318" lon="6.43656">
        <ele>397</ele>
        <time>2012-08-19T07:55:11Z</time>
      </trkpt>
      <trkpt lat="48.14324" lon="6.43649">
        <ele>398</ele>
        <time>2012-08-19T07:55:17Z</time>
      </trkpt>
      <trkpt lat="48.14332" lon="6.43644">
        <ele>400</ele>
        <time>2012-08-19T07:55:25Z</time>
      </trkpt>
      <trkpt lat="48.14341" lon="6.43637">
        <ele>401</ele>
        <time>2012-08-19T07:55:30Z</time>
      </trkpt>
      <trkpt lat="48.14347" lon="6.43629">
        <ele>402</ele>
        <time>2012-08-19T07:55:35Z</time>
      </trkpt>
      <trkpt lat="48.14351" lon="6.43618">
        <ele>404</ele>
        <time>2012-08-19T07:55:40Z</time>
      </trkpt>
      <trkpt lat="48.14355" lon="6.43609">
        <ele>405</ele>
        <time>2012-08-19T07:55:44Z</time>
      </trkpt>
      <trkpt lat="48.14358" lon="6.43596">
        <ele>407</ele>
        <time>2012-08-19T07:55:48Z</time>
      </trkpt>
      <trkpt lat="48.14358" lon="6.43584">
        <ele>408</ele>
        <time>2012-08-19T07:55:52Z</time>
      </trkpt>
      <trkpt lat="48.14356" lon="6.43572">
        <ele>410</ele>
        <time>2012-08-19T07:55:58Z</time>
      </trkpt>
      <trkpt lat="48.14356" lon="6.43565">
        <ele>414</ele>
        <time>2012-08-19T07:56:08Z</time>
      </trkpt>
      <trkpt lat="48.14353" lon="6.43541">
        <ele>416</ele>
        <time>2012-08-19T07:56:13Z</time>
      </trkpt>
      <trkpt lat="48.1435" lon="6.43529">
        <ele>417</ele>
        <time>2012-08-19T07:56:18Z</time>
      </trkpt>
      <trkpt lat="48.14348" lon="6.43516">
        <ele>418</ele>
        <time>2012-08-19T07:56:22Z</time>
      </trkpt>
      <trkpt lat="48.14342" lon="6.43503">
        <ele>419</ele>
        <time>2012-08-19T07:56:27Z</time>
      </trkpt>
      <trkpt lat="48.14337" lon="6.4349">
        <ele>420</ele>
        <time>2012-08-19T07:56:31Z</time>
      </trkpt>
      <trkpt lat="48.1433" lon="6.43474">
        <ele>421</ele>
        <time>2012-08-19T07:56:36Z</time>
      </trkpt>
      <trkpt lat="48.14322" lon="6.43458">
        <ele>421</ele>
        <time>2012-08-19T07:56:40Z</time>
      </trkpt>
      <trkpt lat="48.14316" lon="6.43444">
        <ele>422</ele>
        <time>2012-08-19T07:56:44Z</time>
      </trkpt>
      <trkpt lat="48.14311" lon="6.43431">
        <ele>422</ele>
        <time>2012-08-19T07:56:48Z</time>
      </trkpt>
      <trkpt lat="48.14305" lon="6.43419">
        <ele>423</ele>
        <time>2012-08-19T07:56:52Z</time>
      </trkpt>
      <trkpt lat="48.14299" lon="6.43407">
        <ele>423</ele>
        <time>2012-08-19T07:56:56Z</time>
      </trkpt>
      <trkpt lat="48.1429" lon="6.43389">
        <ele>423</ele>
        <time>2012-08-19T07:57:01Z</time>
      </trkpt>
      <trkpt lat="48.14282" lon="6.43378">
        <ele>423</ele>
        <time>2012-08-19T07:57:05Z</time>
      </trkpt>
      <trkpt lat="48.14273" lon="6.43368">
        <ele>423</ele>
        <time>2012-08-19T07:57:09Z</time>
      </trkpt>
      <trkpt lat="48.14264" lon="6.4336">
        <ele>423</ele>
        <time>2012-08-19T07:57:13Z</time>
      </trkpt>
      <trkpt lat="48.14253" lon="6.43354">
        <ele>424</ele>
        <time>2012-08-19T07:57:17Z</time>
      </trkpt>
      <trkpt lat="48.14243" lon="6.43348">
        <ele>424</ele>
        <time>2012-08-19T07:57:21Z</time>
      </trkpt>
      <trkpt lat="48.14232" lon="6.43341">
        <ele>425</ele>
        <time>2012-08-19T07:57:25Z</time>
      </trkpt>
      <trkpt lat="48.14222" lon="6.43334">
        <ele>425</ele>
        <time>2012-08-19T07:57:29Z</time>
      </trkpt>
      <trkpt lat="48.14211" lon="6.43329">
        <ele>426</ele>
        <time>2012-08-19T07:57:33Z</time>
      </trkpt>
      <trkpt lat="48.14197" lon="6.43323">
        <ele>426</ele>
        <time>2012-08-19T07:57:38Z</time>
      </trkpt>
      <trkpt lat="48.14185" lon="6.43318">
        <ele>427</ele>
        <time>2012-08-19T07:57:42Z</time>
      </trkpt>
      <trkpt lat="48.14172" lon="6.43315">
        <ele>429</ele>
        <time>2012-08-19T07:57:47Z</time>
      </trkpt>
      <trkpt lat="48.1416" lon="6.43313">
        <ele>429</ele>
        <time>2012-08-19T07:57:51Z</time>
      </trkpt>
      <trkpt lat="48.14149" lon="6.43314">
        <ele>430</ele>
        <time>2012-08-19T07:57:55Z</time>
      </trkpt>
      <trkpt lat="48.14135" lon="6.43319">
        <ele>431</ele>
        <time>2012-08-19T07:58:00Z</time>
      </trkpt>
      <trkpt lat="48.14126" lon="6.43324">
        <ele>432</ele>
        <time>2012-08-19T07:58:04Z</time>
      </trkpt>
      <trkpt lat="48.14118" lon="6.4333">
        <ele>433</ele>
        <time>2012-08-19T07:58:08Z</time>
      </trkpt>
      <trkpt lat="48.1411" lon="6.43336">
        <ele>433</ele>
        <time>2012-08-19T07:58:12Z</time>
      </trkpt>
      <trkpt lat="48.14098" lon="6.43342">
        <ele>434</ele>
        <time>2012-08-19T07:58:17Z</time>
      </trkpt>
      <trkpt lat="48.14084" lon="6.43344">
        <ele>436</ele>
        <time>2012-08-19T07:58:22Z</time>
      </trkpt>
      <trkpt lat="48.14071" lon="6.43338">
        <ele>436</ele>
        <time>2012-08-19T07:58:27Z</time>
      </trkpt>
      <trkpt lat="48.14057" lon="6.43316">
        <ele>438</ele>
        <time>2012-08-19T07:58:31Z</time>
      </trkpt>
      <trkpt lat="48.14055" lon="6.43305">
        <ele>438</ele>
        <time>2012-08-19T07:58:35Z</time>
      </trkpt>
      <trkpt lat="48.14054" lon="6.43289">
        <ele>438</ele>
        <time>2012-08-19T07:58:39Z</time>
      </trkpt>
      <trkpt lat="48.14054" lon="6.43274">
        <ele>438</ele>
        <time>2012-08-19T07:58:43Z</time>
      </trkpt>
      <trkpt lat="48.14056" lon="6.43264">
        <ele>438</ele>
        <time>2012-08-19T07:58:47Z</time>
      </trkpt>
      <trkpt lat="48.14058" lon="6.43252">
        <ele>439</ele>
        <time>2012-08-19T07:58:52Z</time>
      </trkpt>
      <trkpt lat="48.14057" lon="6.43242">
        <ele>439</ele>
        <time>2012-08-19T07:58:56Z</time>
      </trkpt>
      <trkpt lat="48.14055" lon="6.43228">
        <ele>439</ele>
        <time>2012-08-19T07:59:01Z</time>
      </trkpt>
      <trkpt lat="48.14051" lon="6.43218">
        <ele>440</ele>
        <time>2012-08-19T07:59:06Z</time>
      </trkpt>
      <trkpt lat="48.14043" lon="6.43206">
        <ele>440</ele>
        <time>2012-08-19T07:59:11Z</time>
      </trkpt>
      <trkpt lat="48.14034" lon="6.43195">
        <ele>441</ele>
        <time>2012-08-19T07:59:15Z</time>
      </trkpt>
      <trkpt lat="48.1402" lon="6.43185">
        <ele>441</ele>
        <time>2012-08-19T07:59:20Z</time>
      </trkpt>
      <trkpt lat="48.14008" lon="6.43183">
        <ele>441</ele>
        <time>2012-08-19T07:59:25Z</time>
      </trkpt>
      <trkpt lat="48.13998" lon="6.43178">
        <ele>442</ele>
        <time>2012-08-19T07:59:29Z</time>
      </trkpt>
      <trkpt lat="48.13989" lon="6.43175">
        <ele>442</ele>
        <time>2012-08-19T07:59:33Z</time>
      </trkpt>
      <trkpt lat="48.13978" lon="6.43176">
        <ele>443</ele>
        <time>2012-08-19T07:59:37Z</time>
      </trkpt>
      <trkpt lat="48.13972" lon="6.43185">
        <ele>447</ele>
        <time>2012-08-19T07:59:53Z</time>
      </trkpt>
      <trkpt lat="48.13971" lon="6.43197">
        <ele>451</ele>
        <time>2012-08-19T08:00:05Z</time>
      </trkpt>
      <trkpt lat="48.1397" lon="6.43208">
        <ele>454</ele>
        <time>2012-08-19T08:00:14Z</time>
      </trkpt>
      <trkpt lat="48.13971" lon="6.4322">
        <ele>456</ele>
        <time>2012-08-19T08:00:22Z</time>
      </trkpt>
      <trkpt lat="48.1397" lon="6.43232">
        <ele>458</ele>
        <time>2012-08-19T08:00:32Z</time>
      </trkpt>
      <trkpt lat="48.13968" lon="6.43243">
        <ele>461</ele>
        <time>2012-08-19T08:00:42Z</time>
      </trkpt>
      <trkpt lat="48.13968" lon="6.43255">
        <ele>463</ele>
        <time>2012-08-19T08:00:48Z</time>
      </trkpt>
      <trkpt lat="48.13969" lon="6.43266">
        <ele>464</ele>
        <time>2012-08-19T08:00:54Z</time>
      </trkpt>
      <trkpt lat="48.1397" lon="6.43278">
        <ele>467</ele>
        <time>2012-08-19T08:01:01Z</time>
      </trkpt>
      <trkpt lat="48.13969" lon="6.43289">
        <ele>468</ele>
        <time>2012-08-19T08:01:06Z</time>
      </trkpt>
      <trkpt lat="48.13973" lon="6.43304">
        <ele>469</ele>
        <time>2012-08-19T08:01:11Z</time>
      </trkpt>
      <trkpt lat="48.13974" lon="6.43314">
        <ele>469</ele>
        <time>2012-08-19T08:01:15Z</time>
      </trkpt>
      <trkpt lat="48.13975" lon="6.43327">
        <ele>470</ele>
        <time>2012-08-19T08:01:19Z</time>
      </trkpt>
      <trkpt lat="48.13975" lon="6.43345">
        <ele>470</ele>
        <time>2012-08-19T08:01:24Z</time>
      </trkpt>
      <trkpt lat="48.13974" lon="6.43361">
        <ele>470</ele>
        <time>2012-08-19T08:01:29Z</time>
      </trkpt>
      <trkpt lat="48.13973" lon="6.43374">
        <ele>470</ele>
        <time>2012-08-19T08:01:34Z</time>
      </trkpt>
      <trkpt lat="48.1397" lon="6.43385">
        <ele>471</ele>
        <time>2012-08-19T08:01:38Z</time>
      </trkpt>
      <trkpt lat="48.13967" lon="6.43395">
        <ele>472</ele>
        <time>2012-08-19T08:01:42Z</time>
      </trkpt>
      <trkpt lat="48.13963" lon="6.43406">
        <ele>473</ele>
        <time>2012-08-19T08:01:47Z</time>
      </trkpt>
      <trkpt lat="48.13959" lon="6.43415">
        <ele>474</ele>
        <time>2012-08-19T08:01:52Z</time>
      </trkpt>
      <trkpt lat="48.13958" lon="6.43428">
        <ele>474</ele>
        <time>2012-08-19T08:01:57Z</time>
      </trkpt>
      <trkpt lat="48.13968" lon="6.43453">
        <ele>475</ele>
        <time>2012-08-19T08:02:01Z</time>
      </trkpt>
      <trkpt lat="48.13981" lon="6.43475">
        <ele>476</ele>
        <time>2012-08-19T08:02:05Z</time>
      </trkpt>
      <trkpt lat="48.13993" lon="6.435">
        <ele>479</ele>
        <time>2012-08-19T08:02:09Z</time>
      </trkpt>
      <trkpt lat="48.13999" lon="6.43528">
        <ele>479</ele>
        <time>2012-08-19T08:02:13Z</time>
      </trkpt>
      <trkpt lat="48.14004" lon="6.43571">
        <ele>479</ele>
        <time>2012-08-19T08:02:18Z</time>
      </trkpt>
      <trkpt lat="48.14002" lon="6.43605">
        <ele>481</ele>
        <time>2012-08-19T08:02:22Z</time>
      </trkpt>
      <trkpt lat="48.14001" lon="6.43635">
        <ele>481</ele>
        <time>2012-08-19T08:02:26Z</time>
      </trkpt>
      <trkpt lat="48.14001" lon="6.43668">
        <ele>480</ele>
        <time>2012-08-19T08:02:30Z</time>
      </trkpt>
      <trkpt lat="48.13999" lon="6.43704">
        <ele>479</ele>
        <time>2012-08-19T08:02:34Z</time>
      </trkpt>
      <trkpt lat="48.13999" lon="6.43739">
        <ele>478</ele>
        <time>2012-08-19T08:02:38Z</time>
      </trkpt>
      <trkpt lat="48.14007" lon="6.43789">
        <ele>476</ele>
        <time>2012-08-19T08:02:43Z</time>
      </trkpt>
      <trkpt lat="48.14008" lon="6.43825">
        <ele>476</ele>
        <time>2012-08-19T08:02:47Z</time>
      </trkpt>
      <trkpt lat="48.14012" lon="6.43877">
        <ele>474</ele>
        <time>2012-08-19T08:02:52Z</time>
      </trkpt>
      <trkpt lat="48.14028" lon="6.43925">
        <ele>476</ele>
        <time>2012-08-19T08:02:57Z</time>
      </trkpt>
      <trkpt lat="48.14042" lon="6.43965">
        <ele>477</ele>
        <time>2012-08-19T08:03:01Z</time>
      </trkpt>
      <trkpt lat="48.14055" lon="6.44019">
        <ele>477</ele>
        <time>2012-08-19T08:03:06Z</time>
      </trkpt>
      <trkpt lat="48.14064" lon="6.44065">
        <ele>477</ele>
        <time>2012-08-19T08:03:10Z</time>
      </trkpt>
      <trkpt lat="48.14075" lon="6.44117">
        <ele>475</ele>
        <time>2012-08-19T08:03:15Z</time>
      </trkpt>
      <trkpt lat="48.14075" lon="6.44164">
        <ele>475</ele>
        <time>2012-08-19T08:03:20Z</time>
      </trkpt>
      <trkpt lat="48.1406" lon="6.44183">
        <ele>475</ele>
        <time>2012-08-19T08:03:24Z</time>
      </trkpt>
      <trkpt lat="48.1404" lon="6.44192">
        <ele>475</ele>
        <time>2012-08-19T08:03:29Z</time>
      </trkpt>
      <trkpt lat="48.14025" lon="6.44203">
        <ele>475</ele>
        <time>2012-08-19T08:03:33Z</time>
      </trkpt>
      <trkpt lat="48.14032" lon="6.44238">
        <ele>474</ele>
        <time>2012-08-19T08:03:37Z</time>
      </trkpt>
      <trkpt lat="48.14047" lon="6.44283">
        <ele>470</ele>
        <time>2012-08-19T08:03:42Z</time>
      </trkpt>
      <trkpt lat="48.14059" lon="6.44319">
        <ele>467</ele>
        <time>2012-08-19T08:03:46Z</time>
      </trkpt>
      <trkpt lat="48.14076" lon="6.44366">
        <ele>465</ele>
        <time>2012-08-19T08:03:50Z</time>
      </trkpt>
      <trkpt lat="48.14095" lon="6.4441">
        <ele>463</ele>
        <time>2012-08-19T08:03:54Z</time>
      </trkpt>
      <trkpt lat="48.14111" lon="6.44449">
        <ele>462</ele>
        <time>2012-08-19T08:03:58Z</time>
      </trkpt>
      <trkpt lat="48.14118" lon="6.44508">
        <ele>459</ele>
        <time>2012-08-19T08:04:03Z</time>
      </trkpt>
      <trkpt lat="48.14126" lon="6.44568">
        <ele>453</ele>
        <time>2012-08-19T08:04:07Z</time>
      </trkpt>
      <trkpt lat="48.14117" lon="6.44621">
        <ele>447</ele>
        <time>2012-08-19T08:04:11Z</time>
      </trkpt>
      <trkpt lat="48.14113" lon="6.44634">
        <ele>445</ele>
        <time>2012-08-19T08:04:15Z</time>
      </trkpt>
      <trkpt lat="48.14098" lon="6.44619">
        <ele>444</ele>
        <time>2012-08-19T08:04:19Z</time>
      </trkpt>
      <trkpt lat="48.14069" lon="6.44578">
        <ele>438</ele>
        <time>2012-08-19T08:04:24Z</time>
      </trkpt>
      <trkpt lat="48.14046" lon="6.44541">
        <ele>436</ele>
        <time>2012-08-19T08:04:28Z</time>
      </trkpt>
      <trkpt lat="48.1402" lon="6.44506">
        <ele>435</ele>
        <time>2012-08-19T08:04:33Z</time>
      </trkpt>
      <trkpt lat="48.14002" lon="6.44478">
        <ele>433</ele>
        <time>2012-08-19T08:04:38Z</time>
      </trkpt>
      <trkpt lat="48.13991" lon="6.44456">
        <ele>433</ele>
        <time>2012-08-19T08:04:42Z</time>
      </trkpt>
      <trkpt lat="48.13978" lon="6.44432">
        <ele>434</ele>
        <time>2012-08-19T08:04:46Z</time>
      </trkpt>
      <trkpt lat="48.13968" lon="6.4441">
        <ele>436</ele>
        <time>2012-08-19T08:04:50Z</time>
      </trkpt>
      <trkpt lat="48.13962" lon="6.4439">
        <ele>436</ele>
        <time>2012-08-19T08:04:54Z</time>
      </trkpt>
      <trkpt lat="48.13951" lon="6.44364">
        <ele>437</ele>
        <time>2012-08-19T08:04:58Z</time>
      </trkpt>
      <trkpt lat="48.13941" lon="6.44342">
        <ele>437</ele>
        <time>2012-08-19T08:05:02Z</time>
      </trkpt>
      <trkpt lat="48.1393" lon="6.4433">
        <ele>437</ele>
        <time>2012-08-19T08:05:06Z</time>
      </trkpt>
      <trkpt lat="48.13914" lon="6.44325">
        <ele>435</ele>
        <time>2012-08-19T08:05:10Z</time>
      </trkpt>
      <trkpt lat="48.13906" lon="6.44327">
        <ele>435</ele>
        <time>2012-08-19T08:05:15Z</time>
      </trkpt>
      <trkpt lat="48.13901" lon="6.4434">
        <ele>435</ele>
        <time>2012-08-19T08:05:19Z</time>
      </trkpt>
      <trkpt lat="48.13891" lon="6.44349">
        <ele>435</ele>
        <time>2012-08-19T08:05:23Z</time>
      </trkpt>
      <trkpt lat="48.13872" lon="6.44349">
        <ele>435</ele>
        <time>2012-08-19T08:05:28Z</time>
      </trkpt>
      <trkpt lat="48.13862" lon="6.44339">
        <ele>435</ele>
        <time>2012-08-19T08:05:32Z</time>
      </trkpt>
      <trkpt lat="48.13852" lon="6.44328">
        <ele>435</ele>
        <time>2012-08-19T08:05:36Z</time>
      </trkpt>
      <trkpt lat="48.1384" lon="6.44317">
        <ele>436</ele>
        <time>2012-08-19T08:05:41Z</time>
      </trkpt>
      <trkpt lat="48.13832" lon="6.44308">
        <ele>437</ele>
        <time>2012-08-19T08:05:45Z</time>
      </trkpt>
      <trkpt lat="48.1382" lon="6.44292">
        <ele>437</ele>
        <time>2012-08-19T08:05:50Z</time>
      </trkpt>
      <trkpt lat="48.13806" lon="6.44273">
        <ele>438</ele>
        <time>2012-08-19T08:05:54Z</time>
      </trkpt>
      <trkpt lat="48.1379" lon="6.44255">
        <ele>438</ele>
        <time>2012-08-19T08:05:58Z</time>
      </trkpt>
      <trkpt lat="48.13779" lon="6.44236">
        <ele>439</ele>
        <time>2012-08-19T08:06:02Z</time>
      </trkpt>
      <trkpt lat="48.13769" lon="6.44215">
        <ele>439</ele>
        <time>2012-08-19T08:06:06Z</time>
      </trkpt>
      <trkpt lat="48.13761" lon="6.44193">
        <ele>442</ele>
        <time>2012-08-19T08:06:10Z</time>
      </trkpt>
      <trkpt lat="48.13749" lon="6.44156">
        <ele>445</ele>
        <time>2012-08-19T08:06:15Z</time>
      </trkpt>
      <trkpt lat="48.13743" lon="6.44127">
        <ele>444</ele>
        <time>2012-08-19T08:06:19Z</time>
      </trkpt>
      <trkpt lat="48.13744" lon="6.44096">
        <ele>444</ele>
        <time>2012-08-19T08:06:24Z</time>
      </trkpt>
      <trkpt lat="48.13747" lon="6.44063">
        <ele>444</ele>
        <time>2012-08-19T08:06:29Z</time>
      </trkpt>
      <trkpt lat="48.13751" lon="6.44038">
        <ele>445</ele>
        <time>2012-08-19T08:06:33Z</time>
      </trkpt>
      <trkpt lat="48.13752" lon="6.44017">
        <ele>445</ele>
        <time>2012-08-19T08:06:37Z</time>
      </trkpt>
      <trkpt lat="48.13754" lon="6.43987">
        <ele>445</ele>
        <time>2012-08-19T08:06:41Z</time>
      </trkpt>
      <trkpt lat="48.1376" lon="6.43962">
        <ele>446</ele>
        <time>2012-08-19T08:06:45Z</time>
      </trkpt>
      <trkpt lat="48.13766" lon="6.4394">
        <ele>446</ele>
        <time>2012-08-19T08:06:49Z</time>
      </trkpt>
      <trkpt lat="48.1377" lon="6.43917">
        <ele>447</ele>
        <time>2012-08-19T08:06:53Z</time>
      </trkpt>
      <trkpt lat="48.13768" lon="6.43903">
        <ele>447</ele>
        <time>2012-08-19T08:06:57Z</time>
      </trkpt>
      <trkpt lat="48.13763" lon="6.43885">
        <ele>447</ele>
        <time>2012-08-19T08:07:01Z</time>
      </trkpt>
      <trkpt lat="48.13759" lon="6.43869">
        <ele>448</ele>
        <time>2012-08-19T08:07:05Z</time>
      </trkpt>
      <trkpt lat="48.13757" lon="6.4385">
        <ele>448</ele>
        <time>2012-08-19T08:07:10Z</time>
      </trkpt>
      <trkpt lat="48.13755" lon="6.43834">
        <ele>449</ele>
        <time>2012-08-19T08:07:14Z</time>
      </trkpt>
      <trkpt lat="48.13753" lon="6.43823">
        <ele>449</ele>
        <time>2012-08-19T08:07:18Z</time>
      </trkpt>
      <trkpt lat="48.13753" lon="6.43808">
        <ele>449</ele>
        <time>2012-08-19T08:07:23Z</time>
      </trkpt>
      <trkpt lat="48.13752" lon="6.43796">
        <ele>450</ele>
        <time>2012-08-19T08:07:27Z</time>
      </trkpt>
      <trkpt lat="48.13752" lon="6.43785">
        <ele>450</ele>
        <time>2012-08-19T08:07:31Z</time>
      </trkpt>
      <trkpt lat="48.13753" lon="6.4377">
        <ele>451</ele>
        <time>2012-08-19T08:07:36Z</time>
      </trkpt>
      <trkpt lat="48.13754" lon="6.43758">
        <ele>451</ele>
        <time>2012-08-19T08:07:40Z</time>
      </trkpt>
      <trkpt lat="48.13755" lon="6.43745">
        <ele>452</ele>
        <time>2012-08-19T08:07:45Z</time>
      </trkpt>
      <trkpt lat="48.13756" lon="6.43731">
        <ele>453</ele>
        <time>2012-08-19T08:07:49Z</time>
      </trkpt>
      <trkpt lat="48.13759" lon="6.4372">
        <ele>454</ele>
        <time>2012-08-19T08:07:53Z</time>
      </trkpt>
      <trkpt lat="48.13763" lon="6.4371">
        <ele>454</ele>
        <time>2012-08-19T08:07:57Z</time>
      </trkpt>
      <trkpt lat="48.13768" lon="6.437">
        <ele>455</ele>
        <time>2012-08-19T08:08:02Z</time>
      </trkpt>
      <trkpt lat="48.13772" lon="6.43689">
        <ele>456</ele>
        <time>2012-08-19T08:08:08Z</time>
      </trkpt>
      <trkpt lat="48.13777" lon="6.43676">
        <ele>457</ele>
        <time>2012-08-19T08:08:12Z</time>
      </trkpt>
      <trkpt lat="48.13781" lon="6.43664">
        <ele>458</ele>
        <time>2012-08-19T08:08:16Z</time>
      </trkpt>
      <trkpt lat="48.13789" lon="6.43652">
        <ele>459</ele>
        <time>2012-08-19T08:08:21Z</time>
      </trkpt>
      <trkpt lat="48.13796" lon="6.43643">
        <ele>459</ele>
        <time>2012-08-19T08:08:25Z</time>
      </trkpt>
      <trkpt lat="48.13804" lon="6.43636">
        <ele>459</ele>
        <time>2012-08-19T08:08:29Z</time>
      </trkpt>
      <trkpt lat="48.13818" lon="6.43624">
        <ele>460</ele>
        <time>2012-08-19T08:08:34Z</time>
      </trkpt>
      <trkpt lat="48.13831" lon="6.43609">
        <ele>460</ele>
        <time>2012-08-19T08:08:38Z</time>
      </trkpt>
      <trkpt lat="48.13835" lon="6.43584">
        <ele>461</ele>
        <time>2012-08-19T08:08:43Z</time>
      </trkpt>
      <trkpt lat="48.13833" lon="6.43562">
        <ele>461</ele>
        <time>2012-08-19T08:08:47Z</time>
      </trkpt>
      <trkpt lat="48.13828" lon="6.43541">
        <ele>462</ele>
        <time>2012-08-19T08:08:51Z</time>
      </trkpt>
      <trkpt lat="48.13824" lon="6.43525">
        <ele>462</ele>
        <time>2012-08-19T08:08:56Z</time>
      </trkpt>
      <trkpt lat="48.13824" lon="6.43515">
        <ele>463</ele>
        <time>2012-08-19T08:09:00Z</time>
      </trkpt>
      <trkpt lat="48.13825" lon="6.43504">
        <ele>463</ele>
        <time>2012-08-19T08:09:04Z</time>
      </trkpt>
      <trkpt lat="48.13827" lon="6.4349">
        <ele>463</ele>
        <time>2012-08-19T08:09:08Z</time>
      </trkpt>
      <trkpt lat="48.13828" lon="6.43478">
        <ele>464</ele>
        <time>2012-08-19T08:09:13Z</time>
      </trkpt>
      <trkpt lat="48.1383" lon="6.43466">
        <ele>465</ele>
        <time>2012-08-19T08:09:18Z</time>
      </trkpt>
      <trkpt lat="48.13828" lon="6.43453">
        <ele>467</ele>
        <time>2012-08-19T08:09:23Z</time>
      </trkpt>
      <trkpt lat="48.13827" lon="6.43442">
        <ele>469</ele>
        <time>2012-08-19T08:09:29Z</time>
      </trkpt>
      <trkpt lat="48.13826" lon="6.43429">
        <ele>470</ele>
        <time>2012-08-19T08:09:34Z</time>
      </trkpt>
      <trkpt lat="48.13824" lon="6.43417">
        <ele>471</ele>
        <time>2012-08-19T08:09:39Z</time>
      </trkpt>
      <trkpt lat="48.13824" lon="6.43405">
        <ele>472</ele>
        <time>2012-08-19T08:09:45Z</time>
      </trkpt>
      <trkpt lat="48.13824" lon="6.43394">
        <ele>473</ele>
        <time>2012-08-19T08:09:49Z</time>
      </trkpt>
      <trkpt lat="48.13823" lon="6.4338">
        <ele>474</ele>
        <time>2012-08-19T08:09:54Z</time>
      </trkpt>
      <trkpt lat="48.13821" lon="6.43368">
        <ele>475</ele>
        <time>2012-08-19T08:09:58Z</time>
      </trkpt>
      <trkpt lat="48.13815" lon="6.43351">
        <ele>476</ele>
        <time>2012-08-19T08:10:03Z</time>
      </trkpt>
      <trkpt lat="48.13808" lon="6.43335">
        <ele>477</ele>
        <time>2012-08-19T08:10:07Z</time>
      </trkpt>
      <trkpt lat="48.13801" lon="6.43323">
        <ele>477</ele>
        <time>2012-08-19T08:10:11Z</time>
      </trkpt>
      <trkpt lat="48.13793" lon="6.43306">
        <ele>478</ele>
        <time>2012-08-19T08:10:16Z</time>
      </trkpt>
      <trkpt lat="48.13783" lon="6.43292">
        <ele>479</ele>
        <time>2012-08-19T08:10:20Z</time>
      </trkpt>
      <trkpt lat="48.13768" lon="6.43283">
        <ele>479</ele>
        <time>2012-08-19T08:10:24Z</time>
      </trkpt>
      <trkpt lat="48.13754" lon="6.43276">
        <ele>479</ele>
        <time>2012-08-19T08:10:28Z</time>
      </trkpt>
      <trkpt lat="48.13739" lon="6.43272">
        <ele>479</ele>
        <time>2012-08-19T08:10:32Z</time>
      </trkpt>
      <trkpt lat="48.13718" lon="6.4328">
        <ele>480</ele>
        <time>2012-08-19T08:10:37Z</time>
      </trkpt>
      <trkpt lat="48.13705" lon="6.43292">
        <ele>480</ele>
        <time>2012-08-19T08:10:41Z</time>
      </trkpt>
      <trkpt lat="48.13685" lon="6.43308">
        <ele>480</ele>
        <time>2012-08-19T08:10:45Z</time>
      </trkpt>
      <trkpt lat="48.13666" lon="6.43328">
        <ele>480</ele>
        <time>2012-08-19T08:10:49Z</time>
      </trkpt>
      <trkpt lat="48.13646" lon="6.43351">
        <ele>478</ele>
        <time>2012-08-19T08:10:53Z</time>
      </trkpt>
      <trkpt lat="48.13626" lon="6.4338">
        <ele>475</ele>
        <time>2012-08-19T08:10:57Z</time>
      </trkpt>
      <trkpt lat="48.13607" lon="6.43397">
        <ele>473</ele>
        <time>2012-08-19T08:11:02Z</time>
      </trkpt>
      <trkpt lat="48.13595" lon="6.43406">
        <ele>473</ele>
        <time>2012-08-19T08:11:06Z</time>
      </trkpt>
      <trkpt lat="48.13579" lon="6.43428">
        <ele>472</ele>
        <time>2012-08-19T08:11:11Z</time>
      </trkpt>
      <trkpt lat="48.13567" lon="6.43433">
        <ele>471</ele>
        <time>2012-08-19T08:11:15Z</time>
      </trkpt>
      <trkpt lat="48.13549" lon="6.43432">
        <ele>471</ele>
        <time>2012-08-19T08:11:19Z</time>
      </trkpt>
      <trkpt lat="48.13518" lon="6.43418">
        <ele>464</ele>
        <time>2012-08-19T08:11:24Z</time>
      </trkpt>
      <trkpt lat="48.13504" lon="6.4338">
        <ele>456</ele>
        <time>2012-08-19T08:11:29Z</time>
      </trkpt>
      <trkpt lat="48.13501" lon="6.43345">
        <ele>452</ele>
        <time>2012-08-19T08:11:33Z</time>
      </trkpt>
      <trkpt lat="48.13498" lon="6.43319">
        <ele>452</ele>
        <time>2012-08-19T08:11:37Z</time>
      </trkpt>
      <trkpt lat="48.13497" lon="6.43293">
        <ele>452</ele>
        <time>2012-08-19T08:11:41Z</time>
      </trkpt>
      <trkpt lat="48.13493" lon="6.43269">
        <ele>452</ele>
        <time>2012-08-19T08:11:45Z</time>
      </trkpt>
      <trkpt lat="48.13491" lon="6.43246">
        <ele>452</ele>
        <time>2012-08-19T08:11:49Z</time>
      </trkpt>
      <trkpt lat="48.13489" lon="6.43213">
        <ele>452</ele>
        <time>2012-08-19T08:11:54Z</time>
      </trkpt>
      <trkpt lat="48.13493" lon="6.43179">
        <ele>453</ele>
        <time>2012-08-19T08:11:59Z</time>
      </trkpt>
      <trkpt lat="48.13492" lon="6.4315">
        <ele>454</ele>
        <time>2012-08-19T08:12:03Z</time>
      </trkpt>
      <trkpt lat="48.13483" lon="6.43127">
        <ele>455</ele>
        <time>2012-08-19T08:12:08Z</time>
      </trkpt>
      <trkpt lat="48.13478" lon="6.43117">
        <ele>455</ele>
        <time>2012-08-19T08:12:12Z</time>
      </trkpt>
      <trkpt lat="48.1347" lon="6.43102">
        <ele>455</ele>
        <time>2012-08-19T08:12:17Z</time>
      </trkpt>
      <trkpt lat="48.13464" lon="6.43093">
        <ele>456</ele>
        <time>2012-08-19T08:12:21Z</time>
      </trkpt>
      <trkpt lat="48.13458" lon="6.43084">
        <ele>457</ele>
        <time>2012-08-19T08:12:25Z</time>
      </trkpt>
      <trkpt lat="48.13451" lon="6.43077">
        <ele>458</ele>
        <time>2012-08-19T08:12:29Z</time>
      </trkpt>
      <trkpt lat="48.13446" lon="6.43068">
        <ele>459</ele>
        <time>2012-08-19T08:12:33Z</time>
      </trkpt>
      <trkpt lat="48.13439" lon="6.43056">
        <ele>460</ele>
        <time>2012-08-19T08:12:38Z</time>
      </trkpt>
      <trkpt lat="48.13431" lon="6.43042">
        <ele>461</ele>
        <time>2012-08-19T08:12:42Z</time>
      </trkpt>
      <trkpt lat="48.13426" lon="6.43029">
        <ele>462</ele>
        <time>2012-08-19T08:12:47Z</time>
      </trkpt>
      <trkpt lat="48.13422" lon="6.43018">
        <ele>462</ele>
        <time>2012-08-19T08:12:54Z</time>
      </trkpt>
      <trkpt lat="48.13417" lon="6.4301">
        <ele>462</ele>
        <time>2012-08-19T08:12:58Z</time>
      </trkpt>
      <trkpt lat="48.1341" lon="6.43">
        <ele>463</ele>
        <time>2012-08-19T08:13:02Z</time>
      </trkpt>
      <trkpt lat="48.13403" lon="6.42986">
        <ele>464</ele>
        <time>2012-08-19T08:13:07Z</time>
      </trkpt>
      <trkpt lat="48.13399" lon="6.42976">
        <ele>464</ele>
        <time>2012-08-19T08:13:11Z</time>
      </trkpt>
      <trkpt lat="48.13395" lon="6.42967">
        <ele>464</ele>
        <time>2012-08-19T08:13:15Z</time>
      </trkpt>
      <trkpt lat="48.13388" lon="6.42961">
        <ele>464</ele>
        <time>2012-08-19T08:13:19Z</time>
      </trkpt>
      <trkpt lat="48.13373" lon="6.42961">
        <ele>464</ele>
        <time>2012-08-19T08:13:23Z</time>
      </trkpt>
      <trkpt lat="48.1335" lon="6.42968">
        <ele>462</ele>
        <time>2012-08-19T08:13:28Z</time>
      </trkpt>
      <trkpt lat="48.13336" lon="6.42987">
        <ele>462</ele>
        <time>2012-08-19T08:13:32Z</time>
      </trkpt>
      <trkpt lat="48.13325" lon="6.43007">
        <ele>460</ele>
        <time>2012-08-19T08:13:36Z</time>
      </trkpt>
      <trkpt lat="48.1331" lon="6.43021">
        <ele>459</ele>
        <time>2012-08-19T08:13:40Z</time>
      </trkpt>
      <trkpt lat="48.1329" lon="6.43019">
        <ele>460</ele>
        <time>2012-08-19T08:13:44Z</time>
      </trkpt>
      <trkpt lat="48.13272" lon="6.43007">
        <ele>460</ele>
        <time>2012-08-19T08:13:49Z</time>
      </trkpt>
      <trkpt lat="48.13256" lon="6.42988">
        <ele>461</ele>
        <time>2012-08-19T08:13:54Z</time>
      </trkpt>
      <trkpt lat="48.13243" lon="6.42966">
        <ele>461</ele>
        <time>2012-08-19T08:13:58Z</time>
      </trkpt>
      <trkpt lat="48.13232" lon="6.42932">
        <ele>462</ele>
        <time>2012-08-19T08:14:02Z</time>
      </trkpt>
      <trkpt lat="48.13227" lon="6.42901">
        <ele>462</ele>
        <time>2012-08-19T08:14:06Z</time>
      </trkpt>
      <trkpt lat="48.13214" lon="6.42863">
        <ele>463</ele>
        <time>2012-08-19T08:14:11Z</time>
      </trkpt>
      <trkpt lat="48.13207" lon="6.42819">
        <ele>461</ele>
        <time>2012-08-19T08:14:16Z</time>
      </trkpt>
      <trkpt lat="48.13212" lon="6.42792">
        <ele>462</ele>
        <time>2012-08-19T08:14:20Z</time>
      </trkpt>
      <trkpt lat="48.13224" lon="6.42762">
        <ele>463</ele>
        <time>2012-08-19T08:14:25Z</time>
      </trkpt>
      <trkpt lat="48.1324" lon="6.42744">
        <ele>468</ele>
        <time>2012-08-19T08:14:30Z</time>
      </trkpt>
      <trkpt lat="48.13252" lon="6.42733">
        <ele>467</ele>
        <time>2012-08-19T08:14:34Z</time>
      </trkpt>
      <trkpt lat="48.13272" lon="6.42716">
        <ele>467</ele>
        <time>2012-08-19T08:14:39Z</time>
      </trkpt>
      <trkpt lat="48.13289" lon="6.42704">
        <ele>468</ele>
        <time>2012-08-19T08:14:43Z</time>
      </trkpt>
      <trkpt lat="48.13311" lon="6.42684">
        <ele>466</ele>
        <time>2012-08-19T08:14:48Z</time>
      </trkpt>
      <trkpt lat="48.13323" lon="6.42658">
        <ele>467</ele>
        <time>2012-08-19T08:14:52Z</time>
      </trkpt>
      <trkpt lat="48.13327" lon="6.42634">
        <ele>467</ele>
        <time>2012-08-19T08:14:56Z</time>
      </trkpt>
      <trkpt lat="48.13332" lon="6.42607">
        <ele>467</ele>
        <time>2012-08-19T08:15:00Z</time>
      </trkpt>
      <trkpt lat="48.1334" lon="6.42577">
        <ele>466</ele>
        <time>2012-08-19T08:15:05Z</time>
      </trkpt>
      <trkpt lat="48.13347" lon="6.42542">
        <ele>466</ele>
        <time>2012-08-19T08:15:09Z</time>
      </trkpt>
      <trkpt lat="48.1335" lon="6.42493">
        <ele>467</ele>
        <time>2012-08-19T08:15:13Z</time>
      </trkpt>
      <trkpt lat="48.13355" lon="6.42462">
        <ele>468</ele>
        <time>2012-08-19T08:15:17Z</time>
      </trkpt>
      <trkpt lat="48.13344" lon="6.42452">
        <ele>468</ele>
        <time>2012-08-19T08:15:22Z</time>
      </trkpt>
      <trkpt lat="48.13325" lon="6.42441">
        <ele>466</ele>
        <time>2012-08-19T08:15:26Z</time>
      </trkpt>
      <trkpt lat="48.13313" lon="6.42429">
        <ele>465</ele>
        <time>2012-08-19T08:15:30Z</time>
      </trkpt>
      <trkpt lat="48.13299" lon="6.42418">
        <ele>465</ele>
        <time>2012-08-19T08:15:34Z</time>
      </trkpt>
      <trkpt lat="48.13279" lon="6.42409">
        <ele>465</ele>
        <time>2012-08-19T08:15:38Z</time>
      </trkpt>
      <trkpt lat="48.13252" lon="6.42396">
        <ele>465</ele>
        <time>2012-08-19T08:15:43Z</time>
      </trkpt>
      <trkpt lat="48.13232" lon="6.42378">
        <ele>465</ele>
        <time>2012-08-19T08:15:47Z</time>
      </trkpt>
      <trkpt lat="48.1321" lon="6.42351">
        <ele>463</ele>
        <time>2012-08-19T08:15:52Z</time>
      </trkpt>
      <trkpt lat="48.13176" lon="6.42331">
        <ele>457</ele>
        <time>2012-08-19T08:15:56Z</time>
      </trkpt>
      <trkpt lat="48.13142" lon="6.42313">
        <ele>452</ele>
        <time>2012-08-19T08:16:00Z</time>
      </trkpt>
      <trkpt lat="48.13106" lon="6.42293">
        <ele>448</ele>
        <time>2012-08-19T08:16:04Z</time>
      </trkpt>
      <trkpt lat="48.13077" lon="6.42292">
        <ele>445</ele>
        <time>2012-08-19T08:16:08Z</time>
      </trkpt>
      <trkpt lat="48.13058" lon="6.42276">
        <ele>444</ele>
        <time>2012-08-19T08:16:13Z</time>
      </trkpt>
      <trkpt lat="48.13052" lon="6.42252">
        <ele>444</ele>
        <time>2012-08-19T08:16:18Z</time>
      </trkpt>
      <trkpt lat="48.13053" lon="6.42222">
        <ele>446</ele>
        <time>2012-08-19T08:16:22Z</time>
      </trkpt>
      <trkpt lat="48.13062" lon="6.42178">
        <ele>444</ele>
        <time>2012-08-19T08:16:27Z</time>
      </trkpt>
      <trkpt lat="48.13069" lon="6.42146">
        <ele>443</ele>
        <time>2012-08-19T08:16:31Z</time>
      </trkpt>
      <trkpt lat="48.1307" lon="6.42122">
        <ele>444</ele>
        <time>2012-08-19T08:16:35Z</time>
      </trkpt>
      <trkpt lat="48.13068" lon="6.42092">
        <ele>444</ele>
        <time>2012-08-19T08:16:39Z</time>
      </trkpt>
      <trkpt lat="48.13066" lon="6.42062">
        <ele>446</ele>
        <time>2012-08-19T08:16:43Z</time>
      </trkpt>
      <trkpt lat="48.1306" lon="6.4203">
        <ele>448</ele>
        <time>2012-08-19T08:16:47Z</time>
      </trkpt>
      <trkpt lat="48.13054" lon="6.41981">
        <ele>450</ele>
        <time>2012-08-19T08:16:52Z</time>
      </trkpt>
      <trkpt lat="48.13051" lon="6.41943">
        <ele>451</ele>
        <time>2012-08-19T08:16:56Z</time>
      </trkpt>
      <trkpt lat="48.13052" lon="6.41897">
        <ele>448</ele>
        <time>2012-08-19T08:17:01Z</time>
      </trkpt>
      <trkpt lat="48.13054" lon="6.41859">
        <ele>446</ele>
        <time>2012-08-19T08:17:06Z</time>
      </trkpt>
      <trkpt lat="48.13054" lon="6.41828">
        <ele>444</ele>
        <time>2012-08-19T08:17:10Z</time>
      </trkpt>
      <trkpt lat="48.13054" lon="6.41799">
        <ele>442</ele>
        <time>2012-08-19T08:17:14Z</time>
      </trkpt>
      <trkpt lat="48.13052" lon="6.41773">
        <ele>442</ele>
        <time>2012-08-19T08:17:18Z</time>
      </trkpt>
      <trkpt lat="48.13049" lon="6.41763">
        <ele>442</ele>
        <time>2012-08-19T08:17:55Z</time>
      </trkpt>
      <trkpt lat="48.13055" lon="6.41757">
        <ele>440</ele>
        <time>2012-08-19T08:20:58Z</time>
      </trkpt>
      <trkpt lat="48.13037" lon="6.41736">
        <ele>440</ele>
        <time>2012-08-19T08:21:03Z</time>
      </trkpt>
      <trkpt lat="48.13028" lon="6.41731">
        <ele>440</ele>
        <time>2012-08-19T08:21:07Z</time>
      </trkpt>
      <trkpt lat="48.13013" lon="6.4172">
        <ele>440</ele>
        <time>2012-08-19T08:21:12Z</time>
      </trkpt>
      <trkpt lat="48.12997" lon="6.41708">
        <ele>440</ele>
        <time>2012-08-19T08:21:16Z</time>
      </trkpt>
      <trkpt lat="48.1298" lon="6.41695">
        <ele>441</ele>
        <time>2012-08-19T08:21:20Z</time>
      </trkpt>
      <trkpt lat="48.12957" lon="6.41683">
        <ele>441</ele>
        <time>2012-08-19T08:21:25Z</time>
      </trkpt>
      <trkpt lat="48.12934" lon="6.41669">
        <ele>440</ele>
        <time>2012-08-19T08:21:30Z</time>
      </trkpt>
      <trkpt lat="48.12915" lon="6.41661">
        <ele>439</ele>
        <time>2012-08-19T08:21:34Z</time>
      </trkpt>
      <trkpt lat="48.12891" lon="6.41653">
        <ele>439</ele>
        <time>2012-08-19T08:21:39Z</time>
      </trkpt>
      <trkpt lat="48.12868" lon="6.41647">
        <ele>439</ele>
        <time>2012-08-19T08:21:44Z</time>
      </trkpt>
      <trkpt lat="48.12849" lon="6.41641">
        <ele>437</ele>
        <time>2012-08-19T08:21:48Z</time>
      </trkpt>
      <trkpt lat="48.12834" lon="6.41635">
        <ele>437</ele>
        <time>2012-08-19T08:21:53Z</time>
      </trkpt>
      <trkpt lat="48.12823" lon="6.41633">
        <ele>437</ele>
        <time>2012-08-19T08:21:57Z</time>
      </trkpt>
      <trkpt lat="48.12816" lon="6.41631">
        <ele>438</ele>
        <time>2012-08-19T08:22:01Z</time>
      </trkpt>
      <trkpt lat="48.12806" lon="6.4163">
        <ele>438</ele>
        <time>2012-08-19T08:22:06Z</time>
      </trkpt>
      <trkpt lat="48.12796" lon="6.41629">
        <ele>438</ele>
        <time>2012-08-19T08:22:10Z</time>
      </trkpt>
      <trkpt lat="48.12785" lon="6.41629">
        <ele>438</ele>
        <time>2012-08-19T08:22:14Z</time>
      </trkpt>
      <trkpt lat="48.12776" lon="6.41628">
        <ele>438</ele>
        <time>2012-08-19T08:22:18Z</time>
      </trkpt>
      <trkpt lat="48.12766" lon="6.41626">
        <ele>439</ele>
        <time>2012-08-19T08:22:22Z</time>
      </trkpt>
      <trkpt lat="48.12756" lon="6.41623">
        <ele>439</ele>
        <time>2012-08-19T08:22:26Z</time>
      </trkpt>
      <trkpt lat="48.12746" lon="6.4162">
        <ele>439</ele>
        <time>2012-08-19T08:22:30Z</time>
      </trkpt>
      <trkpt lat="48.12736" lon="6.41617">
        <ele>440</ele>
        <time>2012-08-19T08:22:34Z</time>
      </trkpt>
      <trkpt lat="48.12726" lon="6.41613">
        <ele>440</ele>
        <time>2012-08-19T08:22:38Z</time>
      </trkpt>
      <trkpt lat="48.12716" lon="6.41607">
        <ele>441</ele>
        <time>2012-08-19T08:22:42Z</time>
      </trkpt>
      <trkpt lat="48.12708" lon="6.41596">
        <ele>442</ele>
        <time>2012-08-19T08:22:47Z</time>
      </trkpt>
      <trkpt lat="48.12701" lon="6.41586">
        <ele>443</ele>
        <time>2012-08-19T08:22:51Z</time>
      </trkpt>
      <trkpt lat="48.12697" lon="6.41574">
        <ele>443</ele>
        <time>2012-08-19T08:22:55Z</time>
      </trkpt>
      <trkpt lat="48.12691" lon="6.4156">
        <ele>444</ele>
        <time>2012-08-19T08:23:00Z</time>
      </trkpt>
      <trkpt lat="48.12683" lon="6.41545">
        <ele>444</ele>
        <time>2012-08-19T08:23:04Z</time>
      </trkpt>
      <trkpt lat="48.12675" lon="6.41528">
        <ele>445</ele>
        <time>2012-08-19T08:23:08Z</time>
      </trkpt>
      <trkpt lat="48.12664" lon="6.41517">
        <ele>446</ele>
        <time>2012-08-19T08:23:12Z</time>
      </trkpt>
      <trkpt lat="48.12655" lon="6.41508">
        <ele>446</ele>
        <time>2012-08-19T08:23:16Z</time>
      </trkpt>
      <trkpt lat="48.12643" lon="6.41498">
        <ele>447</ele>
        <time>2012-08-19T08:23:21Z</time>
      </trkpt>
      <trkpt lat="48.12634" lon="6.41492">
        <ele>448</ele>
        <time>2012-08-19T08:23:26Z</time>
      </trkpt>
      <trkpt lat="48.12622" lon="6.41484">
        <ele>448</ele>
        <time>2012-08-19T08:23:30Z</time>
      </trkpt>
      <trkpt lat="48.12611" lon="6.41475">
        <ele>449</ele>
        <time>2012-08-19T08:23:34Z</time>
      </trkpt>
      <trkpt lat="48.126" lon="6.41465">
        <ele>450</ele>
        <time>2012-08-19T08:23:38Z</time>
      </trkpt>
      <trkpt lat="48.12587" lon="6.41453">
        <ele>452</ele>
        <time>2012-08-19T08:23:42Z</time>
      </trkpt>
      <trkpt lat="48.12568" lon="6.41438">
        <ele>457</ele>
        <time>2012-08-19T08:23:47Z</time>
      </trkpt>
      <trkpt lat="48.12544" lon="6.41419">
        <ele>458</ele>
        <time>2012-08-19T08:23:52Z</time>
      </trkpt>
      <trkpt lat="48.12524" lon="6.41401">
        <ele>458</ele>
        <time>2012-08-19T08:23:56Z</time>
      </trkpt>
      <trkpt lat="48.12503" lon="6.41381">
        <ele>456</ele>
        <time>2012-08-19T08:24:00Z</time>
      </trkpt>
      <trkpt lat="48.12486" lon="6.41366">
        <ele>455</ele>
        <time>2012-08-19T08:24:04Z</time>
      </trkpt>
      <trkpt lat="48.12456" lon="6.41347">
        <ele>455</ele>
        <time>2012-08-19T08:24:09Z</time>
      </trkpt>
      <trkpt lat="48.12425" lon="6.41329">
        <ele>454</ele>
        <time>2012-08-19T08:24:13Z</time>
      </trkpt>
      <trkpt lat="48.12399" lon="6.41301">
        <ele>454</ele>
        <time>2012-08-19T08:24:17Z</time>
      </trkpt>
      <trkpt lat="48.12369" lon="6.41277">
        <ele>452</ele>
        <time>2012-08-19T08:24:21Z</time>
      </trkpt>
      <trkpt lat="48.12344" lon="6.41271">
        <ele>449</ele>
        <time>2012-08-19T08:24:25Z</time>
      </trkpt>
      <trkpt lat="48.12312" lon="6.41268">
        <ele>450</ele>
        <time>2012-08-19T08:24:30Z</time>
      </trkpt>
      <trkpt lat="48.12301" lon="6.41261">
        <ele>451</ele>
        <time>2012-08-19T08:24:34Z</time>
      </trkpt>
      <trkpt lat="48.1231" lon="6.41225">
        <ele>451</ele>
        <time>2012-08-19T08:24:39Z</time>
      </trkpt>
      <trkpt lat="48.12325" lon="6.412">
        <ele>449</ele>
        <time>2012-08-19T08:24:43Z</time>
      </trkpt>
      <trkpt lat="48.12338" lon="6.41171">
        <ele>450</ele>
        <time>2012-08-19T08:24:47Z</time>
      </trkpt>
      <trkpt lat="48.12345" lon="6.41131">
        <ele>454</ele>
        <time>2012-08-19T08:24:51Z</time>
      </trkpt>
      <trkpt lat="48.12348" lon="6.4108">
        <ele>455</ele>
        <time>2012-08-19T08:24:56Z</time>
      </trkpt>
      <trkpt lat="48.12356" lon="6.41033">
        <ele>454</ele>
        <time>2012-08-19T08:25:01Z</time>
      </trkpt>
      <trkpt lat="48.12365" lon="6.41">
        <ele>453</ele>
        <time>2012-08-19T08:25:05Z</time>
      </trkpt>
      <trkpt lat="48.12378" lon="6.40969">
        <ele>451</ele>
        <time>2012-08-19T08:25:09Z</time>
      </trkpt>
      <trkpt lat="48.1239" lon="6.40942">
        <ele>449</ele>
        <time>2012-08-19T08:25:13Z</time>
      </trkpt>
      <trkpt lat="48.12408" lon="6.40907">
        <ele>450</ele>
        <time>2012-08-19T08:25:18Z</time>
      </trkpt>
      <trkpt lat="48.12429" lon="6.40888">
        <ele>448</ele>
        <time>2012-08-19T08:25:23Z</time>
      </trkpt>
      <trkpt lat="48.1244" lon="6.4088">
        <ele>447</ele>
        <time>2012-08-19T08:25:27Z</time>
      </trkpt>
      <trkpt lat="48.12458" lon="6.40867">
        <ele>448</ele>
        <time>2012-08-19T08:25:32Z</time>
      </trkpt>
      <trkpt lat="48.12471" lon="6.40868">
        <ele>449</ele>
        <time>2012-08-19T08:25:37Z</time>
      </trkpt>
      <trkpt lat="48.12482" lon="6.40868">
        <ele>449</ele>
        <time>2012-08-19T08:25:41Z</time>
      </trkpt>
      <trkpt lat="48.12496" lon="6.40864">
        <ele>451</ele>
        <time>2012-08-19T08:25:46Z</time>
      </trkpt>
      <trkpt lat="48.12505" lon="6.40858">
        <ele>452</ele>
        <time>2012-08-19T08:25:50Z</time>
      </trkpt>
      <trkpt lat="48.12515" lon="6.40851">
        <ele>453</ele>
        <time>2012-08-19T08:25:54Z</time>
      </trkpt>
      <trkpt lat="48.12523" lon="6.40842">
        <ele>453</ele>
        <time>2012-08-19T08:25:59Z</time>
      </trkpt>
      <trkpt lat="48.12527" lon="6.40833">
        <ele>453</ele>
        <time>2012-08-19T08:26:03Z</time>
      </trkpt>
      <trkpt lat="48.12532" lon="6.40812">
        <ele>454</ele>
        <time>2012-08-19T08:26:07Z</time>
      </trkpt>
      <trkpt lat="48.12539" lon="6.40768">
        <ele>459</ele>
        <time>2012-08-19T08:26:12Z</time>
      </trkpt>
      <trkpt lat="48.12541" lon="6.40746">
        <ele>459</ele>
        <time>2012-08-19T08:26:17Z</time>
      </trkpt>
      <trkpt lat="48.1254" lon="6.40727">
        <ele>459</ele>
        <time>2012-08-19T08:26:22Z</time>
      </trkpt>
      <trkpt lat="48.1254" lon="6.40713">
        <ele>459</ele>
        <time>2012-08-19T08:26:26Z</time>
      </trkpt>
      <trkpt lat="48.1254" lon="6.40701">
        <ele>460</ele>
        <time>2012-08-19T08:26:30Z</time>
      </trkpt>
      <trkpt lat="48.12537" lon="6.40685">
        <ele>460</ele>
        <time>2012-08-19T08:26:35Z</time>
      </trkpt>
      <trkpt lat="48.12536" lon="6.40674">
        <ele>460</ele>
        <time>2012-08-19T08:26:39Z</time>
      </trkpt>
      <trkpt lat="48.12539" lon="6.4066">
        <ele>461</ele>
        <time>2012-08-19T08:26:44Z</time>
      </trkpt>
      <trkpt lat="48.12544" lon="6.4065">
        <ele>461</ele>
        <time>2012-08-19T08:26:48Z</time>
      </trkpt>
      <trkpt lat="48.12554" lon="6.40642">
        <ele>461</ele>
        <time>2012-08-19T08:26:52Z</time>
      </trkpt>
      <trkpt lat="48.12562" lon="6.40636">
        <ele>461</ele>
        <time>2012-08-19T08:26:56Z</time>
      </trkpt>
      <trkpt lat="48.12568" lon="6.40629">
        <ele>461</ele>
        <time>2012-08-19T08:27:00Z</time>
      </trkpt>
      <trkpt lat="48.1258" lon="6.40624">
        <ele>461</ele>
        <time>2012-08-19T08:27:05Z</time>
      </trkpt>
      <trkpt lat="48.12586" lon="6.40608">
        <ele>462</ele>
        <time>2012-08-19T08:27:10Z</time>
      </trkpt>
      <trkpt lat="48.12591" lon="6.40582">
        <ele>463</ele>
        <time>2012-08-19T08:27:15Z</time>
      </trkpt>
      <trkpt lat="48.12613" lon="6.40561">
        <ele>467</ele>
        <time>2012-08-19T08:27:20Z</time>
      </trkpt>
      <trkpt lat="48.12635" lon="6.40552">
        <ele>468</ele>
        <time>2012-08-19T08:27:24Z</time>
      </trkpt>
      <trkpt lat="48.12654" lon="6.40537">
        <ele>467</ele>
        <time>2012-08-19T08:27:28Z</time>
      </trkpt>
      <trkpt lat="48.12676" lon="6.40529">
        <ele>466</ele>
        <time>2012-08-19T08:27:33Z</time>
      </trkpt>
      <trkpt lat="48.12696" lon="6.40518">
        <ele>466</ele>
        <time>2012-08-19T08:27:37Z</time>
      </trkpt>
      <trkpt lat="48.12725" lon="6.40502">
        <ele>464</ele>
        <time>2012-08-19T08:27:42Z</time>
      </trkpt>
      <trkpt lat="48.12749" lon="6.40493">
        <ele>463</ele>
        <time>2012-08-19T08:27:46Z</time>
      </trkpt>
      <trkpt lat="48.12778" lon="6.4049">
        <ele>465</ele>
        <time>2012-08-19T08:27:51Z</time>
      </trkpt>
      <trkpt lat="48.12795" lon="6.40488">
        <ele>466</ele>
        <time>2012-08-19T08:27:55Z</time>
      </trkpt>
      <trkpt lat="48.12814" lon="6.40484">
        <ele>467</ele>
        <time>2012-08-19T08:27:59Z</time>
      </trkpt>
      <trkpt lat="48.12828" lon="6.40476">
        <ele>468</ele>
        <time>2012-08-19T08:28:03Z</time>
      </trkpt>
      <trkpt lat="48.12845" lon="6.40466">
        <ele>469</ele>
        <time>2012-08-19T08:28:07Z</time>
      </trkpt>
      <trkpt lat="48.12873" lon="6.40454">
        <ele>471</ele>
        <time>2012-08-19T08:28:12Z</time>
      </trkpt>
      <trkpt lat="48.12902" lon="6.40442">
        <ele>471</ele>
        <time>2012-08-19T08:28:17Z</time>
      </trkpt>
      <trkpt lat="48.12934" lon="6.40431">
        <ele>466</ele>
        <time>2012-08-19T08:28:22Z</time>
      </trkpt>
      <trkpt lat="48.12956" lon="6.40425">
        <ele>463</ele>
        <time>2012-08-19T08:28:27Z</time>
      </trkpt>
      <trkpt lat="48.12964" lon="6.40443">
        <ele>463</ele>
        <time>2012-08-19T08:28:31Z</time>
      </trkpt>
      <trkpt lat="48.12971" lon="6.40481">
        <ele>463</ele>
        <time>2012-08-19T08:28:35Z</time>
      </trkpt>
      <trkpt lat="48.12991" lon="6.40505">
        <ele>465</ele>
        <time>2012-08-19T08:28:39Z</time>
      </trkpt>
      <trkpt lat="48.13017" lon="6.40522">
        <ele>471</ele>
        <time>2012-08-19T08:28:43Z</time>
      </trkpt>
      <trkpt lat="48.13038" lon="6.40544">
        <ele>473</ele>
        <time>2012-08-19T08:28:47Z</time>
      </trkpt>
      <trkpt lat="48.13049" lon="6.40573">
        <ele>470</ele>
        <time>2012-08-19T08:28:51Z</time>
      </trkpt>
      <trkpt lat="48.13051" lon="6.4061">
        <ele>463</ele>
        <time>2012-08-19T08:28:55Z</time>
      </trkpt>
      <trkpt lat="48.13049" lon="6.40637">
        <ele>463</ele>
        <time>2012-08-19T08:29:00Z</time>
      </trkpt>
      <trkpt lat="48.13043" lon="6.40662">
        <ele>458</ele>
        <time>2012-08-19T08:29:04Z</time>
      </trkpt>
      <trkpt lat="48.13029" lon="6.40696">
        <ele>457</ele>
        <time>2012-08-19T08:29:09Z</time>
      </trkpt>
      <trkpt lat="48.13007" lon="6.40735">
        <ele>457</ele>
        <time>2012-08-19T08:29:14Z</time>
      </trkpt>
      <trkpt lat="48.12992" lon="6.40771">
        <ele>457</ele>
        <time>2012-08-19T08:29:18Z</time>
      </trkpt>
      <trkpt lat="48.12976" lon="6.4082">
        <ele>456</ele>
        <time>2012-08-19T08:29:23Z</time>
      </trkpt>
      <trkpt lat="48.12986" lon="6.40869">
        <ele>455</ele>
        <time>2012-08-19T08:29:28Z</time>
      </trkpt>
      <trkpt lat="48.13009" lon="6.40897">
        <ele>458</ele>
        <time>2012-08-19T08:29:32Z</time>
      </trkpt>
      <trkpt lat="48.13034" lon="6.40926">
        <ele>458</ele>
        <time>2012-08-19T08:29:36Z</time>
      </trkpt>
      <trkpt lat="48.13054" lon="6.4096">
        <ele>456</ele>
        <time>2012-08-19T08:29:40Z</time>
      </trkpt>
      <trkpt lat="48.13071" lon="6.40995">
        <ele>454</ele>
        <time>2012-08-19T08:29:44Z</time>
      </trkpt>
      <trkpt lat="48.13094" lon="6.41041">
        <ele>449</ele>
        <time>2012-08-19T08:29:49Z</time>
      </trkpt>
      <trkpt lat="48.1311" lon="6.41071">
        <ele>447</ele>
        <time>2012-08-19T08:29:53Z</time>
      </trkpt>
      <trkpt lat="48.13126" lon="6.41103">
        <ele>446</ele>
        <time>2012-08-19T08:29:57Z</time>
      </trkpt>
      <trkpt lat="48.13143" lon="6.41139">
        <ele>445</ele>
        <time>2012-08-19T08:30:01Z</time>
      </trkpt>
      <trkpt lat="48.13162" lon="6.41179">
        <ele>443</ele>
        <time>2012-08-19T08:30:05Z</time>
      </trkpt>
      <trkpt lat="48.13181" lon="6.41236">
        <ele>440</ele>
        <time>2012-08-19T08:30:10Z</time>
      </trkpt>
      <trkpt lat="48.13194" lon="6.41283">
        <ele>437</ele>
        <time>2012-08-19T08:30:14Z</time>
      </trkpt>
      <trkpt lat="48.13206" lon="6.41324">
        <ele>437</ele>
        <time>2012-08-19T08:30:18Z</time>
      </trkpt>
      <trkpt lat="48.13219" lon="6.41368">
        <ele>436</ele>
        <time>2012-08-19T08:30:22Z</time>
      </trkpt>
      <trkpt lat="48.13232" lon="6.41406">
        <ele>436</ele>
        <time>2012-08-19T08:30:26Z</time>
      </trkpt>
      <trkpt lat="48.13249" lon="6.41449">
        <ele>438</ele>
        <time>2012-08-19T08:30:31Z</time>
      </trkpt>
      <trkpt lat="48.13261" lon="6.41482">
        <ele>438</ele>
        <time>2012-08-19T08:30:35Z</time>
      </trkpt>
      <trkpt lat="48.13276" lon="6.41516">
        <ele>439</ele>
        <time>2012-08-19T08:30:39Z</time>
      </trkpt>
      <trkpt lat="48.13293" lon="6.41549">
        <ele>440</ele>
        <time>2012-08-19T08:30:43Z</time>
      </trkpt>
      <trkpt lat="48.13313" lon="6.4158">
        <ele>442</ele>
        <time>2012-08-19T08:30:47Z</time>
      </trkpt>
      <trkpt lat="48.13335" lon="6.41617">
        <ele>439</ele>
        <time>2012-08-19T08:30:52Z</time>
      </trkpt>
      <trkpt lat="48.13352" lon="6.41652">
        <ele>438</ele>
        <time>2012-08-19T08:30:57Z</time>
      </trkpt>
      <trkpt lat="48.13366" lon="6.41685">
        <ele>438</ele>
        <time>2012-08-19T08:31:02Z</time>
      </trkpt>
      <trkpt lat="48.13379" lon="6.41719">
        <ele>441</ele>
        <time>2012-08-19T08:31:06Z</time>
      </trkpt>
      <trkpt lat="48.13384" lon="6.41757">
        <ele>439</ele>
        <time>2012-08-19T08:31:10Z</time>
      </trkpt>
      <trkpt lat="48.13386" lon="6.41776">
        <ele>439</ele>
        <time>2012-08-19T08:31:14Z</time>
      </trkpt>
      <trkpt lat="48.13392" lon="6.41789">
        <ele>438</ele>
        <time>2012-08-19T08:31:19Z</time>
      </trkpt>
      <trkpt lat="48.134" lon="6.41792">
        <ele>439</ele>
        <time>2012-08-19T08:31:24Z</time>
      </trkpt>
      <trkpt lat="48.13412" lon="6.41795">
        <ele>439</ele>
        <time>2012-08-19T08:31:28Z</time>
      </trkpt>
      <trkpt lat="48.13427" lon="6.41798">
        <ele>440</ele>
        <time>2012-08-19T08:31:32Z</time>
      </trkpt>
      <trkpt lat="48.13439" lon="6.4181">
        <ele>440</ele>
        <time>2012-08-19T08:31:36Z</time>
      </trkpt>
      <trkpt lat="48.13446" lon="6.41821">
        <ele>441</ele>
        <time>2012-08-19T08:31:40Z</time>
      </trkpt>
      <trkpt lat="48.13455" lon="6.41829">
        <ele>442</ele>
        <time>2012-08-19T08:31:45Z</time>
      </trkpt>
      <trkpt lat="48.13461" lon="6.41828">
        <ele>443</ele>
        <time>2012-08-19T08:31:49Z</time>
      </trkpt>
      <trkpt lat="48.13471" lon="6.41828">
        <ele>444</ele>
        <time>2012-08-19T08:31:53Z</time>
      </trkpt>
      <trkpt lat="48.13484" lon="6.41827">
        <ele>444</ele>
        <time>2012-08-19T08:31:57Z</time>
      </trkpt>
      <trkpt lat="48.13503" lon="6.41824">
        <ele>444</ele>
        <time>2012-08-19T08:32:01Z</time>
      </trkpt>
      <trkpt lat="48.13523" lon="6.41816">
        <ele>444</ele>
        <time>2012-08-19T08:32:05Z</time>
      </trkpt>
      <trkpt lat="48.1355" lon="6.41792">
        <ele>441</ele>
        <time>2012-08-19T08:32:10Z</time>
      </trkpt>
      <trkpt lat="48.1357" lon="6.41773">
        <ele>440</ele>
        <time>2012-08-19T08:32:14Z</time>
      </trkpt>
      <trkpt lat="48.13584" lon="6.41749">
        <ele>435</ele>
        <time>2012-08-19T08:32:18Z</time>
      </trkpt>
      <trkpt lat="48.13599" lon="6.41717">
        <ele>430</ele>
        <time>2012-08-19T08:32:23Z</time>
      </trkpt>
      <trkpt lat="48.13612" lon="6.41686">
        <ele>426</ele>
        <time>2012-08-19T08:32:27Z</time>
      </trkpt>
      <trkpt lat="48.13622" lon="6.41651">
        <ele>426</ele>
        <time>2012-08-19T08:32:31Z</time>
      </trkpt>
      <trkpt lat="48.13621" lon="6.41604">
        <ele>423</ele>
        <time>2012-08-19T08:32:36Z</time>
      </trkpt>
      <trkpt lat="48.13619" lon="6.41557">
        <ele>418</ele>
        <time>2012-08-19T08:32:40Z</time>
      </trkpt>
      <trkpt lat="48.1361" lon="6.41509">
        <ele>415</ele>
        <time>2012-08-19T08:32:45Z</time>
      </trkpt>
      <trkpt lat="48.13608" lon="6.41469">
        <ele>414</ele>
        <time>2012-08-19T08:32:50Z</time>
      </trkpt>
      <trkpt lat="48.13609" lon="6.41451">
        <ele>414</ele>
        <time>2012-08-19T08:32:54Z</time>
      </trkpt>
      <trkpt lat="48.13618" lon="6.41446">
        <ele>416</ele>
        <time>2012-08-19T08:33:04Z</time>
      </trkpt>
      <trkpt lat="48.13625" lon="6.41448">
        <ele>417</ele>
        <time>2012-08-19T08:33:09Z</time>
      </trkpt>
      <trkpt lat="48.13634" lon="6.41449">
        <ele>419</ele>
        <time>2012-08-19T08:33:14Z</time>
      </trkpt>
      <trkpt lat="48.13643" lon="6.41451">
        <ele>419</ele>
        <time>2012-08-19T08:33:19Z</time>
      </trkpt>
      <trkpt lat="48.1365" lon="6.41451">
        <ele>420</ele>
        <time>2012-08-19T08:33:23Z</time>
      </trkpt>
      <trkpt lat="48.13659" lon="6.41452">
        <ele>421</ele>
        <time>2012-08-19T08:33:28Z</time>
      </trkpt>
      <trkpt lat="48.13668" lon="6.41454">
        <ele>422</ele>
        <time>2012-08-19T08:33:32Z</time>
      </trkpt>
      <trkpt lat="48.13675" lon="6.41457">
        <ele>423</ele>
        <time>2012-08-19T08:33:36Z</time>
      </trkpt>
      <trkpt lat="48.13686" lon="6.41461">
        <ele>424</ele>
        <time>2012-08-19T08:33:41Z</time>
      </trkpt>
      <trkpt lat="48.13694" lon="6.41461">
        <ele>425</ele>
        <time>2012-08-19T08:33:46Z</time>
      </trkpt>
      <trkpt lat="48.13703" lon="6.4146">
        <ele>427</ele>
        <time>2012-08-19T08:33:51Z</time>
      </trkpt>
      <trkpt lat="48.13709" lon="6.41459">
        <ele>428</ele>
        <time>2012-08-19T08:33:56Z</time>
      </trkpt>
      <trkpt lat="48.13716" lon="6.41461">
        <ele>429</ele>
        <time>2012-08-19T08:34:01Z</time>
      </trkpt>
      <trkpt lat="48.13725" lon="6.41462">
        <ele>430</ele>
        <time>2012-08-19T08:34:05Z</time>
      </trkpt>
      <trkpt lat="48.13732" lon="6.41461">
        <ele>430</ele>
        <time>2012-08-19T08:34:10Z</time>
      </trkpt>
      <trkpt lat="48.13739" lon="6.41455">
        <ele>431</ele>
        <time>2012-08-19T08:34:14Z</time>
      </trkpt>
      <trkpt lat="48.13753" lon="6.41433">
        <ele>431</ele>
        <time>2012-08-19T08:34:19Z</time>
      </trkpt>
      <trkpt lat="48.13765" lon="6.41416">
        <ele>431</ele>
        <time>2012-08-19T08:34:23Z</time>
      </trkpt>
      <trkpt lat="48.13779" lon="6.41399">
        <ele>431</ele>
        <time>2012-08-19T08:34:28Z</time>
      </trkpt>
      <trkpt lat="48.13789" lon="6.41386">
        <ele>431</ele>
        <time>2012-08-19T08:34:32Z</time>
      </trkpt>
      <trkpt lat="48.13802" lon="6.41371">
        <ele>432</ele>
        <time>2012-08-19T08:34:37Z</time>
      </trkpt>
      <trkpt lat="48.13811" lon="6.41361">
        <ele>433</ele>
        <time>2012-08-19T08:34:41Z</time>
      </trkpt>
      <trkpt lat="48.13821" lon="6.41348">
        <ele>434</ele>
        <time>2012-08-19T08:34:46Z</time>
      </trkpt>
      <trkpt lat="48.13828" lon="6.41339">
        <ele>435</ele>
        <time>2012-08-19T08:34:50Z</time>
      </trkpt>
      <trkpt lat="48.13835" lon="6.41342">
        <ele>437</ele>
        <time>2012-08-19T08:34:56Z</time>
      </trkpt>
      <trkpt lat="48.13839" lon="6.41354">
        <ele>438</ele>
        <time>2012-08-19T08:35:01Z</time>
      </trkpt>
      <trkpt lat="48.13848" lon="6.41357">
        <ele>439</ele>
        <time>2012-08-19T08:35:06Z</time>
      </trkpt>
      <trkpt lat="48.13855" lon="6.41363">
        <ele>441</ele>
        <time>2012-08-19T08:35:14Z</time>
      </trkpt>
      <trkpt lat="48.13864" lon="6.41367">
        <ele>443</ele>
        <time>2012-08-19T08:35:18Z</time>
      </trkpt>
      <trkpt lat="48.13867" lon="6.41369">
        <ele>444</ele>
        <time>2012-08-19T08:35:27Z</time>
      </trkpt>
      <trkpt lat="48.13877" lon="6.41371">
        <ele>445</ele>
        <time>2012-08-19T08:35:31Z</time>
      </trkpt>
      <trkpt lat="48.13883" lon="6.41378">
        <ele>446</ele>
        <time>2012-08-19T08:35:37Z</time>
      </trkpt>
      <trkpt lat="48.13883" lon="6.41391">
        <ele>448</ele>
        <time>2012-08-19T08:35:43Z</time>
      </trkpt>
      <trkpt lat="48.13882" lon="6.41403">
        <ele>449</ele>
        <time>2012-08-19T08:35:47Z</time>
      </trkpt>
      <trkpt lat="48.1388" lon="6.41415">
        <ele>449</ele>
        <time>2012-08-19T08:35:51Z</time>
      </trkpt>
      <trkpt lat="48.13881" lon="6.41429">
        <ele>450</ele>
        <time>2012-08-19T08:35:55Z</time>
      </trkpt>
      <trkpt lat="48.13886" lon="6.41441">
        <ele>450</ele>
        <time>2012-08-19T08:35:59Z</time>
      </trkpt>
      <trkpt lat="48.13892" lon="6.41454">
        <ele>451</ele>
        <time>2012-08-19T08:36:03Z</time>
      </trkpt>
      <trkpt lat="48.13895" lon="6.41464">
        <ele>451</ele>
        <time>2012-08-19T08:36:07Z</time>
      </trkpt>
      <trkpt lat="48.13902" lon="6.41471">
        <ele>452</ele>
        <time>2012-08-19T08:36:13Z</time>
      </trkpt>
      <trkpt lat="48.13913" lon="6.41469">
        <ele>452</ele>
        <time>2012-08-19T08:36:18Z</time>
      </trkpt>
      <trkpt lat="48.13924" lon="6.4147">
        <ele>453</ele>
        <time>2012-08-19T08:36:22Z</time>
      </trkpt>
      <trkpt lat="48.13933" lon="6.41475">
        <ele>453</ele>
        <time>2012-08-19T08:36:26Z</time>
      </trkpt>
      <trkpt lat="48.13939" lon="6.41484">
        <ele>455</ele>
        <time>2012-08-19T08:36:30Z</time>
      </trkpt>
      <trkpt lat="48.13947" lon="6.41493">
        <ele>456</ele>
        <time>2012-08-19T08:36:34Z</time>
      </trkpt>
      <trkpt lat="48.13961" lon="6.41495">
        <ele>457</ele>
        <time>2012-08-19T08:36:39Z</time>
      </trkpt>
      <trkpt lat="48.13973" lon="6.41492">
        <ele>458</ele>
        <time>2012-08-19T08:36:44Z</time>
      </trkpt>
      <trkpt lat="48.13983" lon="6.41486">
        <ele>458</ele>
        <time>2012-08-19T08:36:48Z</time>
      </trkpt>
      <trkpt lat="48.13993" lon="6.41493">
        <ele>459</ele>
        <time>2012-08-19T08:36:52Z</time>
      </trkpt>
      <trkpt lat="48.13995" lon="6.4151">
        <ele>459</ele>
        <time>2012-08-19T08:36:56Z</time>
      </trkpt>
      <trkpt lat="48.1399" lon="6.41528">
        <ele>459</ele>
        <time>2012-08-19T08:37:00Z</time>
      </trkpt>
      <trkpt lat="48.13984" lon="6.41547">
        <ele>460</ele>
        <time>2012-08-19T08:37:04Z</time>
      </trkpt>
      <trkpt lat="48.13978" lon="6.41566">
        <ele>461</ele>
        <time>2012-08-19T08:37:08Z</time>
      </trkpt>
      <trkpt lat="48.13972" lon="6.41583">
        <ele>462</ele>
        <time>2012-08-19T08:37:12Z</time>
      </trkpt>
      <trkpt lat="48.13964" lon="6.41603">
        <ele>462</ele>
        <time>2012-08-19T08:37:16Z</time>
      </trkpt>
      <trkpt lat="48.13956" lon="6.41625">
        <ele>462</ele>
        <time>2012-08-19T08:37:21Z</time>
      </trkpt>
      <trkpt lat="48.13947" lon="6.41638">
        <ele>463</ele>
        <time>2012-08-19T08:37:25Z</time>
      </trkpt>
      <trkpt lat="48.13934" lon="6.41649">
        <ele>463</ele>
        <time>2012-08-19T08:37:29Z</time>
      </trkpt>
      <trkpt lat="48.1392" lon="6.4166">
        <ele>463</ele>
        <time>2012-08-19T08:37:33Z</time>
      </trkpt>
      <trkpt lat="48.13911" lon="6.41671">
        <ele>463</ele>
        <time>2012-08-19T08:37:37Z</time>
      </trkpt>
      <trkpt lat="48.13913" lon="6.41683">
        <ele>462</ele>
        <time>2012-08-19T08:37:41Z</time>
      </trkpt>
      <trkpt lat="48.1393" lon="6.41703">
        <ele>462</ele>
        <time>2012-08-19T08:37:46Z</time>
      </trkpt>
      <trkpt lat="48.13943" lon="6.41711">
        <ele>463</ele>
        <time>2012-08-19T08:37:50Z</time>
      </trkpt>
      <trkpt lat="48.13951" lon="6.41715">
        <ele>463</ele>
        <time>2012-08-19T08:37:54Z</time>
      </trkpt>
      <trkpt lat="48.13959" lon="6.41714">
        <ele>464</ele>
        <time>2012-08-19T08:37:58Z</time>
      </trkpt>
      <trkpt lat="48.13968" lon="6.41711">
        <ele>464</ele>
        <time>2012-08-19T08:38:02Z</time>
      </trkpt>
      <trkpt lat="48.13977" lon="6.41706">
        <ele>465</ele>
        <time>2012-08-19T08:38:06Z</time>
      </trkpt>
      <trkpt lat="48.13983" lon="6.41697">
        <ele>466</ele>
        <time>2012-08-19T08:38:11Z</time>
      </trkpt>
      <trkpt lat="48.13992" lon="6.41691">
        <ele>466</ele>
        <time>2012-08-19T08:38:15Z</time>
      </trkpt>
      <trkpt lat="48.13992" lon="6.41699">
        <ele>466</ele>
        <time>2012-08-19T08:38:19Z</time>
      </trkpt>
      <trkpt lat="48.1399" lon="6.41717">
        <ele>466</ele>
        <time>2012-08-19T08:38:23Z</time>
      </trkpt>
      <trkpt lat="48.13991" lon="6.41736">
        <ele>466</ele>
        <time>2012-08-19T08:38:27Z</time>
      </trkpt>
      <trkpt lat="48.13997" lon="6.41749">
        <ele>467</ele>
        <time>2012-08-19T08:38:31Z</time>
      </trkpt>
      <trkpt lat="48.14003" lon="6.41759">
        <ele>467</ele>
        <time>2012-08-19T08:38:35Z</time>
      </trkpt>
      <trkpt lat="48.14007" lon="6.41768">
        <ele>468</ele>
        <time>2012-08-19T08:38:40Z</time>
      </trkpt>
      <trkpt lat="48.14009" lon="6.41779">
        <ele>469</ele>
        <time>2012-08-19T08:38:44Z</time>
      </trkpt>
      <trkpt lat="48.14008" lon="6.41789">
        <ele>469</ele>
        <time>2012-08-19T08:38:49Z</time>
      </trkpt>
      <trkpt lat="48.1401" lon="6.41802">
        <ele>469</ele>
        <time>2012-08-19T08:38:54Z</time>
      </trkpt>
      <trkpt lat="48.14013" lon="6.41811">
        <ele>470</ele>
        <time>2012-08-19T08:38:59Z</time>
      </trkpt>
      <trkpt lat="48.14017" lon="6.41823">
        <ele>471</ele>
        <time>2012-08-19T08:39:05Z</time>
      </trkpt>
      <trkpt lat="48.1402" lon="6.41833">
        <ele>471</ele>
        <time>2012-08-19T08:39:09Z</time>
      </trkpt>
      <trkpt lat="48.14023" lon="6.41844">
        <ele>472</ele>
        <time>2012-08-19T08:39:14Z</time>
      </trkpt>
      <trkpt lat="48.14028" lon="6.41855">
        <ele>473</ele>
        <time>2012-08-19T08:39:20Z</time>
      </trkpt>
      <trkpt lat="48.14034" lon="6.41863">
        <ele>475</ele>
        <time>2012-08-19T08:39:26Z</time>
      </trkpt>
      <trkpt lat="48.14042" lon="6.41865">
        <ele>476</ele>
        <time>2012-08-19T08:39:32Z</time>
      </trkpt>
      <trkpt lat="48.1405" lon="6.41868">
        <ele>478</ele>
        <time>2012-08-19T08:39:38Z</time>
      </trkpt>
      <trkpt lat="48.1406" lon="6.41868">
        <ele>479</ele>
        <time>2012-08-19T08:39:42Z</time>
      </trkpt>
      <trkpt lat="48.14064" lon="6.41877">
        <ele>480</ele>
        <time>2012-08-19T08:39:48Z</time>
      </trkpt>
      <trkpt lat="48.14066" lon="6.41899">
        <ele>481</ele>
        <time>2012-08-19T08:39:52Z</time>
      </trkpt>
      <trkpt lat="48.14067" lon="6.41922">
        <ele>481</ele>
        <time>2012-08-19T08:39:57Z</time>
      </trkpt>
      <trkpt lat="48.14073" lon="6.41945">
        <ele>481</ele>
        <time>2012-08-19T08:40:02Z</time>
      </trkpt>
      <trkpt lat="48.14081" lon="6.41961">
        <ele>481</ele>
        <time>2012-08-19T08:40:06Z</time>
      </trkpt>
      <trkpt lat="48.14086" lon="6.41975">
        <ele>482</ele>
        <time>2012-08-19T08:40:10Z</time>
      </trkpt>
      <trkpt lat="48.14095" lon="6.41996">
        <ele>482</ele>
        <time>2012-08-19T08:40:15Z</time>
      </trkpt>
      <trkpt lat="48.14105" lon="6.42017">
        <ele>483</ele>
        <time>2012-08-19T08:40:20Z</time>
      </trkpt>
      <trkpt lat="48.14114" lon="6.42014">
        <ele>484</ele>
        <time>2012-08-19T08:40:24Z</time>
      </trkpt>
      <trkpt lat="48.14127" lon="6.42002">
        <ele>484</ele>
        <time>2012-08-19T08:40:28Z</time>
      </trkpt>
      <trkpt lat="48.14144" lon="6.41991">
        <ele>485</ele>
        <time>2012-08-19T08:40:32Z</time>
      </trkpt>
      <trkpt lat="48.14154" lon="6.42">
        <ele>485</ele>
        <time>2012-08-19T08:40:36Z</time>
      </trkpt>
      <trkpt lat="48.14154" lon="6.4202">
        <ele>486</ele>
        <time>2012-08-19T08:40:40Z</time>
      </trkpt>
      <trkpt lat="48.14158" lon="6.42047">
        <ele>487</ele>
        <time>2012-08-19T08:40:45Z</time>
      </trkpt>
      <trkpt lat="48.14161" lon="6.42068">
        <ele>487</ele>
        <time>2012-08-19T08:40:49Z</time>
      </trkpt>
      <trkpt lat="48.14165" lon="6.421">
        <ele>488</ele>
        <time>2012-08-19T08:40:54Z</time>
      </trkpt>
      <trkpt lat="48.14177" lon="6.42136">
        <ele>488</ele>
        <time>2012-08-19T08:40:58Z</time>
      </trkpt>
      <trkpt lat="48.14194" lon="6.42169">
        <ele>492</ele>
        <time>2012-08-19T08:41:02Z</time>
      </trkpt>
      <trkpt lat="48.14212" lon="6.42221">
        <ele>493</ele>
        <time>2012-08-19T08:41:07Z</time>
      </trkpt>
      <trkpt lat="48.14228" lon="6.42271">
        <ele>490</ele>
        <time>2012-08-19T08:41:11Z</time>
      </trkpt>
      <trkpt lat="48.14249" lon="6.42334">
        <ele>485</ele>
        <time>2012-08-19T08:41:16Z</time>
      </trkpt>
      <trkpt lat="48.14267" lon="6.42387">
        <ele>481</ele>
        <time>2012-08-19T08:41:21Z</time>
      </trkpt>
      <trkpt lat="48.1428" lon="6.42429">
        <ele>479</ele>
        <time>2012-08-19T08:41:25Z</time>
      </trkpt>
      <trkpt lat="48.14291" lon="6.42465">
        <ele>479</ele>
        <time>2012-08-19T08:41:29Z</time>
      </trkpt>
      <trkpt lat="48.14305" lon="6.42507">
        <ele>477</ele>
        <time>2012-08-19T08:41:34Z</time>
      </trkpt>
      <trkpt lat="48.14314" lon="6.42541">
        <ele>475</ele>
        <time>2012-08-19T08:41:39Z</time>
      </trkpt>
      <trkpt lat="48.1432" lon="6.42587">
        <ele>474</ele>
        <time>2012-08-19T08:41:43Z</time>
      </trkpt>
      <trkpt lat="48.14325" lon="6.42631">
        <ele>469</ele>
        <time>2012-08-19T08:41:47Z</time>
      </trkpt>
      <trkpt lat="48.14326" lon="6.42662">
        <ele>466</ele>
        <time>2012-08-19T08:41:51Z</time>
      </trkpt>
      <trkpt lat="48.14338" lon="6.42684">
        <ele>465</ele>
        <time>2012-08-19T08:41:55Z</time>
      </trkpt>
      <trkpt lat="48.14358" lon="6.4271">
        <ele>461</ele>
        <time>2012-08-19T08:41:59Z</time>
      </trkpt>
      <trkpt lat="48.14376" lon="6.42746">
        <ele>456</ele>
        <time>2012-08-19T08:42:04Z</time>
      </trkpt>
      <trkpt lat="48.14397" lon="6.42794">
        <ele>450</ele>
        <time>2012-08-19T08:42:09Z</time>
      </trkpt>
      <trkpt lat="48.14416" lon="6.42804">
        <ele>448</ele>
        <time>2012-08-19T08:42:14Z</time>
      </trkpt>
      <trkpt lat="48.14426" lon="6.42777">
        <ele>448</ele>
        <time>2012-08-19T08:42:18Z</time>
      </trkpt>
      <trkpt lat="48.14425" lon="6.42734">
        <ele>448</ele>
        <time>2012-08-19T08:42:23Z</time>
      </trkpt>
      <trkpt lat="48.14418" lon="6.42709">
        <ele>448</ele>
        <time>2012-08-19T08:42:27Z</time>
      </trkpt>
      <trkpt lat="48.14416" lon="6.42696">
        <ele>448</ele>
        <time>2012-08-19T08:42:32Z</time>
      </trkpt>
      <trkpt lat="48.1442" lon="6.42684">
        <ele>448</ele>
        <time>2012-08-19T08:42:37Z</time>
      </trkpt>
      <trkpt lat="48.14419" lon="6.42666">
        <ele>448</ele>
        <time>2012-08-19T08:42:42Z</time>
      </trkpt>
      <trkpt lat="48.14415" lon="6.42647">
        <ele>447</ele>
        <time>2012-08-19T08:42:47Z</time>
      </trkpt>
      <trkpt lat="48.14412" lon="6.42633">
        <ele>447</ele>
        <time>2012-08-19T08:42:51Z</time>
      </trkpt>
      <trkpt lat="48.14409" lon="6.42612">
        <ele>447</ele>
        <time>2012-08-19T08:42:56Z</time>
      </trkpt>
      <trkpt lat="48.14414" lon="6.42593">
        <ele>446</ele>
        <time>2012-08-19T08:43:01Z</time>
      </trkpt>
      <trkpt lat="48.14425" lon="6.42574">
        <ele>445</ele>
        <time>2012-08-19T08:43:06Z</time>
      </trkpt>
      <trkpt lat="48.14432" lon="6.42558">
        <ele>444</ele>
        <time>2012-08-19T08:43:10Z</time>
      </trkpt>
      <trkpt lat="48.14439" lon="6.42531">
        <ele>443</ele>
        <time>2012-08-19T08:43:15Z</time>
      </trkpt>
      <trkpt lat="48.14443" lon="6.42497">
        <ele>443</ele>
        <time>2012-08-19T08:43:20Z</time>
      </trkpt>
      <trkpt lat="48.14435" lon="6.42462">
        <ele>443</ele>
        <time>2012-08-19T08:43:25Z</time>
      </trkpt>
      <trkpt lat="48.14423" lon="6.42436">
        <ele>443</ele>
        <time>2012-08-19T08:43:29Z</time>
      </trkpt>
      <trkpt lat="48.14419" lon="6.42422">
        <ele>444</ele>
        <time>2012-08-19T08:43:33Z</time>
      </trkpt>
      <trkpt lat="48.14418" lon="6.4241">
        <ele>444</ele>
        <time>2012-08-19T08:43:37Z</time>
      </trkpt>
      <trkpt lat="48.14419" lon="6.424">
        <ele>445</ele>
        <time>2012-08-19T08:43:41Z</time>
      </trkpt>
      <trkpt lat="48.1442" lon="6.42383">
        <ele>445</ele>
        <time>2012-08-19T08:43:45Z</time>
      </trkpt>
      <trkpt lat="48.14418" lon="6.42363">
        <ele>446</ele>
        <time>2012-08-19T08:43:49Z</time>
      </trkpt>
      <trkpt lat="48.14416" lon="6.42343">
        <ele>446</ele>
        <time>2012-08-19T08:43:53Z</time>
      </trkpt>
      <trkpt lat="48.14411" lon="6.42318">
        <ele>446</ele>
        <time>2012-08-19T08:43:57Z</time>
      </trkpt>
      <trkpt lat="48.14403" lon="6.42286">
        <ele>446</ele>
        <time>2012-08-19T08:44:01Z</time>
      </trkpt>
      <trkpt lat="48.14396" lon="6.42235">
        <ele>447</ele>
        <time>2012-08-19T08:44:06Z</time>
      </trkpt>
      <trkpt lat="48.14395" lon="6.42224">
        <ele>447</ele>
        <time>2012-08-19T08:44:10Z</time>
      </trkpt>
      <trkpt lat="48.14398" lon="6.42206">
        <ele>446</ele>
        <time>2012-08-19T08:44:14Z</time>
      </trkpt>
      <trkpt lat="48.14406" lon="6.42171">
        <ele>446</ele>
        <time>2012-08-19T08:44:19Z</time>
      </trkpt>
      <trkpt lat="48.14407" lon="6.42128">
        <ele>447</ele>
        <time>2012-08-19T08:44:23Z</time>
      </trkpt>
      <trkpt lat="48.14403" lon="6.42087">
        <ele>447</ele>
        <time>2012-08-19T08:44:27Z</time>
      </trkpt>
      <trkpt lat="48.14391" lon="6.42049">
        <ele>449</ele>
        <time>2012-08-19T08:44:31Z</time>
      </trkpt>
      <trkpt lat="48.14366" lon="6.42019">
        <ele>449</ele>
        <time>2012-08-19T08:44:36Z</time>
      </trkpt>
      <trkpt lat="48.14346" lon="6.42006">
        <ele>446</ele>
        <time>2012-08-19T08:44:40Z</time>
      </trkpt>
      <trkpt lat="48.1432" lon="6.41997">
        <ele>444</ele>
        <time>2012-08-19T08:44:44Z</time>
      </trkpt>
      <trkpt lat="48.143" lon="6.41981">
        <ele>445</ele>
        <time>2012-08-19T08:44:48Z</time>
      </trkpt>
      <trkpt lat="48.14287" lon="6.41953">
        <ele>447</ele>
        <time>2012-08-19T08:44:52Z</time>
      </trkpt>
      <trkpt lat="48.14282" lon="6.41937">
        <ele>447</ele>
        <time>2012-08-19T08:44:56Z</time>
      </trkpt>
      <trkpt lat="48.14281" lon="6.41924">
        <ele>447</ele>
        <time>2012-08-19T08:45:00Z</time>
      </trkpt>
      <trkpt lat="48.14282" lon="6.41911">
        <ele>447</ele>
        <time>2012-08-19T08:45:07Z</time>
      </trkpt>
      <trkpt lat="48.14282" lon="6.41901">
        <ele>445</ele>
        <time>2012-08-19T08:45:14Z</time>
      </trkpt>
      <trkpt lat="48.14285" lon="6.41889">
        <ele>444</ele>
        <time>2012-08-19T08:45:21Z</time>
      </trkpt>
      <trkpt lat="48.14286" lon="6.41876">
        <ele>445</ele>
        <time>2012-08-19T08:45:27Z</time>
      </trkpt>
      <trkpt lat="48.14288" lon="6.41865">
        <ele>446</ele>
        <time>2012-08-19T08:45:35Z</time>
      </trkpt>
      <trkpt lat="48.14289" lon="6.41848">
        <ele>447</ele>
        <time>2012-08-19T08:45:40Z</time>
      </trkpt>
      <trkpt lat="48.14287" lon="6.41835">
        <ele>448</ele>
        <time>2012-08-19T08:45:50Z</time>
      </trkpt>
      <trkpt lat="48.14287" lon="6.41823">
        <ele>449</ele>
        <time>2012-08-19T08:45:55Z</time>
      </trkpt>
      <trkpt lat="48.14284" lon="6.41811">
        <ele>449</ele>
        <time>2012-08-19T08:46:00Z</time>
      </trkpt>
      <trkpt lat="48.14282" lon="6.418">
        <ele>450</ele>
        <time>2012-08-19T08:46:05Z</time>
      </trkpt>
      <trkpt lat="48.14281" lon="6.41787">
        <ele>451</ele>
        <time>2012-08-19T08:46:10Z</time>
      </trkpt>
      <trkpt lat="48.14276" lon="6.41775">
        <ele>452</ele>
        <time>2012-08-19T08:46:14Z</time>
      </trkpt>
      <trkpt lat="48.14271" lon="6.41759">
        <ele>452</ele>
        <time>2012-08-19T08:46:18Z</time>
      </trkpt>
      <trkpt lat="48.14265" lon="6.41735">
        <ele>453</ele>
        <time>2012-08-19T08:46:22Z</time>
      </trkpt>
      <trkpt lat="48.14253" lon="6.41716">
        <ele>453</ele>
        <time>2012-08-19T08:46:27Z</time>
      </trkpt>
      <trkpt lat="48.14237" lon="6.41703">
        <ele>454</ele>
        <time>2012-08-19T08:46:31Z</time>
      </trkpt>
      <trkpt lat="48.14208" lon="6.41685">
        <ele>454</ele>
        <time>2012-08-19T08:46:36Z</time>
      </trkpt>
      <trkpt lat="48.14181" lon="6.41655">
        <ele>452</ele>
        <time>2012-08-19T08:46:40Z</time>
      </trkpt>
      <trkpt lat="48.1415" lon="6.41626">
        <ele>450</ele>
        <time>2012-08-19T08:46:44Z</time>
      </trkpt>
      <trkpt lat="48.14134" lon="6.41586">
        <ele>447</ele>
        <time>2012-08-19T08:46:48Z</time>
      </trkpt>
      <trkpt lat="48.14139" lon="6.4155">
        <ele>442</ele>
        <time>2012-08-19T08:46:52Z</time>
      </trkpt>
      <trkpt lat="48.14147" lon="6.41515">
        <ele>438</ele>
        <time>2012-08-19T08:46:56Z</time>
      </trkpt>
      <trkpt lat="48.14154" lon="6.41469">
        <ele>437</ele>
        <time>2012-08-19T08:47:01Z</time>
      </trkpt>
      <trkpt lat="48.14173" lon="6.41433">
        <ele>434</ele>
        <time>2012-08-19T08:47:05Z</time>
      </trkpt>
      <trkpt lat="48.14203" lon="6.41401">
        <ele>428</ele>
        <time>2012-08-19T08:47:10Z</time>
      </trkpt>
      <trkpt lat="48.14233" lon="6.41381">
        <ele>424</ele>
        <time>2012-08-19T08:47:15Z</time>
      </trkpt>
      <trkpt lat="48.14254" lon="6.41354">
        <ele>423</ele>
        <time>2012-08-19T08:47:19Z</time>
      </trkpt>
      <trkpt lat="48.14271" lon="6.4132">
        <ele>421</ele>
        <time>2012-08-19T08:47:23Z</time>
      </trkpt>
      <trkpt lat="48.14283" lon="6.41274">
        <ele>420</ele>
        <time>2012-08-19T08:47:27Z</time>
      </trkpt>
      <trkpt lat="48.14296" lon="6.41204">
        <ele>421</ele>
        <time>2012-08-19T08:47:32Z</time>
      </trkpt>
      <trkpt lat="48.14299" lon="6.41143">
        <ele>420</ele>
        <time>2012-08-19T08:47:36Z</time>
      </trkpt>
      <trkpt lat="48.14296" lon="6.41087">
        <ele>420</ele>
        <time>2012-08-19T08:47:40Z</time>
      </trkpt>
      <trkpt lat="48.14289" lon="6.41044">
        <ele>420</ele>
        <time>2012-08-19T08:47:44Z</time>
      </trkpt>
      <trkpt lat="48.14285" lon="6.41007">
        <ele>419</ele>
        <time>2012-08-19T08:47:48Z</time>
      </trkpt>
      <trkpt lat="48.14279" lon="6.4097">
        <ele>418</ele>
        <time>2012-08-19T08:47:52Z</time>
      </trkpt>
      <trkpt lat="48.14275" lon="6.4094">
        <ele>419</ele>
        <time>2012-08-19T08:47:56Z</time>
      </trkpt>
      <trkpt lat="48.14281" lon="6.40936">
        <ele>419</ele>
        <time>2012-08-19T08:48:00Z</time>
      </trkpt>
      <trkpt lat="48.14285" lon="6.40961">
        <ele>419</ele>
        <time>2012-08-19T08:48:04Z</time>
      </trkpt>
      <trkpt lat="48.14286" lon="6.41">
        <ele>420</ele>
        <time>2012-08-19T08:48:09Z</time>
      </trkpt>
      <trkpt lat="48.1429" lon="6.41024">
        <ele>420</ele>
        <time>2012-08-19T08:48:13Z</time>
      </trkpt>
      <trkpt lat="48.14297" lon="6.41069">
        <ele>426</ele>
        <time>2012-08-19T08:48:17Z</time>
      </trkpt>
      <trkpt lat="48.14302" lon="6.41119">
        <ele>428</ele>
        <time>2012-08-19T08:48:22Z</time>
      </trkpt>
      <trkpt lat="48.14308" lon="6.41167">
        <ele>426</ele>
        <time>2012-08-19T08:48:26Z</time>
      </trkpt>
      <trkpt lat="48.14315" lon="6.41221">
        <ele>421</ele>
        <time>2012-08-19T08:48:30Z</time>
      </trkpt>
      <trkpt lat="48.14322" lon="6.41275">
        <ele>415</ele>
        <time>2012-08-19T08:48:35Z</time>
      </trkpt>
      <trkpt lat="48.14327" lon="6.41307">
        <ele>415</ele>
        <time>2012-08-19T08:48:39Z</time>
      </trkpt>
      <trkpt lat="48.1434" lon="6.41314">
        <ele>415</ele>
        <time>2012-08-19T08:48:44Z</time>
      </trkpt>
      <trkpt lat="48.14354" lon="6.41316">
        <ele>414</ele>
        <time>2012-08-19T08:48:48Z</time>
      </trkpt>
      <trkpt lat="48.1436" lon="6.4135">
        <ele>414</ele>
        <time>2012-08-19T08:48:53Z</time>
      </trkpt>
      <trkpt lat="48.14369" lon="6.41396">
        <ele>412</ele>
        <time>2012-08-19T08:48:58Z</time>
      </trkpt>
      <trkpt lat="48.14376" lon="6.41432">
        <ele>411</ele>
        <time>2012-08-19T08:49:02Z</time>
      </trkpt>
      <trkpt lat="48.14382" lon="6.41465">
        <ele>410</ele>
        <time>2012-08-19T08:49:06Z</time>
      </trkpt>
      <trkpt lat="48.1439" lon="6.41497">
        <ele>409</ele>
        <time>2012-08-19T08:49:10Z</time>
      </trkpt>
      <trkpt lat="48.14397" lon="6.41528">
        <ele>408</ele>
        <time>2012-08-19T08:49:14Z</time>
      </trkpt>
      <trkpt lat="48.14403" lon="6.41559">
        <ele>410</ele>
        <time>2012-08-19T08:49:18Z</time>
      </trkpt>
      <trkpt lat="48.1441" lon="6.41587">
        <ele>411</ele>
        <time>2012-08-19T08:49:22Z</time>
      </trkpt>
      <trkpt lat="48.14417" lon="6.41618">
        <ele>411</ele>
        <time>2012-08-19T08:49:26Z</time>
      </trkpt>
      <trkpt lat="48.14424" lon="6.41653">
        <ele>411</ele>
        <time>2012-08-19T08:49:30Z</time>
      </trkpt>
      <trkpt lat="48.14436" lon="6.41699">
        <ele>413</ele>
        <time>2012-08-19T08:49:35Z</time>
      </trkpt>
      <trkpt lat="48.14451" lon="6.41734">
        <ele>414</ele>
        <time>2012-08-19T08:49:39Z</time>
      </trkpt>
      <trkpt lat="48.14466" lon="6.41767">
        <ele>416</ele>
        <time>2012-08-19T08:49:43Z</time>
      </trkpt>
      <trkpt lat="48.14483" lon="6.41817">
        <ele>417</ele>
        <time>2012-08-19T08:49:48Z</time>
      </trkpt>
      <trkpt lat="48.14505" lon="6.41874">
        <ele>413</ele>
        <time>2012-08-19T08:49:53Z</time>
      </trkpt>
      <trkpt lat="48.14521" lon="6.41913">
        <ele>411</ele>
        <time>2012-08-19T08:49:57Z</time>
      </trkpt>
      <trkpt lat="48.14536" lon="6.41948">
        <ele>410</ele>
        <time>2012-08-19T08:50:01Z</time>
      </trkpt>
      <trkpt lat="48.14551" lon="6.41998">
        <ele>408</ele>
        <time>2012-08-19T08:50:06Z</time>
      </trkpt>
      <trkpt lat="48.14565" lon="6.42066">
        <ele>405</ele>
        <time>2012-08-19T08:50:11Z</time>
      </trkpt>
      <trkpt lat="48.14591" lon="6.42111">
        <ele>402</ele>
        <time>2012-08-19T08:50:15Z</time>
      </trkpt>
      <trkpt lat="48.14615" lon="6.42125">
        <ele>399</ele>
        <time>2012-08-19T08:50:19Z</time>
      </trkpt>
      <trkpt lat="48.14629" lon="6.4211">
        <ele>399</ele>
        <time>2012-08-19T08:50:23Z</time>
      </trkpt>
      <trkpt lat="48.14633" lon="6.42098">
        <ele>399</ele>
        <time>2012-08-19T08:50:27Z</time>
      </trkpt>
      <trkpt lat="48.14633" lon="6.42095">
        <ele>398</ele>
        <time>2012-08-19T08:50:35Z</time>
      </trkpt>
      <trkpt lat="48.14644" lon="6.42073">
        <ele>398</ele>
        <time>2012-08-19T08:50:39Z</time>
      </trkpt>
      <trkpt lat="48.14648" lon="6.42063">
        <ele>398</ele>
        <time>2012-08-19T08:50:44Z</time>
      </trkpt>
      <trkpt lat="48.14654" lon="6.42055">
        <ele>400</ele>
        <time>2012-08-19T08:50:51Z</time>
      </trkpt>
      <trkpt lat="48.14658" lon="6.42047">
        <ele>400</ele>
        <time>2012-08-19T08:50:58Z</time>
      </trkpt>
      <trkpt lat="48.14664" lon="6.42036">
        <ele>401</ele>
        <time>2012-08-19T08:51:03Z</time>
      </trkpt>
      <trkpt lat="48.14667" lon="6.42026">
        <ele>401</ele>
        <time>2012-08-19T08:51:08Z</time>
      </trkpt>
      <trkpt lat="48.14671" lon="6.42016">
        <ele>402</ele>
        <time>2012-08-19T08:51:12Z</time>
      </trkpt>
      <trkpt lat="48.14677" lon="6.42004">
        <ele>403</ele>
        <time>2012-08-19T08:51:17Z</time>
      </trkpt>
      <trkpt lat="48.14681" lon="6.41995">
        <ele>404</ele>
        <time>2012-08-19T08:51:21Z</time>
      </trkpt>
      <trkpt lat="48.14688" lon="6.41979">
        <ele>406</ele>
        <time>2012-08-19T08:51:26Z</time>
      </trkpt>
      <trkpt lat="48.14696" lon="6.41958">
        <ele>407</ele>
        <time>2012-08-19T08:51:30Z</time>
      </trkpt>
      <trkpt lat="48.14702" lon="6.4194">
        <ele>409</ele>
        <time>2012-08-19T08:51:34Z</time>
      </trkpt>
      <trkpt lat="48.14709" lon="6.41919">
        <ele>410</ele>
        <time>2012-08-19T08:51:38Z</time>
      </trkpt>
      <trkpt lat="48.14714" lon="6.41904">
        <ele>411</ele>
        <time>2012-08-19T08:51:42Z</time>
      </trkpt>
      <trkpt lat="48.1472" lon="6.41884">
        <ele>415</ele>
        <time>2012-08-19T08:51:46Z</time>
      </trkpt>
      <trkpt lat="48.14728" lon="6.41841">
        <ele>423</ele>
        <time>2012-08-19T08:51:51Z</time>
      </trkpt>
      <trkpt lat="48.14734" lon="6.41805">
        <ele>425</ele>
        <time>2012-08-19T08:51:55Z</time>
      </trkpt>
      <trkpt lat="48.1474" lon="6.41765">
        <ele>426</ele>
        <time>2012-08-19T08:52:00Z</time>
      </trkpt>
      <trkpt lat="48.14745" lon="6.41727">
        <ele>425</ele>
        <time>2012-08-19T08:52:05Z</time>
      </trkpt>
      <trkpt lat="48.14746" lon="6.41711">
        <ele>424</ele>
        <time>2012-08-19T08:52:09Z</time>
      </trkpt>
      <trkpt lat="48.1475" lon="6.41696">
        <ele>424</ele>
        <time>2012-08-19T08:52:13Z</time>
      </trkpt>
      <trkpt lat="48.14752" lon="6.41681">
        <ele>424</ele>
        <time>2012-08-19T08:52:17Z</time>
      </trkpt>
      <trkpt lat="48.14753" lon="6.41663">
        <ele>424</ele>
        <time>2012-08-19T08:52:21Z</time>
      </trkpt>
      <trkpt lat="48.14752" lon="6.4164">
        <ele>423</ele>
        <time>2012-08-19T08:52:25Z</time>
      </trkpt>
      <trkpt lat="48.14753" lon="6.41618">
        <ele>424</ele>
        <time>2012-08-19T08:52:29Z</time>
      </trkpt>
      <trkpt lat="48.14752" lon="6.41606">
        <ele>424</ele>
        <time>2012-08-19T08:52:33Z</time>
      </trkpt>
      <trkpt lat="48.14754" lon="6.41587">
        <ele>424</ele>
        <time>2012-08-19T08:52:37Z</time>
      </trkpt>
      <trkpt lat="48.14758" lon="6.41566">
        <ele>425</ele>
        <time>2012-08-19T08:52:41Z</time>
      </trkpt>
      <trkpt lat="48.1477" lon="6.4154">
        <ele>429</ele>
        <time>2012-08-19T08:52:46Z</time>
      </trkpt>
      <trkpt lat="48.14779" lon="6.41527">
        <ele>428</ele>
        <time>2012-08-19T08:52:50Z</time>
      </trkpt>
      <trkpt lat="48.14781" lon="6.4151">
        <ele>428</ele>
        <time>2012-08-19T08:52:54Z</time>
      </trkpt>
      <trkpt lat="48.14774" lon="6.41495">
        <ele>427</ele>
        <time>2012-08-19T08:52:58Z</time>
      </trkpt>
      <trkpt lat="48.14764" lon="6.41473">
        <ele>426</ele>
        <time>2012-08-19T08:53:02Z</time>
      </trkpt>
      <trkpt lat="48.1476" lon="6.41451">
        <ele>423</ele>
        <time>2012-08-19T08:53:07Z</time>
      </trkpt>
      <trkpt lat="48.14758" lon="6.41432">
        <ele>422</ele>
        <time>2012-08-19T08:53:11Z</time>
      </trkpt>
      <trkpt lat="48.14756" lon="6.41413">
        <ele>422</ele>
        <time>2012-08-19T08:53:15Z</time>
      </trkpt>
      <trkpt lat="48.14755" lon="6.41398">
        <ele>423</ele>
        <time>2012-08-19T08:53:19Z</time>
      </trkpt>
      <trkpt lat="48.14756" lon="6.41389">
        <ele>423</ele>
        <time>2012-08-19T08:53:24Z</time>
      </trkpt>
      <trkpt lat="48.14756" lon="6.41373">
        <ele>423</ele>
        <time>2012-08-19T08:53:28Z</time>
      </trkpt>
      <trkpt lat="48.14755" lon="6.41358">
        <ele>424</ele>
        <time>2012-08-19T08:53:32Z</time>
      </trkpt>
      <trkpt lat="48.14755" lon="6.41342">
        <ele>425</ele>
        <time>2012-08-19T08:53:37Z</time>
      </trkpt>
      <trkpt lat="48.14755" lon="6.41322">
        <ele>427</ele>
        <time>2012-08-19T08:53:42Z</time>
      </trkpt>
      <trkpt lat="48.14757" lon="6.4131">
        <ele>428</ele>
        <time>2012-08-19T08:53:46Z</time>
      </trkpt>
      <trkpt lat="48.14756" lon="6.41297">
        <ele>429</ele>
        <time>2012-08-19T08:53:50Z</time>
      </trkpt>
      <trkpt lat="48.14751" lon="6.4128">
        <ele>430</ele>
        <time>2012-08-19T08:53:54Z</time>
      </trkpt>
      <trkpt lat="48.14745" lon="6.41271">
        <ele>431</ele>
        <time>2012-08-19T08:53:58Z</time>
      </trkpt>
      <trkpt lat="48.14742" lon="6.41249">
        <ele>432</ele>
        <time>2012-08-19T08:54:02Z</time>
      </trkpt>
      <trkpt lat="48.14739" lon="6.41237">
        <ele>433</ele>
        <time>2012-08-19T08:54:06Z</time>
      </trkpt>
      <trkpt lat="48.14738" lon="6.41225">
        <ele>435</ele>
        <time>2012-08-19T08:54:16Z</time>
      </trkpt>
      <trkpt lat="48.14737" lon="6.41201">
        <ele>435</ele>
        <time>2012-08-19T08:54:20Z</time>
      </trkpt>
      <trkpt lat="48.14736" lon="6.41192">
        <ele>435</ele>
        <time>2012-08-19T08:54:26Z</time>
      </trkpt>
      <trkpt lat="48.14735" lon="6.41185">
        <ele>435</ele>
        <time>2012-08-19T08:54:32Z</time>
      </trkpt>
      <trkpt lat="48.14733" lon="6.41175">
        <ele>435</ele>
        <time>2012-08-19T08:54:39Z</time>
      </trkpt>
      <trkpt lat="48.14732" lon="6.41165">
        <ele>436</ele>
        <time>2012-08-19T08:54:48Z</time>
      </trkpt>
      <trkpt lat="48.14727" lon="6.41145">
        <ele>437</ele>
        <time>2012-08-19T08:54:53Z</time>
      </trkpt>
      <trkpt lat="48.14725" lon="6.41136">
        <ele>439</ele>
        <time>2012-08-19T08:55:03Z</time>
      </trkpt>
      <trkpt lat="48.14721" lon="6.41118">
        <ele>440</ele>
        <time>2012-08-19T08:55:08Z</time>
      </trkpt>
      <trkpt lat="48.14721" lon="6.41106">
        <ele>442</ele>
        <time>2012-08-19T08:55:13Z</time>
      </trkpt>
      <trkpt lat="48.14721" lon="6.41093">
        <ele>444</ele>
        <time>2012-08-19T08:55:22Z</time>
      </trkpt>
      <trkpt lat="48.1472" lon="6.41081">
        <ele>445</ele>
        <time>2012-08-19T08:55:27Z</time>
      </trkpt>
      <trkpt lat="48.14718" lon="6.4107">
        <ele>447</ele>
        <time>2012-08-19T08:55:35Z</time>
      </trkpt>
      <trkpt lat="48.14715" lon="6.41054">
        <ele>447</ele>
        <time>2012-08-19T08:55:39Z</time>
      </trkpt>
      <trkpt lat="48.14713" lon="6.41032">
        <ele>448</ele>
        <time>2012-08-19T08:55:44Z</time>
      </trkpt>
      <trkpt lat="48.14715" lon="6.41006">
        <ele>448</ele>
        <time>2012-08-19T08:55:48Z</time>
      </trkpt>
      <trkpt lat="48.14715" lon="6.40987">
        <ele>449</ele>
        <time>2012-08-19T08:55:52Z</time>
      </trkpt>
      <trkpt lat="48.14719" lon="6.40972">
        <ele>449</ele>
        <time>2012-08-19T08:55:56Z</time>
      </trkpt>
      <trkpt lat="48.14725" lon="6.40956">
        <ele>449</ele>
        <time>2012-08-19T08:56:00Z</time>
      </trkpt>
      <trkpt lat="48.14729" lon="6.40941">
        <ele>449</ele>
        <time>2012-08-19T08:56:04Z</time>
      </trkpt>
      <trkpt lat="48.14733" lon="6.4093">
        <ele>450</ele>
        <time>2012-08-19T08:56:09Z</time>
      </trkpt>
      <trkpt lat="48.14737" lon="6.40919">
        <ele>450</ele>
        <time>2012-08-19T08:56:13Z</time>
      </trkpt>
      <trkpt lat="48.14742" lon="6.40911">
        <ele>451</ele>
        <time>2012-08-19T08:56:17Z</time>
      </trkpt>
      <trkpt lat="48.14747" lon="6.40899">
        <ele>451</ele>
        <time>2012-08-19T08:56:21Z</time>
      </trkpt>
      <trkpt lat="48.14744" lon="6.40888">
        <ele>451</ele>
        <time>2012-08-19T08:56:25Z</time>
      </trkpt>
      <trkpt lat="48.14729" lon="6.40883">
        <ele>451</ele>
        <time>2012-08-19T08:56:30Z</time>
      </trkpt>
      <trkpt lat="48.14718" lon="6.40883">
        <ele>452</ele>
        <time>2012-08-19T08:56:34Z</time>
      </trkpt>
      <trkpt lat="48.14709" lon="6.40887">
        <ele>452</ele>
        <time>2012-08-19T08:56:38Z</time>
      </trkpt>
      <trkpt lat="48.14696" lon="6.40896">
        <ele>454</ele>
        <time>2012-08-19T08:56:43Z</time>
      </trkpt>
      <trkpt lat="48.14687" lon="6.40904">
        <ele>455</ele>
        <time>2012-08-19T08:56:47Z</time>
      </trkpt>
      <trkpt lat="48.14673" lon="6.4091">
        <ele>455</ele>
        <time>2012-08-19T08:56:52Z</time>
      </trkpt>
      <trkpt lat="48.14663" lon="6.40908">
        <ele>456</ele>
        <time>2012-08-19T08:56:56Z</time>
      </trkpt>
      <trkpt lat="48.1465" lon="6.40899">
        <ele>456</ele>
        <time>2012-08-19T08:57:01Z</time>
      </trkpt>
      <trkpt lat="48.1464" lon="6.4089">
        <ele>456</ele>
        <time>2012-08-19T08:57:05Z</time>
      </trkpt>
      <trkpt lat="48.14632" lon="6.40879">
        <ele>456</ele>
        <time>2012-08-19T08:57:09Z</time>
      </trkpt>
      <trkpt lat="48.14628" lon="6.40859">
        <ele>456</ele>
        <time>2012-08-19T08:57:13Z</time>
      </trkpt>
      <trkpt lat="48.14632" lon="6.40841">
        <ele>456</ele>
        <time>2012-08-19T08:57:17Z</time>
      </trkpt>
      <trkpt lat="48.14644" lon="6.40818">
        <ele>455</ele>
        <time>2012-08-19T08:57:22Z</time>
      </trkpt>
      <trkpt lat="48.14657" lon="6.40803">
        <ele>455</ele>
        <time>2012-08-19T08:57:26Z</time>
      </trkpt>
      <trkpt lat="48.14666" lon="6.4078">
        <ele>454</ele>
        <time>2012-08-19T08:57:31Z</time>
      </trkpt>
      <trkpt lat="48.14667" lon="6.40764">
        <ele>455</ele>
        <time>2012-08-19T08:57:35Z</time>
      </trkpt>
      <trkpt lat="48.14671" lon="6.40753">
        <ele>456</ele>
        <time>2012-08-19T08:57:40Z</time>
      </trkpt>
      <trkpt lat="48.14671" lon="6.40733">
        <ele>456</ele>
        <time>2012-08-19T08:57:44Z</time>
      </trkpt>
      <trkpt lat="48.14668" lon="6.40713">
        <ele>457</ele>
        <time>2012-08-19T08:57:48Z</time>
      </trkpt>
      <trkpt lat="48.14668" lon="6.40693">
        <ele>457</ele>
        <time>2012-08-19T08:57:52Z</time>
      </trkpt>
      <trkpt lat="48.14663" lon="6.40683">
        <ele>457</ele>
        <time>2012-08-19T08:58:04Z</time>
      </trkpt>
      <trkpt lat="48.14662" lon="6.40668">
        <ele>457</ele>
        <time>2012-08-19T08:58:08Z</time>
      </trkpt>
      <trkpt lat="48.14664" lon="6.40644">
        <ele>458</ele>
        <time>2012-08-19T08:58:12Z</time>
      </trkpt>
      <trkpt lat="48.14666" lon="6.40622">
        <ele>458</ele>
        <time>2012-08-19T08:58:16Z</time>
      </trkpt>
      <trkpt lat="48.14667" lon="6.40603">
        <ele>459</ele>
        <time>2012-08-19T08:58:20Z</time>
      </trkpt>
      <trkpt lat="48.14668" lon="6.40575">
        <ele>459</ele>
        <time>2012-08-19T08:58:24Z</time>
      </trkpt>
      <trkpt lat="48.1467" lon="6.40548">
        <ele>461</ele>
        <time>2012-08-19T08:58:28Z</time>
      </trkpt>
      <trkpt lat="48.14666" lon="6.40529">
        <ele>461</ele>
        <time>2012-08-19T08:58:32Z</time>
      </trkpt>
      <trkpt lat="48.1467" lon="6.4051">
        <ele>462</ele>
        <time>2012-08-19T08:58:36Z</time>
      </trkpt>
      <trkpt lat="48.14674" lon="6.40491">
        <ele>464</ele>
        <time>2012-08-19T08:58:40Z</time>
      </trkpt>
      <trkpt lat="48.14678" lon="6.40471">
        <ele>464</ele>
        <time>2012-08-19T08:58:44Z</time>
      </trkpt>
      <trkpt lat="48.14682" lon="6.40448">
        <ele>463</ele>
        <time>2012-08-19T08:58:48Z</time>
      </trkpt>
      <trkpt lat="48.14693" lon="6.40424">
        <ele>463</ele>
        <time>2012-08-19T08:58:53Z</time>
      </trkpt>
      <trkpt lat="48.14703" lon="6.40409">
        <ele>462</ele>
        <time>2012-08-19T08:58:58Z</time>
      </trkpt>
      <trkpt lat="48.1472" lon="6.40393">
        <ele>458</ele>
        <time>2012-08-19T08:59:02Z</time>
      </trkpt>
      <trkpt lat="48.14754" lon="6.4037">
        <ele>456</ele>
        <time>2012-08-19T08:59:07Z</time>
      </trkpt>
      <trkpt lat="48.14774" lon="6.40361">
        <ele>454</ele>
        <time>2012-08-19T08:59:12Z</time>
      </trkpt>
      <trkpt lat="48.14793" lon="6.4035">
        <ele>452</ele>
        <time>2012-08-19T08:59:16Z</time>
      </trkpt>
      <trkpt lat="48.14818" lon="6.40337">
        <ele>451</ele>
        <time>2012-08-19T08:59:20Z</time>
      </trkpt>
      <trkpt lat="48.14852" lon="6.40301">
        <ele>449</ele>
        <time>2012-08-19T08:59:25Z</time>
      </trkpt>
      <trkpt lat="48.14868" lon="6.40285">
        <ele>448</ele>
        <time>2012-08-19T08:59:29Z</time>
      </trkpt>
      <trkpt lat="48.14876" lon="6.40292">
        <ele>448</ele>
        <time>2012-08-19T09:04:28Z</time>
      </trkpt>
      <trkpt lat="48.14883" lon="6.40297">
        <ele>448</ele>
        <time>2012-08-19T09:05:00Z</time>
      </trkpt>
      <trkpt lat="48.14875" lon="6.403">
        <ele>448</ele>
        <time>2012-08-19T09:06:30Z</time>
      </trkpt>
      <trkpt lat="48.14868" lon="6.40308">
        <ele>447</ele>
        <time>2012-08-19T09:11:29Z</time>
      </trkpt>
      <trkpt lat="48.14856" lon="6.40334">
        <ele>447</ele>
        <time>2012-08-19T09:11:34Z</time>
      </trkpt>
      <trkpt lat="48.14849" lon="6.40346">
        <ele>448</ele>
        <time>2012-08-19T09:11:38Z</time>
      </trkpt>
      <trkpt lat="48.14842" lon="6.40356">
        <ele>449</ele>
        <time>2012-08-19T09:11:42Z</time>
      </trkpt>
      <trkpt lat="48.14838" lon="6.4037">
        <ele>449</ele>
        <time>2012-08-19T09:11:47Z</time>
      </trkpt>
      <trkpt lat="48.14842" lon="6.40381">
        <ele>450</ele>
        <time>2012-08-19T09:11:52Z</time>
      </trkpt>
      <trkpt lat="48.14848" lon="6.4039">
        <ele>451</ele>
        <time>2012-08-19T09:11:57Z</time>
      </trkpt>
      <trkpt lat="48.14855" lon="6.40396">
        <ele>452</ele>
        <time>2012-08-19T09:12:01Z</time>
      </trkpt>
      <trkpt lat="48.14865" lon="6.40405">
        <ele>453</ele>
        <time>2012-08-19T09:12:06Z</time>
      </trkpt>
      <trkpt lat="48.14873" lon="6.40413">
        <ele>454</ele>
        <time>2012-08-19T09:12:10Z</time>
      </trkpt>
      <trkpt lat="48.14882" lon="6.40424">
        <ele>455</ele>
        <time>2012-08-19T09:12:14Z</time>
      </trkpt>
      <trkpt lat="48.1489" lon="6.40435">
        <ele>456</ele>
        <time>2012-08-19T09:12:18Z</time>
      </trkpt>
      <trkpt lat="48.14897" lon="6.40449">
        <ele>456</ele>
        <time>2012-08-19T09:12:22Z</time>
      </trkpt>
      <trkpt lat="48.14901" lon="6.40461">
        <ele>457</ele>
        <time>2012-08-19T09:12:26Z</time>
      </trkpt>
      <trkpt lat="48.14912" lon="6.40477">
        <ele>458</ele>
        <time>2012-08-19T09:12:31Z</time>
      </trkpt>
      <trkpt lat="48.14928" lon="6.40485">
        <ele>458</ele>
        <time>2012-08-19T09:12:35Z</time>
      </trkpt>
      <trkpt lat="48.1494" lon="6.40498">
        <ele>459</ele>
        <time>2012-08-19T09:12:39Z</time>
      </trkpt>
      <trkpt lat="48.1495" lon="6.40519">
        <ele>460</ele>
        <time>2012-08-19T09:12:44Z</time>
      </trkpt>
      <trkpt lat="48.14951" lon="6.40534">
        <ele>460</ele>
        <time>2012-08-19T09:12:49Z</time>
      </trkpt>
      <trkpt lat="48.14956" lon="6.40544">
        <ele>461</ele>
        <time>2012-08-19T09:12:53Z</time>
      </trkpt>
      <trkpt lat="48.14962" lon="6.40557">
        <ele>462</ele>
        <time>2012-08-19T09:12:58Z</time>
      </trkpt>
      <trkpt lat="48.14965" lon="6.40567">
        <ele>463</ele>
        <time>2012-08-19T09:13:02Z</time>
      </trkpt>
      <trkpt lat="48.1497" lon="6.40578">
        <ele>464</ele>
        <time>2012-08-19T09:13:07Z</time>
      </trkpt>
      <trkpt lat="48.14973" lon="6.40591">
        <ele>465</ele>
        <time>2012-08-19T09:13:12Z</time>
      </trkpt>
      <trkpt lat="48.14976" lon="6.40603">
        <ele>466</ele>
        <time>2012-08-19T09:13:17Z</time>
      </trkpt>
      <trkpt lat="48.1498" lon="6.40616">
        <ele>468</ele>
        <time>2012-08-19T09:13:22Z</time>
      </trkpt>
      <trkpt lat="48.14983" lon="6.40626">
        <ele>469</ele>
        <time>2012-08-19T09:13:26Z</time>
      </trkpt>
      <trkpt lat="48.14989" lon="6.40641">
        <ele>470</ele>
        <time>2012-08-19T09:13:30Z</time>
      </trkpt>
      <trkpt lat="48.14997" lon="6.40653">
        <ele>471</ele>
        <time>2012-08-19T09:13:34Z</time>
      </trkpt>
      <trkpt lat="48.15004" lon="6.40666">
        <ele>472</ele>
        <time>2012-08-19T09:13:38Z</time>
      </trkpt>
      <trkpt lat="48.15011" lon="6.40678">
        <ele>474</ele>
        <time>2012-08-19T09:13:43Z</time>
      </trkpt>
      <trkpt lat="48.15014" lon="6.40688">
        <ele>475</ele>
        <time>2012-08-19T09:13:47Z</time>
      </trkpt>
      <trkpt lat="48.15017" lon="6.407">
        <ele>476</ele>
        <time>2012-08-19T09:13:52Z</time>
      </trkpt>
      <trkpt lat="48.15022" lon="6.40709">
        <ele>476</ele>
        <time>2012-08-19T09:13:57Z</time>
      </trkpt>
      <trkpt lat="48.15028" lon="6.40715">
        <ele>478</ele>
        <time>2012-08-19T09:14:02Z</time>
      </trkpt>
      <trkpt lat="48.15034" lon="6.40724">
        <ele>479</ele>
        <time>2012-08-19T09:14:06Z</time>
      </trkpt>
      <trkpt lat="48.15044" lon="6.40741">
        <ele>479</ele>
        <time>2012-08-19T09:14:10Z</time>
      </trkpt>
      <trkpt lat="48.15051" lon="6.40759">
        <ele>480</ele>
        <time>2012-08-19T09:14:14Z</time>
      </trkpt>
      <trkpt lat="48.1506" lon="6.40778">
        <ele>481</ele>
        <time>2012-08-19T09:14:19Z</time>
      </trkpt>
      <trkpt lat="48.15068" lon="6.40791">
        <ele>481</ele>
        <time>2012-08-19T09:14:23Z</time>
      </trkpt>
      <trkpt lat="48.15076" lon="6.40809">
        <ele>482</ele>
        <time>2012-08-19T09:14:27Z</time>
      </trkpt>
      <trkpt lat="48.15087" lon="6.4082">
        <ele>482</ele>
        <time>2012-08-19T09:14:31Z</time>
      </trkpt>
      <trkpt lat="48.15097" lon="6.40831">
        <ele>482</ele>
        <time>2012-08-19T09:14:35Z</time>
      </trkpt>
      <trkpt lat="48.15112" lon="6.40836">
        <ele>482</ele>
        <time>2012-08-19T09:14:40Z</time>
      </trkpt>
      <trkpt lat="48.15128" lon="6.40844">
        <ele>483</ele>
        <time>2012-08-19T09:14:44Z</time>
      </trkpt>
      <trkpt lat="48.15139" lon="6.40862">
        <ele>483</ele>
        <time>2012-08-19T09:14:49Z</time>
      </trkpt>
      <trkpt lat="48.15145" lon="6.4088">
        <ele>483</ele>
        <time>2012-08-19T09:14:53Z</time>
      </trkpt>
      <trkpt lat="48.1515" lon="6.40903">
        <ele>483</ele>
        <time>2012-08-19T09:14:58Z</time>
      </trkpt>
      <trkpt lat="48.15156" lon="6.40918">
        <ele>483</ele>
        <time>2012-08-19T09:15:02Z</time>
      </trkpt>
      <trkpt lat="48.15161" lon="6.4094">
        <ele>482</ele>
        <time>2012-08-19T09:15:07Z</time>
      </trkpt>
      <trkpt lat="48.15161" lon="6.40959">
        <ele>482</ele>
        <time>2012-08-19T09:15:11Z</time>
      </trkpt>
      <trkpt lat="48.15158" lon="6.40985">
        <ele>482</ele>
        <time>2012-08-19T09:15:16Z</time>
      </trkpt>
      <trkpt lat="48.15159" lon="6.41014">
        <ele>482</ele>
        <time>2012-08-19T09:15:21Z</time>
      </trkpt>
      <trkpt lat="48.1516" lon="6.41038">
        <ele>482</ele>
        <time>2012-08-19T09:15:25Z</time>
      </trkpt>
      <trkpt lat="48.15174" lon="6.41069">
        <ele>483</ele>
        <time>2012-08-19T09:15:30Z</time>
      </trkpt>
      <trkpt lat="48.15182" lon="6.4109">
        <ele>483</ele>
        <time>2012-08-19T09:15:34Z</time>
      </trkpt>
      <trkpt lat="48.15197" lon="6.41106">
        <ele>484</ele>
        <time>2012-08-19T09:15:39Z</time>
      </trkpt>
      <trkpt lat="48.15211" lon="6.41119">
        <ele>485</ele>
        <time>2012-08-19T09:15:43Z</time>
      </trkpt>
      <trkpt lat="48.15226" lon="6.41141">
        <ele>486</ele>
        <time>2012-08-19T09:15:48Z</time>
      </trkpt>
      <trkpt lat="48.15239" lon="6.41165">
        <ele>487</ele>
        <time>2012-08-19T09:15:52Z</time>
      </trkpt>
      <trkpt lat="48.15255" lon="6.41196">
        <ele>490</ele>
        <time>2012-08-19T09:15:57Z</time>
      </trkpt>
      <trkpt lat="48.15264" lon="6.41217">
        <ele>490</ele>
        <time>2012-08-19T09:16:01Z</time>
      </trkpt>
      <trkpt lat="48.15273" lon="6.4124">
        <ele>491</ele>
        <time>2012-08-19T09:16:05Z</time>
      </trkpt>
      <trkpt lat="48.15267" lon="6.41264">
        <ele>492</ele>
        <time>2012-08-19T09:16:09Z</time>
      </trkpt>
      <trkpt lat="48.15254" lon="6.41302">
        <ele>488</ele>
        <time>2012-08-19T09:16:14Z</time>
      </trkpt>
      <trkpt lat="48.15267" lon="6.41341">
        <ele>486</ele>
        <time>2012-08-19T09:16:19Z</time>
      </trkpt>
      <trkpt lat="48.1528" lon="6.41377">
        <ele>486</ele>
        <time>2012-08-19T09:16:23Z</time>
      </trkpt>
      <trkpt lat="48.15299" lon="6.41417">
        <ele>485</ele>
        <time>2012-08-19T09:16:28Z</time>
      </trkpt>
      <trkpt lat="48.15312" lon="6.41443">
        <ele>486</ele>
        <time>2012-08-19T09:16:32Z</time>
      </trkpt>
      <trkpt lat="48.15327" lon="6.41473">
        <ele>487</ele>
        <time>2012-08-19T09:16:37Z</time>
      </trkpt>
      <trkpt lat="48.1534" lon="6.41485">
        <ele>488</ele>
        <time>2012-08-19T09:16:41Z</time>
      </trkpt>
      <trkpt lat="48.15349" lon="6.41471">
        <ele>487</ele>
        <time>2012-08-19T09:16:46Z</time>
      </trkpt>
      <trkpt lat="48.15369" lon="6.41492">
        <ele>490</ele>
        <time>2012-08-19T09:16:50Z</time>
      </trkpt>
      <trkpt lat="48.15386" lon="6.41526">
        <ele>491</ele>
        <time>2012-08-19T09:16:55Z</time>
      </trkpt>
      <trkpt lat="48.154" lon="6.41559">
        <ele>490</ele>
        <time>2012-08-19T09:16:59Z</time>
      </trkpt>
      <trkpt lat="48.15422" lon="6.41594">
        <ele>492</ele>
        <time>2012-08-19T09:17:03Z</time>
      </trkpt>
      <trkpt lat="48.15436" lon="6.41646">
        <ele>492</ele>
        <time>2012-08-19T09:17:08Z</time>
      </trkpt>
      <trkpt lat="48.15454" lon="6.41699">
        <ele>490</ele>
        <time>2012-08-19T09:17:13Z</time>
      </trkpt>
      <trkpt lat="48.1547" lon="6.41734">
        <ele>489</ele>
        <time>2012-08-19T09:17:17Z</time>
      </trkpt>
      <trkpt lat="48.15486" lon="6.41772">
        <ele>490</ele>
        <time>2012-08-19T09:17:21Z</time>
      </trkpt>
      <trkpt lat="48.15514" lon="6.4182">
        <ele>486</ele>
        <time>2012-08-19T09:17:26Z</time>
      </trkpt>
      <trkpt lat="48.15539" lon="6.41873">
        <ele>482</ele>
        <time>2012-08-19T09:17:31Z</time>
      </trkpt>
      <trkpt lat="48.15557" lon="6.41928">
        <ele>479</ele>
        <time>2012-08-19T09:17:36Z</time>
      </trkpt>
      <trkpt lat="48.1557" lon="6.41963">
        <ele>478</ele>
        <time>2012-08-19T09:17:40Z</time>
      </trkpt>
      <trkpt lat="48.15582" lon="6.42003">
        <ele>477</ele>
        <time>2012-08-19T09:17:44Z</time>
      </trkpt>
      <trkpt lat="48.15598" lon="6.42038">
        <ele>476</ele>
        <time>2012-08-19T09:17:48Z</time>
      </trkpt>
      <trkpt lat="48.15619" lon="6.42074">
        <ele>476</ele>
        <time>2012-08-19T09:17:53Z</time>
      </trkpt>
      <trkpt lat="48.15621" lon="6.4211">
        <ele>475</ele>
        <time>2012-08-19T09:17:57Z</time>
      </trkpt>
      <trkpt lat="48.15623" lon="6.42145">
        <ele>475</ele>
        <time>2012-08-19T09:18:01Z</time>
      </trkpt>
      <trkpt lat="48.15641" lon="6.42193">
        <ele>471</ele>
        <time>2012-08-19T09:18:05Z</time>
      </trkpt>
      <trkpt lat="48.1567" lon="6.42241">
        <ele>468</ele>
        <time>2012-08-19T09:18:10Z</time>
      </trkpt>
      <trkpt lat="48.15686" lon="6.42267">
        <ele>467</ele>
        <time>2012-08-19T09:18:14Z</time>
      </trkpt>
      <trkpt lat="48.15704" lon="6.42299">
        <ele>468</ele>
        <time>2012-08-19T09:18:19Z</time>
      </trkpt>
      <trkpt lat="48.15725" lon="6.42334">
        <ele>471</ele>
        <time>2012-08-19T09:18:24Z</time>
      </trkpt>
      <trkpt lat="48.1574" lon="6.42363">
        <ele>472</ele>
        <time>2012-08-19T09:18:28Z</time>
      </trkpt>
      <trkpt lat="48.15756" lon="6.42395">
        <ele>472</ele>
        <time>2012-08-19T09:18:33Z</time>
      </trkpt>
      <trkpt lat="48.15774" lon="6.42426">
        <ele>467</ele>
        <time>2012-08-19T09:18:38Z</time>
      </trkpt>
      <trkpt lat="48.15795" lon="6.42456">
        <ele>464</ele>
        <time>2012-08-19T09:18:42Z</time>
      </trkpt>
      <trkpt lat="48.15819" lon="6.42495">
        <ele>459</ele>
        <time>2012-08-19T09:18:47Z</time>
      </trkpt>
      <trkpt lat="48.1585" lon="6.42532">
        <ele>454</ele>
        <time>2012-08-19T09:18:52Z</time>
      </trkpt>
      <trkpt lat="48.15874" lon="6.42552">
        <ele>452</ele>
        <time>2012-08-19T09:18:56Z</time>
      </trkpt>
      <trkpt lat="48.15894" lon="6.42538">
        <ele>452</ele>
        <time>2012-08-19T09:19:01Z</time>
      </trkpt>
      <trkpt lat="48.15906" lon="6.4249">
        <ele>450</ele>
        <time>2012-08-19T09:19:06Z</time>
      </trkpt>
      <trkpt lat="48.15912" lon="6.42472">
        <ele>450</ele>
        <time>2012-08-19T09:19:10Z</time>
      </trkpt>
      <trkpt lat="48.15919" lon="6.4247">
        <ele>450</ele>
        <time>2012-08-19T09:19:14Z</time>
      </trkpt>
      <trkpt lat="48.15933" lon="6.4247">
        <ele>450</ele>
        <time>2012-08-19T09:19:18Z</time>
      </trkpt>
      <trkpt lat="48.15944" lon="6.42451">
        <ele>451</ele>
        <time>2012-08-19T09:19:23Z</time>
      </trkpt>
      <trkpt lat="48.15952" lon="6.42433">
        <ele>452</ele>
        <time>2012-08-19T09:19:27Z</time>
      </trkpt>
      <trkpt lat="48.15963" lon="6.42402">
        <ele>452</ele>
        <time>2012-08-19T09:19:32Z</time>
      </trkpt>
      <trkpt lat="48.15972" lon="6.42381">
        <ele>453</ele>
        <time>2012-08-19T09:19:36Z</time>
      </trkpt>
      <trkpt lat="48.15986" lon="6.42354">
        <ele>457</ele>
        <time>2012-08-19T09:19:41Z</time>
      </trkpt>
      <trkpt lat="48.15999" lon="6.42336">
        <ele>457</ele>
        <time>2012-08-19T09:19:45Z</time>
      </trkpt>
      <trkpt lat="48.16007" lon="6.42325">
        <ele>457</ele>
        <time>2012-08-19T09:19:49Z</time>
      </trkpt>
      <trkpt lat="48.16016" lon="6.42316">
        <ele>458</ele>
        <time>2012-08-19T09:19:53Z</time>
      </trkpt>
      <trkpt lat="48.16023" lon="6.42299">
        <ele>458</ele>
        <time>2012-08-19T09:19:57Z</time>
      </trkpt>
      <trkpt lat="48.16026" lon="6.42279">
        <ele>458</ele>
        <time>2012-08-19T09:20:01Z</time>
      </trkpt>
      <trkpt lat="48.16038" lon="6.42258">
        <ele>458</ele>
        <time>2012-08-19T09:20:05Z</time>
      </trkpt>
      <trkpt lat="48.16055" lon="6.42233">
        <ele>458</ele>
        <time>2012-08-19T09:20:10Z</time>
      </trkpt>
      <trkpt lat="48.16069" lon="6.42211">
        <ele>458</ele>
        <time>2012-08-19T09:20:14Z</time>
      </trkpt>
      <trkpt lat="48.16085" lon="6.42185">
        <ele>461</ele>
        <time>2012-08-19T09:20:19Z</time>
      </trkpt>
      <trkpt lat="48.16098" lon="6.42159">
        <ele>463</ele>
        <time>2012-08-19T09:20:23Z</time>
      </trkpt>
      <trkpt lat="48.16111" lon="6.42128">
        <ele>463</ele>
        <time>2012-08-19T09:20:27Z</time>
      </trkpt>
      <trkpt lat="48.16129" lon="6.42082">
        <ele>459</ele>
        <time>2012-08-19T09:20:32Z</time>
      </trkpt>
      <trkpt lat="48.16146" lon="6.42039">
        <ele>458</ele>
        <time>2012-08-19T09:20:37Z</time>
      </trkpt>
      <trkpt lat="48.16157" lon="6.42013">
        <ele>458</ele>
        <time>2012-08-19T09:20:41Z</time>
      </trkpt>
      <trkpt lat="48.16167" lon="6.41987">
        <ele>460</ele>
        <time>2012-08-19T09:20:45Z</time>
      </trkpt>
      <trkpt lat="48.16185" lon="6.41943">
        <ele>462</ele>
        <time>2012-08-19T09:20:50Z</time>
      </trkpt>
      <trkpt lat="48.162" lon="6.4191">
        <ele>464</ele>
        <time>2012-08-19T09:20:54Z</time>
      </trkpt>
      <trkpt lat="48.16216" lon="6.41871">
        <ele>467</ele>
        <time>2012-08-19T09:20:59Z</time>
      </trkpt>
      <trkpt lat="48.16226" lon="6.41843">
        <ele>469</ele>
        <time>2012-08-19T09:21:03Z</time>
      </trkpt>
      <trkpt lat="48.16236" lon="6.41814">
        <ele>471</ele>
        <time>2012-08-19T09:21:07Z</time>
      </trkpt>
      <trkpt lat="48.16259" lon="6.41801">
        <ele>474</ele>
        <time>2012-08-19T09:21:12Z</time>
      </trkpt>
      <trkpt lat="48.16284" lon="6.41792">
        <ele>474</ele>
        <time>2012-08-19T09:21:16Z</time>
      </trkpt>
      <trkpt lat="48.16315" lon="6.41779">
        <ele>470</ele>
        <time>2012-08-19T09:21:21Z</time>
      </trkpt>
      <trkpt lat="48.16338" lon="6.41768">
        <ele>468</ele>
        <time>2012-08-19T09:21:25Z</time>
      </trkpt>
      <trkpt lat="48.1636" lon="6.41768">
        <ele>467</ele>
        <time>2012-08-19T09:21:30Z</time>
      </trkpt>
      <trkpt lat="48.16351" lon="6.41799">
        <ele>466</ele>
        <time>2012-08-19T09:21:35Z</time>
      </trkpt>
      <trkpt lat="48.16338" lon="6.4182">
        <ele>463</ele>
        <time>2012-08-19T09:21:39Z</time>
      </trkpt>
      <trkpt lat="48.16328" lon="6.41843">
        <ele>463</ele>
        <time>2012-08-19T09:21:43Z</time>
      </trkpt>
      <trkpt lat="48.16316" lon="6.4187">
        <ele>463</ele>
        <time>2012-08-19T09:21:47Z</time>
      </trkpt>
      <trkpt lat="48.163" lon="6.41907">
        <ele>463</ele>
        <time>2012-08-19T09:21:52Z</time>
      </trkpt>
      <trkpt lat="48.16295" lon="6.41947">
        <ele>463</ele>
        <time>2012-08-19T09:21:57Z</time>
      </trkpt>
      <trkpt lat="48.16291" lon="6.41989">
        <ele>463</ele>
        <time>2012-08-19T09:22:01Z</time>
      </trkpt>
      <trkpt lat="48.16287" lon="6.42029">
        <ele>463</ele>
        <time>2012-08-19T09:22:05Z</time>
      </trkpt>
      <trkpt lat="48.16285" lon="6.4208">
        <ele>462</ele>
        <time>2012-08-19T09:22:10Z</time>
      </trkpt>
      <trkpt lat="48.16288" lon="6.42118">
        <ele>463</ele>
        <time>2012-08-19T09:22:14Z</time>
      </trkpt>
      <trkpt lat="48.16289" lon="6.42157">
        <ele>462</ele>
        <time>2012-08-19T09:22:18Z</time>
      </trkpt>
      <trkpt lat="48.16272" lon="6.42187">
        <ele>461</ele>
        <time>2012-08-19T09:22:23Z</time>
      </trkpt>
      <trkpt lat="48.16241" lon="6.4222">
        <ele>462</ele>
        <time>2012-08-19T09:22:28Z</time>
      </trkpt>
      <trkpt lat="48.1622" lon="6.42257">
        <ele>462</ele>
        <time>2012-08-19T09:22:32Z</time>
      </trkpt>
      <trkpt lat="48.16203" lon="6.42287">
        <ele>461</ele>
        <time>2012-08-19T09:22:36Z</time>
      </trkpt>
      <trkpt lat="48.16185" lon="6.42321">
        <ele>462</ele>
        <time>2012-08-19T09:22:41Z</time>
      </trkpt>
      <trkpt lat="48.16171" lon="6.42348">
        <ele>458</ele>
        <time>2012-08-19T09:22:45Z</time>
      </trkpt>
      <trkpt lat="48.16159" lon="6.42377">
        <ele>459</ele>
        <time>2012-08-19T09:22:49Z</time>
      </trkpt>
      <trkpt lat="48.16141" lon="6.4241">
        <ele>461</ele>
        <time>2012-08-19T09:22:53Z</time>
      </trkpt>
      <trkpt lat="48.16115" lon="6.42442">
        <ele>461</ele>
        <time>2012-08-19T09:22:58Z</time>
      </trkpt>
      <trkpt lat="48.16091" lon="6.42461">
        <ele>459</ele>
        <time>2012-08-19T09:23:02Z</time>
      </trkpt>
      <trkpt lat="48.16069" lon="6.42483">
        <ele>459</ele>
        <time>2012-08-19T09:23:06Z</time>
      </trkpt>
      <trkpt lat="48.16044" lon="6.42504">
        <ele>458</ele>
        <time>2012-08-19T09:23:10Z</time>
      </trkpt>
      <trkpt lat="48.1602" lon="6.42528">
        <ele>458</ele>
        <time>2012-08-19T09:23:14Z</time>
      </trkpt>
      <trkpt lat="48.15991" lon="6.42563">
        <ele>460</ele>
        <time>2012-08-19T09:23:19Z</time>
      </trkpt>
      <trkpt lat="48.15969" lon="6.42592">
        <ele>459</ele>
        <time>2012-08-19T09:23:24Z</time>
      </trkpt>
      <trkpt lat="48.1595" lon="6.42614">
        <ele>459</ele>
        <time>2012-08-19T09:23:28Z</time>
      </trkpt>
      <trkpt lat="48.15947" lon="6.42644">
        <ele>458</ele>
        <time>2012-08-19T09:23:33Z</time>
      </trkpt>
      <trkpt lat="48.15964" lon="6.42661">
        <ele>458</ele>
        <time>2012-08-19T09:23:37Z</time>
      </trkpt>
      <trkpt lat="48.15973" lon="6.42673">
        <ele>458</ele>
        <time>2012-08-19T09:23:41Z</time>
      </trkpt>
      <trkpt lat="48.15985" lon="6.42699">
        <ele>458</ele>
        <time>2012-08-19T09:23:45Z</time>
      </trkpt>
      <trkpt lat="48.16007" lon="6.42726">
        <ele>459</ele>
        <time>2012-08-19T09:23:50Z</time>
      </trkpt>
      <trkpt lat="48.16027" lon="6.4272">
        <ele>459</ele>
        <time>2012-08-19T09:23:54Z</time>
      </trkpt>
      <trkpt lat="48.16047" lon="6.42724">
        <ele>459</ele>
        <time>2012-08-19T09:23:58Z</time>
      </trkpt>
      <trkpt lat="48.16069" lon="6.42726">
        <ele>459</ele>
        <time>2012-08-19T09:24:02Z</time>
      </trkpt>
      <trkpt lat="48.16088" lon="6.42736">
        <ele>461</ele>
        <time>2012-08-19T09:24:06Z</time>
      </trkpt>
      <trkpt lat="48.16107" lon="6.42756">
        <ele>463</ele>
        <time>2012-08-19T09:24:11Z</time>
      </trkpt>
      <trkpt lat="48.16127" lon="6.42782">
        <ele>463</ele>
        <time>2012-08-19T09:24:15Z</time>
      </trkpt>
      <trkpt lat="48.16146" lon="6.42804">
        <ele>458</ele>
        <time>2012-08-19T09:24:19Z</time>
      </trkpt>
      <trkpt lat="48.16165" lon="6.4282">
        <ele>453</ele>
        <time>2012-08-19T09:24:23Z</time>
      </trkpt>
      <trkpt lat="48.16188" lon="6.42828">
        <ele>451</ele>
        <time>2012-08-19T09:24:28Z</time>
      </trkpt>
      <trkpt lat="48.16209" lon="6.42829">
        <ele>451</ele>
        <time>2012-08-19T09:24:32Z</time>
      </trkpt>
      <trkpt lat="48.16229" lon="6.42827">
        <ele>453</ele>
        <time>2012-08-19T09:24:36Z</time>
      </trkpt>
      <trkpt lat="48.16259" lon="6.42829">
        <ele>455</ele>
        <time>2012-08-19T09:24:41Z</time>
      </trkpt>
      <trkpt lat="48.16285" lon="6.42836">
        <ele>455</ele>
        <time>2012-08-19T09:24:45Z</time>
      </trkpt>
      <trkpt lat="48.16313" lon="6.42836">
        <ele>455</ele>
        <time>2012-08-19T09:24:49Z</time>
      </trkpt>
      <trkpt lat="48.16331" lon="6.42818">
        <ele>455</ele>
        <time>2012-08-19T09:24:53Z</time>
      </trkpt>
      <trkpt lat="48.16361" lon="6.4279">
        <ele>458</ele>
        <time>2012-08-19T09:24:58Z</time>
      </trkpt>
      <trkpt lat="48.16396" lon="6.42776">
        <ele>457</ele>
        <time>2012-08-19T09:25:02Z</time>
      </trkpt>
      <trkpt lat="48.16422" lon="6.42744">
        <ele>454</ele>
        <time>2012-08-19T09:25:06Z</time>
      </trkpt>
      <trkpt lat="48.1644" lon="6.42694">
        <ele>450</ele>
        <time>2012-08-19T09:25:11Z</time>
      </trkpt>
      <trkpt lat="48.16454" lon="6.42656">
        <ele>449</ele>
        <time>2012-08-19T09:25:15Z</time>
      </trkpt>
      <trkpt lat="48.1647" lon="6.42615">
        <ele>449</ele>
        <time>2012-08-19T09:25:20Z</time>
      </trkpt>
      <trkpt lat="48.16481" lon="6.42585">
        <ele>449</ele>
        <time>2012-08-19T09:25:24Z</time>
      </trkpt>
      <trkpt lat="48.16492" lon="6.42558">
        <ele>448</ele>
        <time>2012-08-19T09:25:28Z</time>
      </trkpt>
      <trkpt lat="48.16501" lon="6.42533">
        <ele>450</ele>
        <time>2012-08-19T09:25:32Z</time>
      </trkpt>
      <trkpt lat="48.16514" lon="6.42509">
        <ele>453</ele>
        <time>2012-08-19T09:25:36Z</time>
      </trkpt>
      <trkpt lat="48.16536" lon="6.42503">
        <ele>453</ele>
        <time>2012-08-19T09:25:41Z</time>
      </trkpt>
      <trkpt lat="48.16551" lon="6.42493">
        <ele>453</ele>
        <time>2012-08-19T09:25:45Z</time>
      </trkpt>
      <trkpt lat="48.16574" lon="6.4248">
        <ele>454</ele>
        <time>2012-08-19T09:25:50Z</time>
      </trkpt>
      <trkpt lat="48.16602" lon="6.42456">
        <ele>454</ele>
        <time>2012-08-19T09:25:54Z</time>
      </trkpt>
      <trkpt lat="48.16623" lon="6.42418">
        <ele>454</ele>
        <time>2012-08-19T09:25:58Z</time>
      </trkpt>
      <trkpt lat="48.16662" lon="6.42385">
        <ele>450</ele>
        <time>2012-08-19T09:26:02Z</time>
      </trkpt>
      <trkpt lat="48.1671" lon="6.4236">
        <ele>444</ele>
        <time>2012-08-19T09:26:06Z</time>
      </trkpt>
      <trkpt lat="48.16757" lon="6.42324">
        <ele>440</ele>
        <time>2012-08-19T09:26:10Z</time>
      </trkpt>
      <trkpt lat="48.16798" lon="6.42294">
        <ele>433</ele>
        <time>2012-08-19T09:26:14Z</time>
      </trkpt>
      <trkpt lat="48.16816" lon="6.42281">
        <ele>429</ele>
        <time>2012-08-19T09:26:18Z</time>
      </trkpt>
      <trkpt lat="48.16823" lon="6.42281">
        <ele>429</ele>
        <time>2012-08-19T09:26:23Z</time>
      </trkpt>
      <trkpt lat="48.16833" lon="6.42323">
        <ele>428</ele>
        <time>2012-08-19T09:26:28Z</time>
      </trkpt>
      <trkpt lat="48.16847" lon="6.42366">
        <ele>427</ele>
        <time>2012-08-19T09:26:33Z</time>
      </trkpt>
      <trkpt lat="48.16864" lon="6.4241">
        <ele>427</ele>
        <time>2012-08-19T09:26:38Z</time>
      </trkpt>
      <trkpt lat="48.16873" lon="6.42439">
        <ele>427</ele>
        <time>2012-08-19T09:26:42Z</time>
      </trkpt>
      <trkpt lat="48.16883" lon="6.42466">
        <ele>427</ele>
        <time>2012-08-19T09:26:47Z</time>
      </trkpt>
      <trkpt lat="48.16888" lon="6.42482">
        <ele>427</ele>
        <time>2012-08-19T09:26:51Z</time>
      </trkpt>
      <trkpt lat="48.16887" lon="6.4251">
        <ele>427</ele>
        <time>2012-08-19T09:26:55Z</time>
      </trkpt>
      <trkpt lat="48.16882" lon="6.42534">
        <ele>427</ele>
        <time>2012-08-19T09:26:59Z</time>
      </trkpt>
      <trkpt lat="48.16869" lon="6.42569">
        <ele>426</ele>
        <time>2012-08-19T09:27:04Z</time>
      </trkpt>
      <trkpt lat="48.16865" lon="6.42617">
        <ele>425</ele>
        <time>2012-08-19T09:27:09Z</time>
      </trkpt>
      <trkpt lat="48.16864" lon="6.42655">
        <ele>425</ele>
        <time>2012-08-19T09:27:13Z</time>
      </trkpt>
      <trkpt lat="48.16862" lon="6.42702">
        <ele>424</ele>
        <time>2012-08-19T09:27:17Z</time>
      </trkpt>
      <trkpt lat="48.16856" lon="6.42756">
        <ele>422</ele>
        <time>2012-08-19T09:27:22Z</time>
      </trkpt>
      <trkpt lat="48.16849" lon="6.42792">
        <ele>422</ele>
        <time>2012-08-19T09:27:26Z</time>
      </trkpt>
      <trkpt lat="48.16843" lon="6.42813">
        <ele>422</ele>
        <time>2012-08-19T09:27:30Z</time>
      </trkpt>
      <trkpt lat="48.16834" lon="6.4284">
        <ele>422</ele>
        <time>2012-08-19T09:27:35Z</time>
      </trkpt>
      <trkpt lat="48.16825" lon="6.4286">
        <ele>423</ele>
        <time>2012-08-19T09:27:39Z</time>
      </trkpt>
      <trkpt lat="48.16817" lon="6.42887">
        <ele>424</ele>
        <time>2012-08-19T09:27:43Z</time>
      </trkpt>
      <trkpt lat="48.16806" lon="6.42924">
        <ele>425</ele>
        <time>2012-08-19T09:27:48Z</time>
      </trkpt>
      <trkpt lat="48.16794" lon="6.42959">
        <ele>424</ele>
        <time>2012-08-19T09:27:52Z</time>
      </trkpt>
      <trkpt lat="48.16777" lon="6.43001">
        <ele>424</ele>
        <time>2012-08-19T09:27:56Z</time>
      </trkpt>
      <trkpt lat="48.16755" lon="6.43045">
        <ele>421</ele>
        <time>2012-08-19T09:28:00Z</time>
      </trkpt>
      <trkpt lat="48.16736" lon="6.43089">
        <ele>419</ele>
        <time>2012-08-19T09:28:04Z</time>
      </trkpt>
      <trkpt lat="48.16713" lon="6.43123">
        <ele>416</ele>
        <time>2012-08-19T09:28:09Z</time>
      </trkpt>
      <trkpt lat="48.16704" lon="6.43141">
        <ele>417</ele>
        <time>2012-08-19T09:28:13Z</time>
      </trkpt>
      <trkpt lat="48.167" lon="6.43161">
        <ele>417</ele>
        <time>2012-08-19T09:28:17Z</time>
      </trkpt>
      <trkpt lat="48.16697" lon="6.43179">
        <ele>417</ele>
        <time>2012-08-19T09:28:21Z</time>
      </trkpt>
      <trkpt lat="48.16682" lon="6.43211">
        <ele>416</ele>
        <time>2012-08-19T09:28:26Z</time>
      </trkpt>
      <trkpt lat="48.16678" lon="6.4324">
        <ele>414</ele>
        <time>2012-08-19T09:28:30Z</time>
      </trkpt>
      <trkpt lat="48.16683" lon="6.43265">
        <ele>414</ele>
        <time>2012-08-19T09:28:35Z</time>
      </trkpt>
      <trkpt lat="48.16688" lon="6.4328">
        <ele>415</ele>
        <time>2012-08-19T09:28:39Z</time>
      </trkpt>
      <trkpt lat="48.16698" lon="6.433">
        <ele>415</ele>
        <time>2012-08-19T09:28:44Z</time>
      </trkpt>
      <trkpt lat="48.16713" lon="6.43317">
        <ele>416</ele>
        <time>2012-08-19T09:28:48Z</time>
      </trkpt>
      <trkpt lat="48.1674" lon="6.43334">
        <ele>415</ele>
        <time>2012-08-19T09:28:53Z</time>
      </trkpt>
      <trkpt lat="48.16759" lon="6.43348">
        <ele>415</ele>
        <time>2012-08-19T09:28:58Z</time>
      </trkpt>
      <trkpt lat="48.16764" lon="6.43366">
        <ele>414</ele>
        <time>2012-08-19T09:29:02Z</time>
      </trkpt>
      <trkpt lat="48.16762" lon="6.43379">
        <ele>414</ele>
        <time>2012-08-19T09:29:07Z</time>
      </trkpt>
      <trkpt lat="48.16753" lon="6.43385">
        <ele>414</ele>
        <time>2012-08-19T09:29:12Z</time>
      </trkpt>
      <trkpt lat="48.16744" lon="6.43392">
        <ele>414</ele>
        <time>2012-08-19T09:29:17Z</time>
      </trkpt>
      <trkpt lat="48.16734" lon="6.434">
        <ele>414</ele>
        <time>2012-08-19T09:29:21Z</time>
      </trkpt>
      <trkpt lat="48.16725" lon="6.43407">
        <ele>414</ele>
        <time>2012-08-19T09:29:25Z</time>
      </trkpt>
      <trkpt lat="48.16714" lon="6.43416">
        <ele>415</ele>
        <time>2012-08-19T09:29:30Z</time>
      </trkpt>
      <trkpt lat="48.16706" lon="6.43422">
        <ele>416</ele>
        <time>2012-08-19T09:29:34Z</time>
      </trkpt>
      <trkpt lat="48.16703" lon="6.4344">
        <ele>416</ele>
        <time>2012-08-19T09:29:39Z</time>
      </trkpt>
      <trkpt lat="48.16711" lon="6.43451">
        <ele>415</ele>
        <time>2012-08-19T09:29:43Z</time>
      </trkpt>
      <trkpt lat="48.16732" lon="6.43464">
        <ele>416</ele>
        <time>2012-08-19T09:29:47Z</time>
      </trkpt>
      <trkpt lat="48.16757" lon="6.43481">
        <ele>417</ele>
        <time>2012-08-19T09:29:51Z</time>
      </trkpt>
      <trkpt lat="48.16784" lon="6.43502">
        <ele>419</ele>
        <time>2012-08-19T09:29:55Z</time>
      </trkpt>
      <trkpt lat="48.16796" lon="6.43543">
        <ele>419</ele>
        <time>2012-08-19T09:29:59Z</time>
      </trkpt>
      <trkpt lat="48.16809" lon="6.43574">
        <ele>415</ele>
        <time>2012-08-19T09:30:03Z</time>
      </trkpt>
      <trkpt lat="48.16818" lon="6.43595">
        <ele>412</ele>
        <time>2012-08-19T09:30:07Z</time>
      </trkpt>
      <trkpt lat="48.168" lon="6.43613">
        <ele>412</ele>
        <time>2012-08-19T09:30:12Z</time>
      </trkpt>
      <trkpt lat="48.1679" lon="6.43624">
        <ele>412</ele>
        <time>2012-08-19T09:30:16Z</time>
      </trkpt>
      <trkpt lat="48.16783" lon="6.43637">
        <ele>412</ele>
        <time>2012-08-19T09:30:20Z</time>
      </trkpt>
      <trkpt lat="48.16781" lon="6.43652">
        <ele>412</ele>
        <time>2012-08-19T09:30:24Z</time>
      </trkpt>
      <trkpt lat="48.16773" lon="6.43661">
        <ele>413</ele>
        <time>2012-08-19T09:30:29Z</time>
      </trkpt>
      <trkpt lat="48.16766" lon="6.43669">
        <ele>412</ele>
        <time>2012-08-19T09:30:34Z</time>
      </trkpt>
      <trkpt lat="48.16762" lon="6.43659">
        <ele>413</ele>
        <time>2012-08-19T09:30:42Z</time>
      </trkpt>
      <trkpt lat="48.16762" lon="6.43657">
        <ele>412</ele>
        <time>2012-08-19T09:33:53Z</time>
      </trkpt>
      <trkpt lat="48.16762" lon="6.43657">
        <ele>412</ele>
        <time>2012-08-19T09:33:54Z</time>
      </trkpt>
    </trkseg>
  </trk>
</gpx>